<?xml version="1.0" encoding="UTF-8" standalone="no" ?>
<gpx xmlns="http://www.topografix.com/GPX/1/1" xmlns:xsi="http://www.w3.org/2001/XMLSchema-instance" xsi:schemaLocation="http://www.topografix.com/GPX/1/1 http://www.topografix.com/GPX/1/1/gpx.xsd" version="1.1" creator="VisuGPX - https://www.visugpx.com">
  <metadata>
    <name>Vendredi 18 septembre 26</name>
  </metadata>
  <trk>
    <name><![CDATA[Vendredi 18 septembre 26]]></name>
    <extensions>
      <line xmlns="http://www.topografix.com/GPX/gpx_style/0/2">
        <width>7</width>
      </line>
    </extensions>
    <trkseg>
      <trkpt lat="43.38671" lon="-1.66332">
        <ele>4</ele>
        <time>2026-08-23T13:03:54.000Z</time>
      </trkpt>
      <trkpt lat="43.38668" lon="-1.66327">
        <ele>4</ele>
        <time>2026-08-23T13:03:55.000Z</time>
      </trkpt>
      <trkpt lat="43.38667" lon="-1.66317">
        <ele>1</ele>
        <time>2026-08-23T13:03:56.000Z</time>
      </trkpt>
      <trkpt lat="43.38655" lon="-1.66312">
        <ele>1</ele>
        <time>2026-08-23T13:03:58.000Z</time>
      </trkpt>
      <trkpt lat="43.38651" lon="-1.66308">
        <ele>1</ele>
        <time>2026-08-23T13:03:59.000Z</time>
      </trkpt>
      <trkpt lat="43.38634" lon="-1.66254">
        <ele>3</ele>
        <time>2026-08-23T13:04:07.000Z</time>
      </trkpt>
      <trkpt lat="43.38628" lon="-1.66242">
        <ele>4</ele>
        <time>2026-08-23T13:04:09.000Z</time>
      </trkpt>
      <trkpt lat="43.38621" lon="-1.66235">
        <ele>4</ele>
        <time>2026-08-23T13:04:10.000Z</time>
      </trkpt>
      <trkpt lat="43.38612" lon="-1.66229">
        <ele>4</ele>
        <time>2026-08-23T13:04:12.000Z</time>
      </trkpt>
      <trkpt lat="43.38604" lon="-1.66226">
        <ele>4</ele>
        <time>2026-08-23T13:04:14.000Z</time>
      </trkpt>
      <trkpt lat="43.38596" lon="-1.66226">
        <ele>4</ele>
        <time>2026-08-23T13:04:15.000Z</time>
      </trkpt>
      <trkpt lat="43.38583" lon="-1.66231">
        <ele>3</ele>
        <time>2026-08-23T13:04:17.000Z</time>
      </trkpt>
      <trkpt lat="43.38558" lon="-1.6625">
        <ele>3</ele>
        <time>2026-08-23T13:04:22.000Z</time>
      </trkpt>
      <trkpt lat="43.38548" lon="-1.66274">
        <ele>3</ele>
        <time>2026-08-23T13:04:26.000Z</time>
      </trkpt>
      <trkpt lat="43.38518" lon="-1.66346">
        <ele>2</ele>
        <time>2026-08-23T13:04:37.000Z</time>
      </trkpt>
      <trkpt lat="43.38488" lon="-1.66426">
        <ele>5</ele>
        <time>2026-08-23T13:04:48.000Z</time>
      </trkpt>
      <trkpt lat="43.38484" lon="-1.6644">
        <ele>6</ele>
        <time>2026-08-23T13:04:50.000Z</time>
      </trkpt>
      <trkpt lat="43.38442" lon="-1.66534">
        <ele>5</ele>
        <time>2026-08-23T13:05:05.000Z</time>
      </trkpt>
      <trkpt lat="43.38437" lon="-1.66547">
        <ele>5</ele>
        <time>2026-08-23T13:05:07.000Z</time>
      </trkpt>
      <trkpt lat="43.38433" lon="-1.66561">
        <ele>4</ele>
        <time>2026-08-23T13:05:08.000Z</time>
      </trkpt>
      <trkpt lat="43.38434" lon="-1.66573">
        <ele>4</ele>
        <time>2026-08-23T13:05:10.000Z</time>
      </trkpt>
      <trkpt lat="43.38436" lon="-1.66585">
        <ele>4</ele>
        <time>2026-08-23T13:05:12.000Z</time>
      </trkpt>
      <trkpt lat="43.3845" lon="-1.66621">
        <ele>4</ele>
        <time>2026-08-23T13:05:17.000Z</time>
      </trkpt>
      <trkpt lat="43.38459" lon="-1.66621">
        <ele>4</ele>
        <time>2026-08-23T13:05:18.000Z</time>
      </trkpt>
      <trkpt lat="43.38462" lon="-1.66624">
        <ele>4</ele>
        <time>2026-08-23T13:05:19.000Z</time>
      </trkpt>
      <trkpt lat="43.38464" lon="-1.66638">
        <ele>4</ele>
        <time>2026-08-23T13:05:21.000Z</time>
      </trkpt>
      <trkpt lat="43.3846" lon="-1.66646">
        <ele>4</ele>
        <time>2026-08-23T13:05:22.000Z</time>
      </trkpt>
      <trkpt lat="43.3847" lon="-1.66674">
        <ele>5</ele>
        <time>2026-08-23T13:05:26.000Z</time>
      </trkpt>
      <trkpt lat="43.38482" lon="-1.66695">
        <ele>5</ele>
        <time>2026-08-23T13:05:30.000Z</time>
      </trkpt>
      <trkpt lat="43.38491" lon="-1.66705">
        <ele>5</ele>
        <time>2026-08-23T13:05:32.000Z</time>
      </trkpt>
      <trkpt lat="43.38551" lon="-1.66747">
        <ele>5</ele>
        <time>2026-08-23T13:05:44.000Z</time>
      </trkpt>
      <trkpt lat="43.38574" lon="-1.66766">
        <ele>6</ele>
        <time>2026-08-23T13:05:49.000Z</time>
      </trkpt>
      <trkpt lat="43.3863" lon="-1.66831">
        <ele>7</ele>
        <time>2026-08-23T13:06:02.000Z</time>
      </trkpt>
      <trkpt lat="43.38673" lon="-1.6689">
        <ele>7</ele>
        <time>2026-08-23T13:06:12.000Z</time>
      </trkpt>
      <trkpt lat="43.38676" lon="-1.66887">
        <ele>7</ele>
        <time>2026-08-23T13:06:13.000Z</time>
      </trkpt>
      <trkpt lat="43.38734" lon="-1.66959">
        <ele>6</ele>
        <time>2026-08-23T13:06:27.000Z</time>
      </trkpt>
      <trkpt lat="43.38773" lon="-1.67048">
        <ele>8</ele>
        <time>2026-08-23T13:06:40.000Z</time>
      </trkpt>
      <trkpt lat="43.3877" lon="-1.67051">
        <ele>8</ele>
        <time>2026-08-23T13:06:41.000Z</time>
      </trkpt>
      <trkpt lat="43.38806" lon="-1.67102">
        <ele>8</ele>
        <time>2026-08-23T13:06:50.000Z</time>
      </trkpt>
      <trkpt lat="43.38814" lon="-1.67118">
        <ele>8</ele>
        <time>2026-08-23T13:06:53.000Z</time>
      </trkpt>
      <trkpt lat="43.38836" lon="-1.67177">
        <ele>9</ele>
        <time>2026-08-23T13:07:01.000Z</time>
      </trkpt>
      <trkpt lat="43.38848" lon="-1.67217">
        <ele>10</ele>
        <time>2026-08-23T13:07:07.000Z</time>
      </trkpt>
      <trkpt lat="43.38849" lon="-1.67234">
        <ele>11</ele>
        <time>2026-08-23T13:07:09.000Z</time>
      </trkpt>
      <trkpt lat="43.38848" lon="-1.67251">
        <ele>12</ele>
        <time>2026-08-23T13:07:11.000Z</time>
      </trkpt>
      <trkpt lat="43.38842" lon="-1.6728">
        <ele>12</ele>
        <time>2026-08-23T13:07:15.000Z</time>
      </trkpt>
      <trkpt lat="43.3882" lon="-1.67323">
        <ele>16</ele>
        <time>2026-08-23T13:07:22.000Z</time>
      </trkpt>
      <trkpt lat="43.38813" lon="-1.67353">
        <ele>18</ele>
        <time>2026-08-23T13:07:26.000Z</time>
      </trkpt>
      <trkpt lat="43.38807" lon="-1.67583">
        <ele>16</ele>
        <time>2026-08-23T13:07:56.000Z</time>
      </trkpt>
      <trkpt lat="43.38812" lon="-1.67583">
        <ele>15</ele>
        <time>2026-08-23T13:07:57.000Z</time>
      </trkpt>
      <trkpt lat="43.38811" lon="-1.67595">
        <ele>14</ele>
        <time>2026-08-23T13:07:58.000Z</time>
      </trkpt>
      <trkpt lat="43.38811" lon="-1.676">
        <ele>14</ele>
        <time>2026-08-23T13:07:59.000Z</time>
      </trkpt>
      <trkpt lat="43.38811" lon="-1.67664">
        <ele>12</ele>
        <time>2026-08-23T13:08:07.000Z</time>
      </trkpt>
      <trkpt lat="43.3881" lon="-1.67716">
        <ele>14</ele>
        <time>2026-08-23T13:08:14.000Z</time>
      </trkpt>
      <trkpt lat="43.3881" lon="-1.67717">
        <ele>14</ele>
        <time>2026-08-23T13:08:14.000Z</time>
      </trkpt>
      <trkpt lat="43.3881" lon="-1.67749">
        <ele>15</ele>
        <time>2026-08-23T13:08:18.000Z</time>
      </trkpt>
      <trkpt lat="43.38813" lon="-1.67788">
        <ele>16</ele>
        <time>2026-08-23T13:08:23.000Z</time>
      </trkpt>
      <trkpt lat="43.38814" lon="-1.67792">
        <ele>16</ele>
        <time>2026-08-23T13:08:24.000Z</time>
      </trkpt>
      <trkpt lat="43.38826" lon="-1.67838">
        <ele>14</ele>
        <time>2026-08-23T13:08:30.000Z</time>
      </trkpt>
      <trkpt lat="43.38829" lon="-1.67845">
        <ele>13</ele>
        <time>2026-08-23T13:08:31.000Z</time>
      </trkpt>
      <trkpt lat="43.38841" lon="-1.67882">
        <ele>10</ele>
        <time>2026-08-23T13:08:36.000Z</time>
      </trkpt>
      <trkpt lat="43.38845" lon="-1.67895">
        <ele>9</ele>
        <time>2026-08-23T13:08:38.000Z</time>
      </trkpt>
      <trkpt lat="43.38846" lon="-1.67898">
        <ele>9</ele>
        <time>2026-08-23T13:08:39.000Z</time>
      </trkpt>
      <trkpt lat="43.38849" lon="-1.67918">
        <ele>8</ele>
        <time>2026-08-23T13:08:41.000Z</time>
      </trkpt>
      <trkpt lat="43.3885" lon="-1.67931">
        <ele>8</ele>
        <time>2026-08-23T13:08:43.000Z</time>
      </trkpt>
      <trkpt lat="43.38852" lon="-1.67942">
        <ele>8</ele>
        <time>2026-08-23T13:08:45.000Z</time>
      </trkpt>
      <trkpt lat="43.38853" lon="-1.67953">
        <ele>9</ele>
        <time>2026-08-23T13:08:46.000Z</time>
      </trkpt>
      <trkpt lat="43.3886" lon="-1.67973">
        <ele>8</ele>
        <time>2026-08-23T13:08:49.000Z</time>
      </trkpt>
      <trkpt lat="43.38887" lon="-1.68021">
        <ele>6</ele>
        <time>2026-08-23T13:08:57.000Z</time>
      </trkpt>
      <trkpt lat="43.38895" lon="-1.68048">
        <ele>6</ele>
        <time>2026-08-23T13:09:00.000Z</time>
      </trkpt>
      <trkpt lat="43.38907" lon="-1.68093">
        <ele>6</ele>
        <time>2026-08-23T13:09:07.000Z</time>
      </trkpt>
      <trkpt lat="43.38912" lon="-1.68105">
        <ele>6</ele>
        <time>2026-08-23T13:09:08.000Z</time>
      </trkpt>
      <trkpt lat="43.38924" lon="-1.68152">
        <ele>6</ele>
        <time>2026-08-23T13:09:15.000Z</time>
      </trkpt>
      <trkpt lat="43.3893" lon="-1.68165">
        <ele>6</ele>
        <time>2026-08-23T13:09:17.000Z</time>
      </trkpt>
      <trkpt lat="43.38952" lon="-1.6825">
        <ele>5</ele>
        <time>2026-08-23T13:09:29.000Z</time>
      </trkpt>
      <trkpt lat="43.38953" lon="-1.68269">
        <ele>6</ele>
        <time>2026-08-23T13:09:31.000Z</time>
      </trkpt>
      <trkpt lat="43.38956" lon="-1.68281">
        <ele>7</ele>
        <time>2026-08-23T13:09:33.000Z</time>
      </trkpt>
      <trkpt lat="43.38958" lon="-1.68289">
        <ele>7</ele>
        <time>2026-08-23T13:09:34.000Z</time>
      </trkpt>
      <trkpt lat="43.38959" lon="-1.68291">
        <ele>7</ele>
        <time>2026-08-23T13:09:34.000Z</time>
      </trkpt>
      <trkpt lat="43.38985" lon="-1.68401">
        <ele>6</ele>
        <time>2026-08-23T13:09:49.000Z</time>
      </trkpt>
      <trkpt lat="43.38988" lon="-1.68427">
        <ele>6</ele>
        <time>2026-08-23T13:09:52.000Z</time>
      </trkpt>
      <trkpt lat="43.3899" lon="-1.68444">
        <ele>5</ele>
        <time>2026-08-23T13:09:55.000Z</time>
      </trkpt>
      <trkpt lat="43.38992" lon="-1.68464">
        <ele>5</ele>
        <time>2026-08-23T13:09:57.000Z</time>
      </trkpt>
      <trkpt lat="43.38991" lon="-1.68487">
        <ele>5</ele>
        <time>2026-08-23T13:10:00.000Z</time>
      </trkpt>
      <trkpt lat="43.38993" lon="-1.68488">
        <ele>5</ele>
        <time>2026-08-23T13:10:01.000Z</time>
      </trkpt>
      <trkpt lat="43.38995" lon="-1.68491">
        <ele>5</ele>
        <time>2026-08-23T13:10:01.000Z</time>
      </trkpt>
      <trkpt lat="43.39007" lon="-1.68533">
        <ele>4</ele>
        <time>2026-08-23T13:10:07.000Z</time>
      </trkpt>
      <trkpt lat="43.39004" lon="-1.68539">
        <ele>4</ele>
        <time>2026-08-23T13:10:08.000Z</time>
      </trkpt>
      <trkpt lat="43.3901" lon="-1.68553">
        <ele>4</ele>
        <time>2026-08-23T13:10:10.000Z</time>
      </trkpt>
      <trkpt lat="43.39007" lon="-1.68558">
        <ele>4</ele>
        <time>2026-08-23T13:10:11.000Z</time>
      </trkpt>
      <trkpt lat="43.39011" lon="-1.68563">
        <ele>4</ele>
        <time>2026-08-23T13:10:12.000Z</time>
      </trkpt>
      <trkpt lat="43.39018" lon="-1.68573">
        <ele>4</ele>
        <time>2026-08-23T13:10:14.000Z</time>
      </trkpt>
      <trkpt lat="43.3903" lon="-1.68584">
        <ele>4</ele>
        <time>2026-08-23T13:10:16.000Z</time>
      </trkpt>
      <trkpt lat="43.39067" lon="-1.686">
        <ele>5</ele>
        <time>2026-08-23T13:10:23.000Z</time>
      </trkpt>
      <trkpt lat="43.39093" lon="-1.68605">
        <ele>6</ele>
        <time>2026-08-23T13:10:28.000Z</time>
      </trkpt>
      <trkpt lat="43.391" lon="-1.68607">
        <ele>6</ele>
        <time>2026-08-23T13:10:29.000Z</time>
      </trkpt>
      <trkpt lat="43.39114" lon="-1.68609">
        <ele>6</ele>
        <time>2026-08-23T13:10:31.000Z</time>
      </trkpt>
      <trkpt lat="43.39156" lon="-1.68612">
        <ele>7</ele>
        <time>2026-08-23T13:10:39.000Z</time>
      </trkpt>
      <trkpt lat="43.39173" lon="-1.68614">
        <ele>7</ele>
        <time>2026-08-23T13:10:42.000Z</time>
      </trkpt>
      <trkpt lat="43.39189" lon="-1.68617">
        <ele>8</ele>
        <time>2026-08-23T13:10:45.000Z</time>
      </trkpt>
      <trkpt lat="43.392" lon="-1.68622">
        <ele>9</ele>
        <time>2026-08-23T13:10:47.000Z</time>
      </trkpt>
      <trkpt lat="43.39216" lon="-1.68632">
        <ele>10</ele>
        <time>2026-08-23T13:10:50.000Z</time>
      </trkpt>
      <trkpt lat="43.39227" lon="-1.68642">
        <ele>10</ele>
        <time>2026-08-23T13:10:52.000Z</time>
      </trkpt>
      <trkpt lat="43.39255" lon="-1.68682">
        <ele>12</ele>
        <time>2026-08-23T13:11:00.000Z</time>
      </trkpt>
      <trkpt lat="43.39268" lon="-1.68697">
        <ele>13</ele>
        <time>2026-08-23T13:11:03.000Z</time>
      </trkpt>
      <trkpt lat="43.39285" lon="-1.68711">
        <ele>14</ele>
        <time>2026-08-23T13:11:06.000Z</time>
      </trkpt>
      <trkpt lat="43.3935" lon="-1.68748">
        <ele>15</ele>
        <time>2026-08-23T13:11:19.000Z</time>
      </trkpt>
      <trkpt lat="43.39371" lon="-1.68762">
        <ele>16</ele>
        <time>2026-08-23T13:11:23.000Z</time>
      </trkpt>
      <trkpt lat="43.39392" lon="-1.68783">
        <ele>16</ele>
        <time>2026-08-23T13:11:27.000Z</time>
      </trkpt>
      <trkpt lat="43.39403" lon="-1.68799">
        <ele>16</ele>
        <time>2026-08-23T13:11:30.000Z</time>
      </trkpt>
      <trkpt lat="43.39411" lon="-1.68814">
        <ele>15</ele>
        <time>2026-08-23T13:11:33.000Z</time>
      </trkpt>
      <trkpt lat="43.39422" lon="-1.6884">
        <ele>13</ele>
        <time>2026-08-23T13:11:37.000Z</time>
      </trkpt>
      <trkpt lat="43.39427" lon="-1.68858">
        <ele>12</ele>
        <time>2026-08-23T13:11:39.000Z</time>
      </trkpt>
      <trkpt lat="43.3943" lon="-1.68874">
        <ele>12</ele>
        <time>2026-08-23T13:11:41.000Z</time>
      </trkpt>
      <trkpt lat="43.39432" lon="-1.68887">
        <ele>11</ele>
        <time>2026-08-23T13:11:43.000Z</time>
      </trkpt>
      <trkpt lat="43.39434" lon="-1.68922">
        <ele>10</ele>
        <time>2026-08-23T13:11:47.000Z</time>
      </trkpt>
      <trkpt lat="43.3943" lon="-1.68958">
        <ele>12</ele>
        <time>2026-08-23T13:11:52.000Z</time>
      </trkpt>
      <trkpt lat="43.39399" lon="-1.69114">
        <ele>14</ele>
        <time>2026-08-23T13:12:13.000Z</time>
      </trkpt>
      <trkpt lat="43.39386" lon="-1.69191">
        <ele>14</ele>
        <time>2026-08-23T13:12:23.000Z</time>
      </trkpt>
      <trkpt lat="43.39378" lon="-1.69252">
        <ele>15</ele>
        <time>2026-08-23T13:12:31.000Z</time>
      </trkpt>
      <trkpt lat="43.39373" lon="-1.69291">
        <ele>17</ele>
        <time>2026-08-23T13:12:36.000Z</time>
      </trkpt>
      <trkpt lat="43.39364" lon="-1.69331">
        <ele>20</ele>
        <time>2026-08-23T13:12:42.000Z</time>
      </trkpt>
      <trkpt lat="43.39359" lon="-1.69343">
        <ele>20</ele>
        <time>2026-08-23T13:12:44.000Z</time>
      </trkpt>
      <trkpt lat="43.39345" lon="-1.69372">
        <ele>22</ele>
        <time>2026-08-23T13:12:48.000Z</time>
      </trkpt>
      <trkpt lat="43.39278" lon="-1.69493">
        <ele>21</ele>
        <time>2026-08-23T13:13:08.000Z</time>
      </trkpt>
      <trkpt lat="43.39225" lon="-1.69594">
        <ele>21</ele>
        <time>2026-08-23T13:13:24.000Z</time>
      </trkpt>
      <trkpt lat="43.39156" lon="-1.69778">
        <ele>37</ele>
        <time>2026-08-23T13:13:51.000Z</time>
      </trkpt>
      <trkpt lat="43.3915" lon="-1.69798">
        <ele>38</ele>
        <time>2026-08-23T13:13:53.000Z</time>
      </trkpt>
      <trkpt lat="43.39143" lon="-1.69843">
        <ele>39</ele>
        <time>2026-08-23T13:13:59.000Z</time>
      </trkpt>
      <trkpt lat="43.39147" lon="-1.70008">
        <ele>33</ele>
        <time>2026-08-23T13:14:21.000Z</time>
      </trkpt>
      <trkpt lat="43.39147" lon="-1.70028">
        <ele>31</ele>
        <time>2026-08-23T13:14:23.000Z</time>
      </trkpt>
      <trkpt lat="43.39147" lon="-1.70042">
        <ele>30</ele>
        <time>2026-08-23T13:14:25.000Z</time>
      </trkpt>
      <trkpt lat="43.39143" lon="-1.70058">
        <ele>30</ele>
        <time>2026-08-23T13:14:27.000Z</time>
      </trkpt>
      <trkpt lat="43.39137" lon="-1.70072">
        <ele>30</ele>
        <time>2026-08-23T13:14:29.000Z</time>
      </trkpt>
      <trkpt lat="43.39121" lon="-1.70098">
        <ele>32</ele>
        <time>2026-08-23T13:14:34.000Z</time>
      </trkpt>
      <trkpt lat="43.39111" lon="-1.70116">
        <ele>32</ele>
        <time>2026-08-23T13:14:37.000Z</time>
      </trkpt>
      <trkpt lat="43.39106" lon="-1.70132">
        <ele>32</ele>
        <time>2026-08-23T13:14:39.000Z</time>
      </trkpt>
      <trkpt lat="43.39096" lon="-1.70151">
        <ele>32</ele>
        <time>2026-08-23T13:14:42.000Z</time>
      </trkpt>
      <trkpt lat="43.39087" lon="-1.70176">
        <ele>31</ele>
        <time>2026-08-23T13:14:46.000Z</time>
      </trkpt>
      <trkpt lat="43.39069" lon="-1.7023">
        <ele>27</ele>
        <time>2026-08-23T13:14:53.000Z</time>
      </trkpt>
      <trkpt lat="43.39062" lon="-1.70245">
        <ele>27</ele>
        <time>2026-08-23T13:14:56.000Z</time>
      </trkpt>
      <trkpt lat="43.39043" lon="-1.70314">
        <ele>26</ele>
        <time>2026-08-23T13:15:05.000Z</time>
      </trkpt>
      <trkpt lat="43.38998" lon="-1.70437">
        <ele>34</ele>
        <time>2026-08-23T13:15:23.000Z</time>
      </trkpt>
      <trkpt lat="43.38956" lon="-1.70576">
        <ele>39</ele>
        <time>2026-08-23T13:15:42.000Z</time>
      </trkpt>
      <trkpt lat="43.38947" lon="-1.70596">
        <ele>40</ele>
        <time>2026-08-23T13:15:46.000Z</time>
      </trkpt>
      <trkpt lat="43.3891" lon="-1.70662">
        <ele>44</ele>
        <time>2026-08-23T13:15:56.000Z</time>
      </trkpt>
      <trkpt lat="43.38899" lon="-1.70698">
        <ele>42</ele>
        <time>2026-08-23T13:16:01.000Z</time>
      </trkpt>
      <trkpt lat="43.3889" lon="-1.70743">
        <ele>39</ele>
        <time>2026-08-23T13:16:07.000Z</time>
      </trkpt>
      <trkpt lat="43.3888" lon="-1.70827">
        <ele>34</ele>
        <time>2026-08-23T13:16:18.000Z</time>
      </trkpt>
      <trkpt lat="43.38872" lon="-1.70852">
        <ele>32</ele>
        <time>2026-08-23T13:16:22.000Z</time>
      </trkpt>
      <trkpt lat="43.38862" lon="-1.70868">
        <ele>31</ele>
        <time>2026-08-23T13:16:25.000Z</time>
      </trkpt>
      <trkpt lat="43.38851" lon="-1.7088">
        <ele>31</ele>
        <time>2026-08-23T13:16:27.000Z</time>
      </trkpt>
      <trkpt lat="43.38842" lon="-1.70887">
        <ele>32</ele>
        <time>2026-08-23T13:16:29.000Z</time>
      </trkpt>
      <trkpt lat="43.38825" lon="-1.70895">
        <ele>33</ele>
        <time>2026-08-23T13:16:32.000Z</time>
      </trkpt>
      <trkpt lat="43.38694" lon="-1.70943">
        <ele>30</ele>
        <time>2026-08-23T13:16:56.000Z</time>
      </trkpt>
      <trkpt lat="43.3867" lon="-1.70961">
        <ele>29</ele>
        <time>2026-08-23T13:17:01.000Z</time>
      </trkpt>
      <trkpt lat="43.38652" lon="-1.70983">
        <ele>28</ele>
        <time>2026-08-23T13:17:05.000Z</time>
      </trkpt>
      <trkpt lat="43.38642" lon="-1.71002">
        <ele>27</ele>
        <time>2026-08-23T13:17:08.000Z</time>
      </trkpt>
      <trkpt lat="43.38636" lon="-1.7102">
        <ele>26</ele>
        <time>2026-08-23T13:17:11.000Z</time>
      </trkpt>
      <trkpt lat="43.38631" lon="-1.71045">
        <ele>25</ele>
        <time>2026-08-23T13:17:14.000Z</time>
      </trkpt>
      <trkpt lat="43.3863" lon="-1.71064">
        <ele>24</ele>
        <time>2026-08-23T13:17:17.000Z</time>
      </trkpt>
      <trkpt lat="43.38634" lon="-1.71099">
        <ele>22</ele>
        <time>2026-08-23T13:17:21.000Z</time>
      </trkpt>
      <trkpt lat="43.38636" lon="-1.7111">
        <ele>21</ele>
        <time>2026-08-23T13:17:23.000Z</time>
      </trkpt>
      <trkpt lat="43.38661" lon="-1.71216">
        <ele>16</ele>
        <time>2026-08-23T13:17:37.000Z</time>
      </trkpt>
      <trkpt lat="43.3868" lon="-1.71293">
        <ele>13</ele>
        <time>2026-08-23T13:17:48.000Z</time>
      </trkpt>
      <trkpt lat="43.38683" lon="-1.71316">
        <ele>13</ele>
        <time>2026-08-23T13:17:51.000Z</time>
      </trkpt>
      <trkpt lat="43.38683" lon="-1.7133">
        <ele>14</ele>
        <time>2026-08-23T13:17:53.000Z</time>
      </trkpt>
      <trkpt lat="43.38678" lon="-1.71369">
        <ele>16</ele>
        <time>2026-08-23T13:17:58.000Z</time>
      </trkpt>
      <trkpt lat="43.38648" lon="-1.71474">
        <ele>18</ele>
        <time>2026-08-23T13:18:12.000Z</time>
      </trkpt>
      <trkpt lat="43.38646" lon="-1.71479">
        <ele>18</ele>
        <time>2026-08-23T13:18:13.000Z</time>
      </trkpt>
      <trkpt lat="43.38635" lon="-1.71518">
        <ele>17</ele>
        <time>2026-08-23T13:18:19.000Z</time>
      </trkpt>
      <trkpt lat="43.38577" lon="-1.7172">
        <ele>26</ele>
        <time>2026-08-23T13:18:47.000Z</time>
      </trkpt>
      <trkpt lat="43.38498" lon="-1.71929">
        <ele>32</ele>
        <time>2026-08-23T13:19:17.000Z</time>
      </trkpt>
      <trkpt lat="43.38464" lon="-1.72025">
        <ele>33</ele>
        <time>2026-08-23T13:19:31.000Z</time>
      </trkpt>
      <trkpt lat="43.38446" lon="-1.72073">
        <ele>35</ele>
        <time>2026-08-23T13:19:38.000Z</time>
      </trkpt>
      <trkpt lat="43.38412" lon="-1.72163">
        <ele>41</ele>
        <time>2026-08-23T13:19:51.000Z</time>
      </trkpt>
      <trkpt lat="43.38406" lon="-1.72191">
        <ele>42</ele>
        <time>2026-08-23T13:19:55.000Z</time>
      </trkpt>
      <trkpt lat="43.38404" lon="-1.72205">
        <ele>42</ele>
        <time>2026-08-23T13:19:57.000Z</time>
      </trkpt>
      <trkpt lat="43.38407" lon="-1.72251">
        <ele>43</ele>
        <time>2026-08-23T13:20:03.000Z</time>
      </trkpt>
      <trkpt lat="43.38431" lon="-1.72354">
        <ele>34</ele>
        <time>2026-08-23T13:20:17.000Z</time>
      </trkpt>
      <trkpt lat="43.38437" lon="-1.72386">
        <ele>30</ele>
        <time>2026-08-23T13:20:21.000Z</time>
      </trkpt>
      <trkpt lat="43.38439" lon="-1.72417">
        <ele>27</ele>
        <time>2026-08-23T13:20:25.000Z</time>
      </trkpt>
      <trkpt lat="43.38436" lon="-1.72448">
        <ele>25</ele>
        <time>2026-08-23T13:20:29.000Z</time>
      </trkpt>
      <trkpt lat="43.38431" lon="-1.72474">
        <ele>24</ele>
        <time>2026-08-23T13:20:32.000Z</time>
      </trkpt>
      <trkpt lat="43.38423" lon="-1.725">
        <ele>23</ele>
        <time>2026-08-23T13:20:36.000Z</time>
      </trkpt>
      <trkpt lat="43.38414" lon="-1.72521">
        <ele>22</ele>
        <time>2026-08-23T13:20:39.000Z</time>
      </trkpt>
      <trkpt lat="43.38407" lon="-1.72535">
        <ele>20</ele>
        <time>2026-08-23T13:20:41.000Z</time>
      </trkpt>
      <trkpt lat="43.38391" lon="-1.72558">
        <ele>18</ele>
        <time>2026-08-23T13:20:46.000Z</time>
      </trkpt>
      <trkpt lat="43.38378" lon="-1.72572">
        <ele>18</ele>
        <time>2026-08-23T13:20:48.000Z</time>
      </trkpt>
      <trkpt lat="43.38236" lon="-1.72702">
        <ele>19</ele>
        <time>2026-08-23T13:21:19.000Z</time>
      </trkpt>
      <trkpt lat="43.38219" lon="-1.72724">
        <ele>18</ele>
        <time>2026-08-23T13:21:23.000Z</time>
      </trkpt>
      <trkpt lat="43.38209" lon="-1.72746">
        <ele>16</ele>
        <time>2026-08-23T13:21:26.000Z</time>
      </trkpt>
      <trkpt lat="43.38202" lon="-1.72766">
        <ele>16</ele>
        <time>2026-08-23T13:21:29.000Z</time>
      </trkpt>
      <trkpt lat="43.38178" lon="-1.72857">
        <ele>15</ele>
        <time>2026-08-23T13:21:42.000Z</time>
      </trkpt>
      <trkpt lat="43.38169" lon="-1.72896">
        <ele>15</ele>
        <time>2026-08-23T13:21:47.000Z</time>
      </trkpt>
      <trkpt lat="43.38166" lon="-1.72918">
        <ele>15</ele>
        <time>2026-08-23T13:21:50.000Z</time>
      </trkpt>
      <trkpt lat="43.38165" lon="-1.72949">
        <ele>15</ele>
        <time>2026-08-23T13:21:54.000Z</time>
      </trkpt>
      <trkpt lat="43.38166" lon="-1.72973">
        <ele>15</ele>
        <time>2026-08-23T13:21:57.000Z</time>
      </trkpt>
      <trkpt lat="43.38183" lon="-1.73113">
        <ele>15</ele>
        <time>2026-08-23T13:22:15.000Z</time>
      </trkpt>
      <trkpt lat="43.38181" lon="-1.73146">
        <ele>15</ele>
        <time>2026-08-23T13:22:20.000Z</time>
      </trkpt>
      <trkpt lat="43.38174" lon="-1.73172">
        <ele>16</ele>
        <time>2026-08-23T13:22:23.000Z</time>
      </trkpt>
      <trkpt lat="43.38162" lon="-1.73195">
        <ele>14</ele>
        <time>2026-08-23T13:22:27.000Z</time>
      </trkpt>
      <trkpt lat="43.38149" lon="-1.73211">
        <ele>13</ele>
        <time>2026-08-23T13:22:30.000Z</time>
      </trkpt>
      <trkpt lat="43.38137" lon="-1.73221">
        <ele>12</ele>
        <time>2026-08-23T13:22:32.000Z</time>
      </trkpt>
      <trkpt lat="43.38124" lon="-1.73228">
        <ele>11</ele>
        <time>2026-08-23T13:22:35.000Z</time>
      </trkpt>
      <trkpt lat="43.38106" lon="-1.73233">
        <ele>11</ele>
        <time>2026-08-23T13:22:38.000Z</time>
      </trkpt>
      <trkpt lat="43.38053" lon="-1.73232">
        <ele>12</ele>
        <time>2026-08-23T13:22:48.000Z</time>
      </trkpt>
      <trkpt lat="43.38035" lon="-1.73234">
        <ele>12</ele>
        <time>2026-08-23T13:22:51.000Z</time>
      </trkpt>
      <trkpt lat="43.38018" lon="-1.7324">
        <ele>11</ele>
        <time>2026-08-23T13:22:54.000Z</time>
      </trkpt>
      <trkpt lat="43.37967" lon="-1.73272">
        <ele>11</ele>
        <time>2026-08-23T13:23:04.000Z</time>
      </trkpt>
      <trkpt lat="43.37947" lon="-1.73286">
        <ele>12</ele>
        <time>2026-08-23T13:23:08.000Z</time>
      </trkpt>
      <trkpt lat="43.37939" lon="-1.73292">
        <ele>12</ele>
        <time>2026-08-23T13:23:10.000Z</time>
      </trkpt>
      <trkpt lat="43.37928" lon="-1.73301">
        <ele>13</ele>
        <time>2026-08-23T13:23:12.000Z</time>
      </trkpt>
      <trkpt lat="43.37919" lon="-1.73309">
        <ele>13</ele>
        <time>2026-08-23T13:23:14.000Z</time>
      </trkpt>
      <trkpt lat="43.3791" lon="-1.73318">
        <ele>13</ele>
        <time>2026-08-23T13:23:16.000Z</time>
      </trkpt>
      <trkpt lat="43.37895" lon="-1.73335">
        <ele>12</ele>
        <time>2026-08-23T13:23:19.000Z</time>
      </trkpt>
      <trkpt lat="43.37871" lon="-1.73371">
        <ele>13</ele>
        <time>2026-08-23T13:23:26.000Z</time>
      </trkpt>
      <trkpt lat="43.37869" lon="-1.73374">
        <ele>13</ele>
        <time>2026-08-23T13:23:26.000Z</time>
      </trkpt>
      <trkpt lat="43.37837" lon="-1.73426">
        <ele>14</ele>
        <time>2026-08-23T13:23:35.000Z</time>
      </trkpt>
      <trkpt lat="43.37762" lon="-1.73547">
        <ele>21</ele>
        <time>2026-08-23T13:23:55.000Z</time>
      </trkpt>
      <trkpt lat="43.37746" lon="-1.73579">
        <ele>25</ele>
        <time>2026-08-23T13:24:00.000Z</time>
      </trkpt>
      <trkpt lat="43.37738" lon="-1.73599">
        <ele>25</ele>
        <time>2026-08-23T13:24:03.000Z</time>
      </trkpt>
      <trkpt lat="43.37733" lon="-1.73624">
        <ele>24</ele>
        <time>2026-08-23T13:24:07.000Z</time>
      </trkpt>
      <trkpt lat="43.37734" lon="-1.73667">
        <ele>24</ele>
        <time>2026-08-23T13:24:12.000Z</time>
      </trkpt>
      <trkpt lat="43.37736" lon="-1.73685">
        <ele>24</ele>
        <time>2026-08-23T13:24:15.000Z</time>
      </trkpt>
      <trkpt lat="43.37755" lon="-1.7377">
        <ele>27</ele>
        <time>2026-08-23T13:24:26.000Z</time>
      </trkpt>
      <trkpt lat="43.37758" lon="-1.73799">
        <ele>28</ele>
        <time>2026-08-23T13:24:30.000Z</time>
      </trkpt>
      <trkpt lat="43.37757" lon="-1.73812">
        <ele>29</ele>
        <time>2026-08-23T13:24:32.000Z</time>
      </trkpt>
      <trkpt lat="43.37749" lon="-1.73845">
        <ele>31</ele>
        <time>2026-08-23T13:24:36.000Z</time>
      </trkpt>
      <trkpt lat="43.37737" lon="-1.7387">
        <ele>32</ele>
        <time>2026-08-23T13:24:40.000Z</time>
      </trkpt>
      <trkpt lat="43.37727" lon="-1.73884">
        <ele>33</ele>
        <time>2026-08-23T13:24:43.000Z</time>
      </trkpt>
      <trkpt lat="43.37707" lon="-1.73905">
        <ele>35</ele>
        <time>2026-08-23T13:24:47.000Z</time>
      </trkpt>
      <trkpt lat="43.37701" lon="-1.73911">
        <ele>36</ele>
        <time>2026-08-23T13:24:48.000Z</time>
      </trkpt>
      <trkpt lat="43.37683" lon="-1.7393">
        <ele>37</ele>
        <time>2026-08-23T13:24:52.000Z</time>
      </trkpt>
      <trkpt lat="43.37667" lon="-1.73948">
        <ele>38</ele>
        <time>2026-08-23T13:24:56.000Z</time>
      </trkpt>
      <trkpt lat="43.37656" lon="-1.73967">
        <ele>39</ele>
        <time>2026-08-23T13:24:59.000Z</time>
      </trkpt>
      <trkpt lat="43.37649" lon="-1.73987">
        <ele>40</ele>
        <time>2026-08-23T13:25:02.000Z</time>
      </trkpt>
      <trkpt lat="43.37643" lon="-1.74011">
        <ele>41</ele>
        <time>2026-08-23T13:25:05.000Z</time>
      </trkpt>
      <trkpt lat="43.37641" lon="-1.74038">
        <ele>42</ele>
        <time>2026-08-23T13:25:09.000Z</time>
      </trkpt>
      <trkpt lat="43.37641" lon="-1.74058">
        <ele>43</ele>
        <time>2026-08-23T13:25:11.000Z</time>
      </trkpt>
      <trkpt lat="43.37646" lon="-1.74082">
        <ele>44</ele>
        <time>2026-08-23T13:25:15.000Z</time>
      </trkpt>
      <trkpt lat="43.37658" lon="-1.74119">
        <ele>44</ele>
        <time>2026-08-23T13:25:20.000Z</time>
      </trkpt>
      <trkpt lat="43.37682" lon="-1.74184">
        <ele>44</ele>
        <time>2026-08-23T13:25:29.000Z</time>
      </trkpt>
      <trkpt lat="43.37689" lon="-1.74205">
        <ele>44</ele>
        <time>2026-08-23T13:25:32.000Z</time>
      </trkpt>
      <trkpt lat="43.377" lon="-1.74228">
        <ele>44</ele>
        <time>2026-08-23T13:25:36.000Z</time>
      </trkpt>
      <trkpt lat="43.37702" lon="-1.74232">
        <ele>44</ele>
        <time>2026-08-23T13:25:37.000Z</time>
      </trkpt>
      <trkpt lat="43.37703" lon="-1.74236">
        <ele>44</ele>
        <time>2026-08-23T13:25:37.000Z</time>
      </trkpt>
      <trkpt lat="43.37703" lon="-1.7424">
        <ele>44</ele>
        <time>2026-08-23T13:25:38.000Z</time>
      </trkpt>
      <trkpt lat="43.37713" lon="-1.74268">
        <ele>45</ele>
        <time>2026-08-23T13:25:42.000Z</time>
      </trkpt>
      <trkpt lat="43.37726" lon="-1.74308">
        <ele>46</ele>
        <time>2026-08-23T13:25:47.000Z</time>
      </trkpt>
      <trkpt lat="43.37732" lon="-1.7434">
        <ele>47</ele>
        <time>2026-08-23T13:25:52.000Z</time>
      </trkpt>
      <trkpt lat="43.37734" lon="-1.74359">
        <ele>48</ele>
        <time>2026-08-23T13:25:54.000Z</time>
      </trkpt>
      <trkpt lat="43.37736" lon="-1.74383">
        <ele>49</ele>
        <time>2026-08-23T13:25:57.000Z</time>
      </trkpt>
      <trkpt lat="43.37736" lon="-1.74432">
        <ele>51</ele>
        <time>2026-08-23T13:26:04.000Z</time>
      </trkpt>
      <trkpt lat="43.37735" lon="-1.74476">
        <ele>52</ele>
        <time>2026-08-23T13:26:09.000Z</time>
      </trkpt>
      <trkpt lat="43.37737" lon="-1.74526">
        <ele>54</ele>
        <time>2026-08-23T13:26:16.000Z</time>
      </trkpt>
      <trkpt lat="43.37736" lon="-1.74547">
        <ele>55</ele>
        <time>2026-08-23T13:26:18.000Z</time>
      </trkpt>
      <trkpt lat="43.37736" lon="-1.74554">
        <ele>55</ele>
        <time>2026-08-23T13:26:19.000Z</time>
      </trkpt>
      <trkpt lat="43.37734" lon="-1.74576">
        <ele>56</ele>
        <time>2026-08-23T13:26:22.000Z</time>
      </trkpt>
      <trkpt lat="43.37726" lon="-1.74625">
        <ele>58</ele>
        <time>2026-08-23T13:26:29.000Z</time>
      </trkpt>
      <trkpt lat="43.37716" lon="-1.74666">
        <ele>58</ele>
        <time>2026-08-23T13:26:34.000Z</time>
      </trkpt>
      <trkpt lat="43.37704" lon="-1.74697">
        <ele>58</ele>
        <time>2026-08-23T13:26:39.000Z</time>
      </trkpt>
      <trkpt lat="43.37683" lon="-1.74746">
        <ele>58</ele>
        <time>2026-08-23T13:26:46.000Z</time>
      </trkpt>
      <trkpt lat="43.37671" lon="-1.74768">
        <ele>58</ele>
        <time>2026-08-23T13:26:50.000Z</time>
      </trkpt>
      <trkpt lat="43.37646" lon="-1.74803">
        <ele>57</ele>
        <time>2026-08-23T13:26:56.000Z</time>
      </trkpt>
      <trkpt lat="43.37629" lon="-1.74832">
        <ele>57</ele>
        <time>2026-08-23T13:27:01.000Z</time>
      </trkpt>
      <trkpt lat="43.37621" lon="-1.74858">
        <ele>59</ele>
        <time>2026-08-23T13:27:05.000Z</time>
      </trkpt>
      <trkpt lat="43.37619" lon="-1.74871">
        <ele>60</ele>
        <time>2026-08-23T13:27:06.000Z</time>
      </trkpt>
      <trkpt lat="43.37618" lon="-1.74882">
        <ele>61</ele>
        <time>2026-08-23T13:27:08.000Z</time>
      </trkpt>
      <trkpt lat="43.37615" lon="-1.74928">
        <ele>64</ele>
        <time>2026-08-23T13:27:14.000Z</time>
      </trkpt>
      <trkpt lat="43.37609" lon="-1.74993">
        <ele>67</ele>
        <time>2026-08-23T13:27:22.000Z</time>
      </trkpt>
      <trkpt lat="43.37594" lon="-1.75082">
        <ele>66</ele>
        <time>2026-08-23T13:27:34.000Z</time>
      </trkpt>
      <trkpt lat="43.37592" lon="-1.75088">
        <ele>66</ele>
        <time>2026-08-23T13:27:35.000Z</time>
      </trkpt>
      <trkpt lat="43.3759" lon="-1.75099">
        <ele>66</ele>
        <time>2026-08-23T13:27:36.000Z</time>
      </trkpt>
      <trkpt lat="43.37584" lon="-1.75117">
        <ele>67</ele>
        <time>2026-08-23T13:27:39.000Z</time>
      </trkpt>
      <trkpt lat="43.37571" lon="-1.75139">
        <ele>66</ele>
        <time>2026-08-23T13:27:43.000Z</time>
      </trkpt>
      <trkpt lat="43.37552" lon="-1.75159">
        <ele>64</ele>
        <time>2026-08-23T13:27:47.000Z</time>
      </trkpt>
      <trkpt lat="43.37535" lon="-1.75169">
        <ele>64</ele>
        <time>2026-08-23T13:27:50.000Z</time>
      </trkpt>
      <trkpt lat="43.37522" lon="-1.75174">
        <ele>63</ele>
        <time>2026-08-23T13:27:52.000Z</time>
      </trkpt>
      <trkpt lat="43.37507" lon="-1.75185">
        <ele>62</ele>
        <time>2026-08-23T13:27:55.000Z</time>
      </trkpt>
      <trkpt lat="43.37505" lon="-1.7519">
        <ele>61</ele>
        <time>2026-08-23T13:27:56.000Z</time>
      </trkpt>
      <trkpt lat="43.375" lon="-1.75197">
        <ele>61</ele>
        <time>2026-08-23T13:27:58.000Z</time>
      </trkpt>
      <trkpt lat="43.37496" lon="-1.75199">
        <ele>61</ele>
        <time>2026-08-23T13:27:58.000Z</time>
      </trkpt>
      <trkpt lat="43.37496" lon="-1.75206">
        <ele>60</ele>
        <time>2026-08-23T13:27:59.000Z</time>
      </trkpt>
      <trkpt lat="43.37489" lon="-1.75207">
        <ele>60</ele>
        <time>2026-08-23T13:28:00.000Z</time>
      </trkpt>
      <trkpt lat="43.37485" lon="-1.75201">
        <ele>60</ele>
        <time>2026-08-23T13:28:01.000Z</time>
      </trkpt>
      <trkpt lat="43.37475" lon="-1.75195">
        <ele>59</ele>
        <time>2026-08-23T13:28:03.000Z</time>
      </trkpt>
      <trkpt lat="43.37466" lon="-1.75194">
        <ele>59</ele>
        <time>2026-08-23T13:28:05.000Z</time>
      </trkpt>
      <trkpt lat="43.37453" lon="-1.75199">
        <ele>58</ele>
        <time>2026-08-23T13:28:07.000Z</time>
      </trkpt>
      <trkpt lat="43.37424" lon="-1.75222">
        <ele>56</ele>
        <time>2026-08-23T13:28:13.000Z</time>
      </trkpt>
      <trkpt lat="43.37413" lon="-1.75234">
        <ele>56</ele>
        <time>2026-08-23T13:28:16.000Z</time>
      </trkpt>
      <trkpt lat="43.37394" lon="-1.75265">
        <ele>54</ele>
        <time>2026-08-23T13:28:21.000Z</time>
      </trkpt>
      <trkpt lat="43.37383" lon="-1.75293">
        <ele>53</ele>
        <time>2026-08-23T13:28:25.000Z</time>
      </trkpt>
      <trkpt lat="43.37376" lon="-1.75331">
        <ele>51</ele>
        <time>2026-08-23T13:28:30.000Z</time>
      </trkpt>
      <trkpt lat="43.37355" lon="-1.75469">
        <ele>46</ele>
        <time>2026-08-23T13:28:49.000Z</time>
      </trkpt>
      <trkpt lat="43.37354" lon="-1.75498">
        <ele>46</ele>
        <time>2026-08-23T13:28:52.000Z</time>
      </trkpt>
      <trkpt lat="43.37356" lon="-1.75513">
        <ele>45</ele>
        <time>2026-08-23T13:28:54.000Z</time>
      </trkpt>
      <trkpt lat="43.37354" lon="-1.75516">
        <ele>45</ele>
        <time>2026-08-23T13:28:55.000Z</time>
      </trkpt>
      <trkpt lat="43.37356" lon="-1.75533">
        <ele>44</ele>
        <time>2026-08-23T13:28:57.000Z</time>
      </trkpt>
      <trkpt lat="43.37362" lon="-1.75559">
        <ele>43</ele>
        <time>2026-08-23T13:29:01.000Z</time>
      </trkpt>
      <trkpt lat="43.37372" lon="-1.75581">
        <ele>42</ele>
        <time>2026-08-23T13:29:04.000Z</time>
      </trkpt>
      <trkpt lat="43.37385" lon="-1.75598">
        <ele>42</ele>
        <time>2026-08-23T13:29:07.000Z</time>
      </trkpt>
      <trkpt lat="43.37403" lon="-1.75613">
        <ele>41</ele>
        <time>2026-08-23T13:29:11.000Z</time>
      </trkpt>
      <trkpt lat="43.37426" lon="-1.75627">
        <ele>39</ele>
        <time>2026-08-23T13:29:15.000Z</time>
      </trkpt>
      <trkpt lat="43.37441" lon="-1.7564">
        <ele>38</ele>
        <time>2026-08-23T13:29:18.000Z</time>
      </trkpt>
      <trkpt lat="43.37454" lon="-1.75655">
        <ele>36</ele>
        <time>2026-08-23T13:29:21.000Z</time>
      </trkpt>
      <trkpt lat="43.37462" lon="-1.75671">
        <ele>35</ele>
        <time>2026-08-23T13:29:24.000Z</time>
      </trkpt>
      <trkpt lat="43.37468" lon="-1.75689">
        <ele>34</ele>
        <time>2026-08-23T13:29:27.000Z</time>
      </trkpt>
      <trkpt lat="43.37471" lon="-1.75709">
        <ele>33</ele>
        <time>2026-08-23T13:29:29.000Z</time>
      </trkpt>
      <trkpt lat="43.37471" lon="-1.75726">
        <ele>33</ele>
        <time>2026-08-23T13:29:31.000Z</time>
      </trkpt>
      <trkpt lat="43.37469" lon="-1.75741">
        <ele>32</ele>
        <time>2026-08-23T13:29:33.000Z</time>
      </trkpt>
      <trkpt lat="43.37461" lon="-1.7577">
        <ele>31</ele>
        <time>2026-08-23T13:29:37.000Z</time>
      </trkpt>
      <trkpt lat="43.37449" lon="-1.7579">
        <ele>31</ele>
        <time>2026-08-23T13:29:41.000Z</time>
      </trkpt>
      <trkpt lat="43.37388" lon="-1.75868">
        <ele>28</ele>
        <time>2026-08-23T13:29:56.000Z</time>
      </trkpt>
      <trkpt lat="43.37378" lon="-1.75884">
        <ele>27</ele>
        <time>2026-08-23T13:29:58.000Z</time>
      </trkpt>
      <trkpt lat="43.37369" lon="-1.75907">
        <ele>25</ele>
        <time>2026-08-23T13:30:02.000Z</time>
      </trkpt>
      <trkpt lat="43.37366" lon="-1.75922">
        <ele>24</ele>
        <time>2026-08-23T13:30:04.000Z</time>
      </trkpt>
      <trkpt lat="43.37365" lon="-1.75949">
        <ele>23</ele>
        <time>2026-08-23T13:30:07.000Z</time>
      </trkpt>
      <trkpt lat="43.37369" lon="-1.75971">
        <ele>22</ele>
        <time>2026-08-23T13:30:10.000Z</time>
      </trkpt>
      <trkpt lat="43.37374" lon="-1.75987">
        <ele>21</ele>
        <time>2026-08-23T13:30:12.000Z</time>
      </trkpt>
      <trkpt lat="43.37382" lon="-1.76005">
        <ele>20</ele>
        <time>2026-08-23T13:30:15.000Z</time>
      </trkpt>
      <trkpt lat="43.37391" lon="-1.76013">
        <ele>19</ele>
        <time>2026-08-23T13:30:17.000Z</time>
      </trkpt>
      <trkpt lat="43.37427" lon="-1.76035">
        <ele>17</ele>
        <time>2026-08-23T13:30:24.000Z</time>
      </trkpt>
      <trkpt lat="43.37452" lon="-1.76043">
        <ele>16</ele>
        <time>2026-08-23T13:30:29.000Z</time>
      </trkpt>
      <trkpt lat="43.37483" lon="-1.76067">
        <ele>13</ele>
        <time>2026-08-23T13:30:35.000Z</time>
      </trkpt>
      <trkpt lat="43.37513" lon="-1.76097">
        <ele>12</ele>
        <time>2026-08-23T13:30:41.000Z</time>
      </trkpt>
      <trkpt lat="43.3753" lon="-1.76125">
        <ele>11</ele>
        <time>2026-08-23T13:30:46.000Z</time>
      </trkpt>
      <trkpt lat="43.37551" lon="-1.76173">
        <ele>8</ele>
        <time>2026-08-23T13:30:53.000Z</time>
      </trkpt>
      <trkpt lat="43.37551" lon="-1.76184">
        <ele>8</ele>
        <time>2026-08-23T13:30:55.000Z</time>
      </trkpt>
      <trkpt lat="43.37547" lon="-1.76194">
        <ele>8</ele>
        <time>2026-08-23T13:30:56.000Z</time>
      </trkpt>
      <trkpt lat="43.37558" lon="-1.76243">
        <ele>6</ele>
        <time>2026-08-23T13:31:03.000Z</time>
      </trkpt>
      <trkpt lat="43.3756" lon="-1.7626">
        <ele>5</ele>
        <time>2026-08-23T13:31:05.000Z</time>
      </trkpt>
      <trkpt lat="43.3756" lon="-1.76282">
        <ele>5</ele>
        <time>2026-08-23T13:31:08.000Z</time>
      </trkpt>
      <trkpt lat="43.37554" lon="-1.76312">
        <ele>5</ele>
        <time>2026-08-23T13:31:12.000Z</time>
      </trkpt>
      <trkpt lat="43.37557" lon="-1.76321">
        <ele>4</ele>
        <time>2026-08-23T13:31:13.000Z</time>
      </trkpt>
      <trkpt lat="43.37505" lon="-1.76538">
        <ele>5</ele>
        <time>2026-08-23T13:31:43.000Z</time>
      </trkpt>
      <trkpt lat="43.37473" lon="-1.76681">
        <ele>3</ele>
        <time>2026-08-23T13:32:02.000Z</time>
      </trkpt>
      <trkpt lat="43.37368" lon="-1.77166">
        <ele>5</ele>
        <time>2026-08-23T13:33:08.000Z</time>
      </trkpt>
      <trkpt lat="43.3735" lon="-1.77257">
        <ele>4</ele>
        <time>2026-08-23T13:33:20.000Z</time>
      </trkpt>
      <trkpt lat="43.37337" lon="-1.77334">
        <ele>4</ele>
        <time>2026-08-23T13:33:30.000Z</time>
      </trkpt>
      <trkpt lat="43.37323" lon="-1.77401">
        <ele>7</ele>
        <time>2026-08-23T13:33:39.000Z</time>
      </trkpt>
      <trkpt lat="43.37328" lon="-1.77402">
        <ele>7</ele>
        <time>2026-08-23T13:33:40.000Z</time>
      </trkpt>
      <trkpt lat="43.37323" lon="-1.77417">
        <ele>8</ele>
        <time>2026-08-23T13:33:42.000Z</time>
      </trkpt>
      <trkpt lat="43.37318" lon="-1.7746">
        <ele>6</ele>
        <time>2026-08-23T13:33:48.000Z</time>
      </trkpt>
      <trkpt lat="43.3732" lon="-1.77468">
        <ele>6</ele>
        <time>2026-08-23T13:33:49.000Z</time>
      </trkpt>
      <trkpt lat="43.37302" lon="-1.77589">
        <ele>4</ele>
        <time>2026-08-23T13:34:05.000Z</time>
      </trkpt>
      <trkpt lat="43.3732" lon="-1.77468">
        <ele>6</ele>
        <time>2026-08-23T13:34:21.000Z</time>
      </trkpt>
      <trkpt lat="43.37318" lon="-1.7746">
        <ele>6</ele>
        <time>2026-08-23T13:34:22.000Z</time>
      </trkpt>
      <trkpt lat="43.37323" lon="-1.77417">
        <ele>8</ele>
        <time>2026-08-23T13:34:28.000Z</time>
      </trkpt>
      <trkpt lat="43.37328" lon="-1.77402">
        <ele>7</ele>
        <time>2026-08-23T13:34:30.000Z</time>
      </trkpt>
      <trkpt lat="43.37323" lon="-1.77401">
        <ele>7</ele>
        <time>2026-08-23T13:34:31.000Z</time>
      </trkpt>
      <trkpt lat="43.37318" lon="-1.77438">
        <ele>7</ele>
        <time>2026-08-23T13:34:35.000Z</time>
      </trkpt>
      <trkpt lat="43.37314" lon="-1.77478">
        <ele>6</ele>
        <time>2026-08-23T13:34:41.000Z</time>
      </trkpt>
      <trkpt lat="43.37295" lon="-1.77582">
        <ele>5</ele>
        <time>2026-08-23T13:34:55.000Z</time>
      </trkpt>
      <trkpt lat="43.37272" lon="-1.77761">
        <ele>5</ele>
        <time>2026-08-23T13:35:18.000Z</time>
      </trkpt>
      <trkpt lat="43.37261" lon="-1.77782">
        <ele>5</ele>
        <time>2026-08-23T13:35:21.000Z</time>
      </trkpt>
      <trkpt lat="43.3726" lon="-1.77793">
        <ele>5</ele>
        <time>2026-08-23T13:35:23.000Z</time>
      </trkpt>
      <trkpt lat="43.37265" lon="-1.77821">
        <ele>4</ele>
        <time>2026-08-23T13:35:27.000Z</time>
      </trkpt>
      <trkpt lat="43.37265" lon="-1.77832">
        <ele>3</ele>
        <time>2026-08-23T13:35:28.000Z</time>
      </trkpt>
      <trkpt lat="43.37256" lon="-1.77921">
        <ele>2</ele>
        <time>2026-08-23T13:35:40.000Z</time>
      </trkpt>
      <trkpt lat="43.37247" lon="-1.77983">
        <ele>2</ele>
        <time>2026-08-23T13:35:48.000Z</time>
      </trkpt>
      <trkpt lat="43.37245" lon="-1.77983">
        <ele>2</ele>
        <time>2026-08-23T13:35:48.000Z</time>
      </trkpt>
      <trkpt lat="43.37242" lon="-1.77999">
        <ele>2</ele>
        <time>2026-08-23T13:35:50.000Z</time>
      </trkpt>
      <trkpt lat="43.37234" lon="-1.78053">
        <ele>3</ele>
        <time>2026-08-23T13:35:57.000Z</time>
      </trkpt>
      <trkpt lat="43.37231" lon="-1.78074">
        <ele>4</ele>
        <time>2026-08-23T13:36:00.000Z</time>
      </trkpt>
      <trkpt lat="43.37225" lon="-1.78093">
        <ele>4</ele>
        <time>2026-08-23T13:36:03.000Z</time>
      </trkpt>
      <trkpt lat="43.37223" lon="-1.78127">
        <ele>3</ele>
        <time>2026-08-23T13:36:07.000Z</time>
      </trkpt>
      <trkpt lat="43.37214" lon="-1.78191">
        <ele>3</ele>
        <time>2026-08-23T13:36:16.000Z</time>
      </trkpt>
      <trkpt lat="43.37209" lon="-1.78219">
        <ele>2</ele>
        <time>2026-08-23T13:36:19.000Z</time>
      </trkpt>
      <trkpt lat="43.37193" lon="-1.78311">
        <ele>3</ele>
        <time>2026-08-23T13:36:32.000Z</time>
      </trkpt>
      <trkpt lat="43.37162" lon="-1.78467">
        <ele>5</ele>
        <time>2026-08-23T13:36:53.000Z</time>
      </trkpt>
      <trkpt lat="43.37136" lon="-1.78457">
        <ele>5</ele>
        <time>2026-08-23T13:36:57.000Z</time>
      </trkpt>
      <trkpt lat="43.37129" lon="-1.78455">
        <ele>5</ele>
        <time>2026-08-23T13:36:59.000Z</time>
      </trkpt>
      <trkpt lat="43.37109" lon="-1.78447">
        <ele>5</ele>
        <time>2026-08-23T13:37:02.000Z</time>
      </trkpt>
      <trkpt lat="43.37102" lon="-1.78445">
        <ele>5</ele>
        <time>2026-08-23T13:37:04.000Z</time>
      </trkpt>
      <trkpt lat="43.37098" lon="-1.78461">
        <ele>5</ele>
        <time>2026-08-23T13:37:06.000Z</time>
      </trkpt>
      <trkpt lat="43.37099" lon="-1.78462">
        <ele>5</ele>
        <time>2026-08-23T13:37:06.000Z</time>
      </trkpt>
      <trkpt lat="43.37096" lon="-1.78477">
        <ele>5</ele>
        <time>2026-08-23T13:37:08.000Z</time>
      </trkpt>
      <trkpt lat="43.37075" lon="-1.78469">
        <ele>5</ele>
        <time>2026-08-23T13:37:12.000Z</time>
      </trkpt>
      <trkpt lat="43.37075" lon="-1.78471">
        <ele>5</ele>
        <time>2026-08-23T13:37:12.000Z</time>
      </trkpt>
      <trkpt lat="43.37063" lon="-1.78467">
        <ele>4</ele>
        <time>2026-08-23T13:37:14.000Z</time>
      </trkpt>
      <trkpt lat="43.37066" lon="-1.78448">
        <ele>3</ele>
        <time>2026-08-23T13:37:17.000Z</time>
      </trkpt>
      <trkpt lat="43.37063" lon="-1.78467">
        <ele>4</ele>
        <time>2026-08-23T13:37:19.000Z</time>
      </trkpt>
      <trkpt lat="43.37075" lon="-1.78471">
        <ele>5</ele>
        <time>2026-08-23T13:37:22.000Z</time>
      </trkpt>
      <trkpt lat="43.37075" lon="-1.78469">
        <ele>5</ele>
        <time>2026-08-23T13:37:22.000Z</time>
      </trkpt>
      <trkpt lat="43.37096" lon="-1.78477">
        <ele>5</ele>
        <time>2026-08-23T13:37:26.000Z</time>
      </trkpt>
      <trkpt lat="43.37099" lon="-1.78462">
        <ele>5</ele>
        <time>2026-08-23T13:37:28.000Z</time>
      </trkpt>
      <trkpt lat="43.37098" lon="-1.78461">
        <ele>5</ele>
        <time>2026-08-23T13:37:28.000Z</time>
      </trkpt>
      <trkpt lat="43.37102" lon="-1.78445">
        <ele>5</ele>
        <time>2026-08-23T13:37:30.000Z</time>
      </trkpt>
      <trkpt lat="43.37062" lon="-1.78431">
        <ele>3</ele>
        <time>2026-08-23T13:37:38.000Z</time>
      </trkpt>
      <trkpt lat="43.37073" lon="-1.78372">
        <ele>3</ele>
        <time>2026-08-23T13:37:45.000Z</time>
      </trkpt>
      <trkpt lat="43.37073" lon="-1.7836">
        <ele>3</ele>
        <time>2026-08-23T13:37:47.000Z</time>
      </trkpt>
      <trkpt lat="43.37101" lon="-1.78209">
        <ele>5</ele>
        <time>2026-08-23T13:38:07.000Z</time>
      </trkpt>
      <trkpt lat="43.37105" lon="-1.78182">
        <ele>5</ele>
        <time>2026-08-23T13:38:11.000Z</time>
      </trkpt>
      <trkpt lat="43.37097" lon="-1.78176">
        <ele>5</ele>
        <time>2026-08-23T13:38:12.000Z</time>
      </trkpt>
      <trkpt lat="43.37088" lon="-1.78146">
        <ele>5</ele>
        <time>2026-08-23T13:38:17.000Z</time>
      </trkpt>
      <trkpt lat="43.37072" lon="-1.78111">
        <ele>5</ele>
        <time>2026-08-23T13:38:22.000Z</time>
      </trkpt>
      <trkpt lat="43.37055" lon="-1.78081">
        <ele>5</ele>
        <time>2026-08-23T13:38:27.000Z</time>
      </trkpt>
      <trkpt lat="43.37048" lon="-1.78086">
        <ele>5</ele>
        <time>2026-08-23T13:38:28.000Z</time>
      </trkpt>
      <trkpt lat="43.37033" lon="-1.78091">
        <ele>4</ele>
        <time>2026-08-23T13:38:31.000Z</time>
      </trkpt>
      <trkpt lat="43.37021" lon="-1.78085">
        <ele>4</ele>
        <time>2026-08-23T13:38:33.000Z</time>
      </trkpt>
      <trkpt lat="43.37015" lon="-1.78078">
        <ele>4</ele>
        <time>2026-08-23T13:38:35.000Z</time>
      </trkpt>
      <trkpt lat="43.37008" lon="-1.78063">
        <ele>3</ele>
        <time>2026-08-23T13:38:37.000Z</time>
      </trkpt>
      <trkpt lat="43.37005" lon="-1.78038">
        <ele>3</ele>
        <time>2026-08-23T13:38:40.000Z</time>
      </trkpt>
      <trkpt lat="43.37006" lon="-1.78023">
        <ele>3</ele>
        <time>2026-08-23T13:38:42.000Z</time>
      </trkpt>
      <trkpt lat="43.36996" lon="-1.78019">
        <ele>3</ele>
        <time>2026-08-23T13:38:44.000Z</time>
      </trkpt>
      <trkpt lat="43.36998" lon="-1.7801">
        <ele>3</ele>
        <time>2026-08-23T13:38:45.000Z</time>
      </trkpt>
      <trkpt lat="43.37" lon="-1.78008">
        <ele>3</ele>
        <time>2026-08-23T13:38:46.000Z</time>
      </trkpt>
      <trkpt lat="43.37006" lon="-1.77994">
        <ele>3</ele>
        <time>2026-08-23T13:38:48.000Z</time>
      </trkpt>
      <trkpt lat="43.37007" lon="-1.77977">
        <ele>4</ele>
        <time>2026-08-23T13:38:50.000Z</time>
      </trkpt>
      <trkpt lat="43.37006" lon="-1.77976">
        <ele>4</ele>
        <time>2026-08-23T13:38:50.000Z</time>
      </trkpt>
      <trkpt lat="43.37005" lon="-1.77973">
        <ele>4</ele>
        <time>2026-08-23T13:38:51.000Z</time>
      </trkpt>
      <trkpt lat="43.36998" lon="-1.77954">
        <ele>4</ele>
        <time>2026-08-23T13:38:53.000Z</time>
      </trkpt>
      <trkpt lat="43.36994" lon="-1.77938">
        <ele>4</ele>
        <time>2026-08-23T13:38:56.000Z</time>
      </trkpt>
      <trkpt lat="43.36994" lon="-1.77913">
        <ele>5</ele>
        <time>2026-08-23T13:38:59.000Z</time>
      </trkpt>
      <trkpt lat="43.37017" lon="-1.77823">
        <ele>4</ele>
        <time>2026-08-23T13:39:11.000Z</time>
      </trkpt>
      <trkpt lat="43.37029" lon="-1.77756">
        <ele>4</ele>
        <time>2026-08-23T13:39:20.000Z</time>
      </trkpt>
      <trkpt lat="43.37027" lon="-1.77748">
        <ele>4</ele>
        <time>2026-08-23T13:39:21.000Z</time>
      </trkpt>
      <trkpt lat="43.37022" lon="-1.77745">
        <ele>4</ele>
        <time>2026-08-23T13:39:22.000Z</time>
      </trkpt>
      <trkpt lat="43.37017" lon="-1.77732">
        <ele>4</ele>
        <time>2026-08-23T13:39:24.000Z</time>
      </trkpt>
      <trkpt lat="43.37028" lon="-1.77721">
        <ele>4</ele>
        <time>2026-08-23T13:39:26.000Z</time>
      </trkpt>
      <trkpt lat="43.3703" lon="-1.77717">
        <ele>3</ele>
        <time>2026-08-23T13:39:27.000Z</time>
      </trkpt>
      <trkpt lat="43.37037" lon="-1.7771">
        <ele>3</ele>
        <time>2026-08-23T13:39:29.000Z</time>
      </trkpt>
      <trkpt lat="43.37038" lon="-1.77704">
        <ele>3</ele>
        <time>2026-08-23T13:39:29.000Z</time>
      </trkpt>
      <trkpt lat="43.37053" lon="-1.7761">
        <ele>3</ele>
        <time>2026-08-23T13:39:42.000Z</time>
      </trkpt>
      <trkpt lat="43.37055" lon="-1.77586">
        <ele>4</ele>
        <time>2026-08-23T13:39:45.000Z</time>
      </trkpt>
      <trkpt lat="43.37056" lon="-1.77534">
        <ele>4</ele>
        <time>2026-08-23T13:39:52.000Z</time>
      </trkpt>
      <trkpt lat="43.37053" lon="-1.77507">
        <ele>4</ele>
        <time>2026-08-23T13:39:55.000Z</time>
      </trkpt>
      <trkpt lat="43.37044" lon="-1.77464">
        <ele>5</ele>
        <time>2026-08-23T13:40:01.000Z</time>
      </trkpt>
      <trkpt lat="43.37026" lon="-1.77412">
        <ele>5</ele>
        <time>2026-08-23T13:40:08.000Z</time>
      </trkpt>
      <trkpt lat="43.37011" lon="-1.77382">
        <ele>5</ele>
        <time>2026-08-23T13:40:13.000Z</time>
      </trkpt>
      <trkpt lat="43.37003" lon="-1.77368">
        <ele>5</ele>
        <time>2026-08-23T13:40:15.000Z</time>
      </trkpt>
      <trkpt lat="43.36922" lon="-1.77266">
        <ele>2</ele>
        <time>2026-08-23T13:40:35.000Z</time>
      </trkpt>
      <trkpt lat="43.36891" lon="-1.77234">
        <ele>2</ele>
        <time>2026-08-23T13:40:42.000Z</time>
      </trkpt>
      <trkpt lat="43.36843" lon="-1.77199">
        <ele>3</ele>
        <time>2026-08-23T13:40:52.000Z</time>
      </trkpt>
      <trkpt lat="43.36565" lon="-1.77011">
        <ele>5</ele>
        <time>2026-08-23T13:41:47.000Z</time>
      </trkpt>
      <trkpt lat="43.36536" lon="-1.76996">
        <ele>4</ele>
        <time>2026-08-23T13:41:52.000Z</time>
      </trkpt>
      <trkpt lat="43.36539" lon="-1.76983">
        <ele>6</ele>
        <time>2026-08-23T13:41:54.000Z</time>
      </trkpt>
      <trkpt lat="43.36516" lon="-1.76977">
        <ele>5</ele>
        <time>2026-08-23T13:41:58.000Z</time>
      </trkpt>
      <trkpt lat="43.36511" lon="-1.76979">
        <ele>4</ele>
        <time>2026-08-23T13:41:59.000Z</time>
      </trkpt>
      <trkpt lat="43.36504" lon="-1.76977">
        <ele>4</ele>
        <time>2026-08-23T13:42:00.000Z</time>
      </trkpt>
      <trkpt lat="43.36444" lon="-1.77009">
        <ele>11</ele>
        <time>2026-08-23T13:42:12.000Z</time>
      </trkpt>
      <trkpt lat="43.36416" lon="-1.7705">
        <ele>10</ele>
        <time>2026-08-23T13:42:19.000Z</time>
      </trkpt>
      <trkpt lat="43.36395" lon="-1.77087">
        <ele>11</ele>
        <time>2026-08-23T13:42:25.000Z</time>
      </trkpt>
      <trkpt lat="43.36386" lon="-1.77099">
        <ele>12</ele>
        <time>2026-08-23T13:42:27.000Z</time>
      </trkpt>
      <trkpt lat="43.36336" lon="-1.77149">
        <ele>17</ele>
        <time>2026-08-23T13:42:38.000Z</time>
      </trkpt>
      <trkpt lat="43.36329" lon="-1.77153">
        <ele>17</ele>
        <time>2026-08-23T13:42:40.000Z</time>
      </trkpt>
      <trkpt lat="43.36309" lon="-1.77156">
        <ele>18</ele>
        <time>2026-08-23T13:42:43.000Z</time>
      </trkpt>
      <trkpt lat="43.3627" lon="-1.77157">
        <ele>19</ele>
        <time>2026-08-23T13:42:50.000Z</time>
      </trkpt>
      <trkpt lat="43.36257" lon="-1.77161">
        <ele>19</ele>
        <time>2026-08-23T13:42:53.000Z</time>
      </trkpt>
      <trkpt lat="43.36194" lon="-1.77202">
        <ele>15</ele>
        <time>2026-08-23T13:43:05.000Z</time>
      </trkpt>
      <trkpt lat="43.36189" lon="-1.77206">
        <ele>14</ele>
        <time>2026-08-23T13:43:06.000Z</time>
      </trkpt>
      <trkpt lat="43.36184" lon="-1.77211">
        <ele>14</ele>
        <time>2026-08-23T13:43:07.000Z</time>
      </trkpt>
      <trkpt lat="43.36183" lon="-1.77215">
        <ele>13</ele>
        <time>2026-08-23T13:43:08.000Z</time>
      </trkpt>
      <trkpt lat="43.36181" lon="-1.77219">
        <ele>13</ele>
        <time>2026-08-23T13:43:08.000Z</time>
      </trkpt>
      <trkpt lat="43.36179" lon="-1.77222">
        <ele>12</ele>
        <time>2026-08-23T13:43:09.000Z</time>
      </trkpt>
      <trkpt lat="43.36176" lon="-1.77223">
        <ele>12</ele>
        <time>2026-08-23T13:43:09.000Z</time>
      </trkpt>
      <trkpt lat="43.36167" lon="-1.77236">
        <ele>11</ele>
        <time>2026-08-23T13:43:12.000Z</time>
      </trkpt>
      <trkpt lat="43.3616" lon="-1.77254">
        <ele>9</ele>
        <time>2026-08-23T13:43:14.000Z</time>
      </trkpt>
      <trkpt lat="43.36154" lon="-1.77275">
        <ele>8</ele>
        <time>2026-08-23T13:43:17.000Z</time>
      </trkpt>
      <trkpt lat="43.36146" lon="-1.77307">
        <ele>8</ele>
        <time>2026-08-23T13:43:22.000Z</time>
      </trkpt>
      <trkpt lat="43.3614" lon="-1.77338">
        <ele>8</ele>
        <time>2026-08-23T13:43:26.000Z</time>
      </trkpt>
      <trkpt lat="43.36129" lon="-1.77386">
        <ele>10</ele>
        <time>2026-08-23T13:43:32.000Z</time>
      </trkpt>
      <trkpt lat="43.36126" lon="-1.77397">
        <ele>10</ele>
        <time>2026-08-23T13:43:34.000Z</time>
      </trkpt>
      <trkpt lat="43.3612" lon="-1.77422">
        <ele>12</ele>
        <time>2026-08-23T13:43:37.000Z</time>
      </trkpt>
      <trkpt lat="43.36113" lon="-1.7744">
        <ele>12</ele>
        <time>2026-08-23T13:43:40.000Z</time>
      </trkpt>
      <trkpt lat="43.36107" lon="-1.77454">
        <ele>13</ele>
        <time>2026-08-23T13:43:42.000Z</time>
      </trkpt>
      <trkpt lat="43.36097" lon="-1.77473">
        <ele>15</ele>
        <time>2026-08-23T13:43:45.000Z</time>
      </trkpt>
      <trkpt lat="43.36085" lon="-1.77493">
        <ele>17</ele>
        <time>2026-08-23T13:43:48.000Z</time>
      </trkpt>
      <trkpt lat="43.36054" lon="-1.77523">
        <ele>18</ele>
        <time>2026-08-23T13:43:55.000Z</time>
      </trkpt>
      <trkpt lat="43.36046" lon="-1.77529">
        <ele>19</ele>
        <time>2026-08-23T13:43:57.000Z</time>
      </trkpt>
      <trkpt lat="43.36038" lon="-1.77533">
        <ele>20</ele>
        <time>2026-08-23T13:43:58.000Z</time>
      </trkpt>
      <trkpt lat="43.3603" lon="-1.77533">
        <ele>21</ele>
        <time>2026-08-23T13:44:00.000Z</time>
      </trkpt>
      <trkpt lat="43.36022" lon="-1.77537">
        <ele>21</ele>
        <time>2026-08-23T13:44:01.000Z</time>
      </trkpt>
      <trkpt lat="43.36016" lon="-1.77541">
        <ele>22</ele>
        <time>2026-08-23T13:44:02.000Z</time>
      </trkpt>
      <trkpt lat="43.36015" lon="-1.77544">
        <ele>22</ele>
        <time>2026-08-23T13:44:03.000Z</time>
      </trkpt>
      <trkpt lat="43.36013" lon="-1.77547">
        <ele>22</ele>
        <time>2026-08-23T13:44:03.000Z</time>
      </trkpt>
      <trkpt lat="43.36011" lon="-1.77548">
        <ele>22</ele>
        <time>2026-08-23T13:44:04.000Z</time>
      </trkpt>
      <trkpt lat="43.36008" lon="-1.7755">
        <ele>23</ele>
        <time>2026-08-23T13:44:04.000Z</time>
      </trkpt>
      <trkpt lat="43.36005" lon="-1.77549">
        <ele>23</ele>
        <time>2026-08-23T13:44:05.000Z</time>
      </trkpt>
      <trkpt lat="43.36002" lon="-1.77547">
        <ele>24</ele>
        <time>2026-08-23T13:44:05.000Z</time>
      </trkpt>
      <trkpt lat="43.35989" lon="-1.77552">
        <ele>25</ele>
        <time>2026-08-23T13:44:08.000Z</time>
      </trkpt>
      <trkpt lat="43.35985" lon="-1.77553">
        <ele>25</ele>
        <time>2026-08-23T13:44:09.000Z</time>
      </trkpt>
      <trkpt lat="43.35947" lon="-1.77569">
        <ele>27</ele>
        <time>2026-08-23T13:44:16.000Z</time>
      </trkpt>
      <trkpt lat="43.35938" lon="-1.77573">
        <ele>27</ele>
        <time>2026-08-23T13:44:17.000Z</time>
      </trkpt>
      <trkpt lat="43.35917" lon="-1.77583">
        <ele>28</ele>
        <time>2026-08-23T13:44:21.000Z</time>
      </trkpt>
      <trkpt lat="43.35882" lon="-1.77599">
        <ele>26</ele>
        <time>2026-08-23T13:44:28.000Z</time>
      </trkpt>
      <trkpt lat="43.3588" lon="-1.776">
        <ele>26</ele>
        <time>2026-08-23T13:44:28.000Z</time>
      </trkpt>
      <trkpt lat="43.35872" lon="-1.77603">
        <ele>26</ele>
        <time>2026-08-23T13:44:30.000Z</time>
      </trkpt>
      <trkpt lat="43.35836" lon="-1.77614">
        <ele>25</ele>
        <time>2026-08-23T13:44:36.000Z</time>
      </trkpt>
      <trkpt lat="43.3583" lon="-1.77618">
        <ele>24</ele>
        <time>2026-08-23T13:44:37.000Z</time>
      </trkpt>
      <trkpt lat="43.35796" lon="-1.77546">
        <ele>26</ele>
        <time>2026-08-23T13:44:49.000Z</time>
      </trkpt>
      <trkpt lat="43.35784" lon="-1.77487">
        <ele>27</ele>
        <time>2026-08-23T13:44:56.000Z</time>
      </trkpt>
      <trkpt lat="43.35778" lon="-1.77447">
        <ele>27</ele>
        <time>2026-08-23T13:45:02.000Z</time>
      </trkpt>
      <trkpt lat="43.35756" lon="-1.77448">
        <ele>26</ele>
        <time>2026-08-23T13:45:06.000Z</time>
      </trkpt>
      <trkpt lat="43.3575" lon="-1.77448">
        <ele>26</ele>
        <time>2026-08-23T13:45:07.000Z</time>
      </trkpt>
      <trkpt lat="43.3571" lon="-1.77439">
        <ele>27</ele>
        <time>2026-08-23T13:45:14.000Z</time>
      </trkpt>
      <trkpt lat="43.35707" lon="-1.77438">
        <ele>27</ele>
        <time>2026-08-23T13:45:14.000Z</time>
      </trkpt>
      <trkpt lat="43.35703" lon="-1.77439">
        <ele>27</ele>
        <time>2026-08-23T13:45:15.000Z</time>
      </trkpt>
      <trkpt lat="43.35639" lon="-1.77435">
        <ele>29</ele>
        <time>2026-08-23T13:45:27.000Z</time>
      </trkpt>
      <trkpt lat="43.35602" lon="-1.7743">
        <ele>30</ele>
        <time>2026-08-23T13:45:33.000Z</time>
      </trkpt>
      <trkpt lat="43.3556" lon="-1.77427">
        <ele>30</ele>
        <time>2026-08-23T13:45:41.000Z</time>
      </trkpt>
      <trkpt lat="43.35533" lon="-1.77432">
        <ele>30</ele>
        <time>2026-08-23T13:45:46.000Z</time>
      </trkpt>
      <trkpt lat="43.35531" lon="-1.77439">
        <ele>30</ele>
        <time>2026-08-23T13:45:47.000Z</time>
      </trkpt>
      <trkpt lat="43.35519" lon="-1.77447">
        <ele>29</ele>
        <time>2026-08-23T13:45:49.000Z</time>
      </trkpt>
      <trkpt lat="43.35515" lon="-1.77447">
        <ele>29</ele>
        <time>2026-08-23T13:45:50.000Z</time>
      </trkpt>
      <trkpt lat="43.35424" lon="-1.77507">
        <ele>33</ele>
        <time>2026-08-23T13:46:08.000Z</time>
      </trkpt>
      <trkpt lat="43.35392" lon="-1.77544">
        <ele>33</ele>
        <time>2026-08-23T13:46:15.000Z</time>
      </trkpt>
      <trkpt lat="43.35391" lon="-1.77556">
        <ele>33</ele>
        <time>2026-08-23T13:46:17.000Z</time>
      </trkpt>
      <trkpt lat="43.35385" lon="-1.77567">
        <ele>33</ele>
        <time>2026-08-23T13:46:18.000Z</time>
      </trkpt>
      <trkpt lat="43.35375" lon="-1.77572">
        <ele>34</ele>
        <time>2026-08-23T13:46:20.000Z</time>
      </trkpt>
      <trkpt lat="43.35365" lon="-1.77568">
        <ele>34</ele>
        <time>2026-08-23T13:46:22.000Z</time>
      </trkpt>
      <trkpt lat="43.35361" lon="-1.77563">
        <ele>34</ele>
        <time>2026-08-23T13:46:23.000Z</time>
      </trkpt>
      <trkpt lat="43.35279" lon="-1.77635">
        <ele>37</ele>
        <time>2026-08-23T13:46:40.000Z</time>
      </trkpt>
      <trkpt lat="43.35261" lon="-1.77648">
        <ele>37</ele>
        <time>2026-08-23T13:46:44.000Z</time>
      </trkpt>
      <trkpt lat="43.35237" lon="-1.77669">
        <ele>37</ele>
        <time>2026-08-23T13:46:49.000Z</time>
      </trkpt>
      <trkpt lat="43.35222" lon="-1.77688">
        <ele>36</ele>
        <time>2026-08-23T13:46:53.000Z</time>
      </trkpt>
      <trkpt lat="43.35197" lon="-1.77737">
        <ele>36</ele>
        <time>2026-08-23T13:47:00.000Z</time>
      </trkpt>
      <trkpt lat="43.35177" lon="-1.77768">
        <ele>36</ele>
        <time>2026-08-23T13:47:06.000Z</time>
      </trkpt>
      <trkpt lat="43.35172" lon="-1.77783">
        <ele>36</ele>
        <time>2026-08-23T13:47:08.000Z</time>
      </trkpt>
      <trkpt lat="43.35171" lon="-1.77793">
        <ele>35</ele>
        <time>2026-08-23T13:47:09.000Z</time>
      </trkpt>
      <trkpt lat="43.35165" lon="-1.77798">
        <ele>35</ele>
        <time>2026-08-23T13:47:10.000Z</time>
      </trkpt>
      <trkpt lat="43.35161" lon="-1.77797">
        <ele>35</ele>
        <time>2026-08-23T13:47:11.000Z</time>
      </trkpt>
      <trkpt lat="43.35157" lon="-1.77791">
        <ele>35</ele>
        <time>2026-08-23T13:47:12.000Z</time>
      </trkpt>
      <trkpt lat="43.35147" lon="-1.77788">
        <ele>34</ele>
        <time>2026-08-23T13:47:14.000Z</time>
      </trkpt>
      <trkpt lat="43.3513" lon="-1.77777">
        <ele>32</ele>
        <time>2026-08-23T13:47:17.000Z</time>
      </trkpt>
      <trkpt lat="43.35121" lon="-1.77766">
        <ele>32</ele>
        <time>2026-08-23T13:47:20.000Z</time>
      </trkpt>
      <trkpt lat="43.35113" lon="-1.77752">
        <ele>31</ele>
        <time>2026-08-23T13:47:22.000Z</time>
      </trkpt>
      <trkpt lat="43.34988" lon="-1.77501">
        <ele>16</ele>
        <time>2026-08-23T13:48:01.000Z</time>
      </trkpt>
      <trkpt lat="43.3498" lon="-1.77496">
        <ele>15</ele>
        <time>2026-08-23T13:48:03.000Z</time>
      </trkpt>
      <trkpt lat="43.34964" lon="-1.77495">
        <ele>13</ele>
        <time>2026-08-23T13:48:06.000Z</time>
      </trkpt>
      <trkpt lat="43.34965" lon="-1.7756">
        <ele>15</ele>
        <time>2026-08-23T13:48:14.000Z</time>
      </trkpt>
      <trkpt lat="43.34959" lon="-1.77643">
        <ele>16</ele>
        <time>2026-08-23T13:48:25.000Z</time>
      </trkpt>
      <trkpt lat="43.34965" lon="-1.7756">
        <ele>15</ele>
        <time>2026-08-23T13:48:36.000Z</time>
      </trkpt>
      <trkpt lat="43.34965" lon="-1.7753">
        <ele>14</ele>
        <time>2026-08-23T13:48:40.000Z</time>
      </trkpt>
      <trkpt lat="43.34962" lon="-1.77421">
        <ele>11</ele>
        <time>2026-08-23T13:48:54.000Z</time>
      </trkpt>
      <trkpt lat="43.34963" lon="-1.77397">
        <ele>10</ele>
        <time>2026-08-23T13:48:57.000Z</time>
      </trkpt>
      <trkpt lat="43.34965" lon="-1.77379">
        <ele>10</ele>
        <time>2026-08-23T13:48:59.000Z</time>
      </trkpt>
      <trkpt lat="43.34983" lon="-1.77302">
        <ele>9</ele>
        <time>2026-08-23T13:49:10.000Z</time>
      </trkpt>
      <trkpt lat="43.34989" lon="-1.77266">
        <ele>8</ele>
        <time>2026-08-23T13:49:14.000Z</time>
      </trkpt>
      <trkpt lat="43.34986" lon="-1.77243">
        <ele>8</ele>
        <time>2026-08-23T13:49:17.000Z</time>
      </trkpt>
      <trkpt lat="43.34976" lon="-1.77216">
        <ele>8</ele>
        <time>2026-08-23T13:49:21.000Z</time>
      </trkpt>
      <trkpt lat="43.34934" lon="-1.77121">
        <ele>8</ele>
        <time>2026-08-23T13:49:36.000Z</time>
      </trkpt>
      <trkpt lat="43.34926" lon="-1.77097">
        <ele>8</ele>
        <time>2026-08-23T13:49:39.000Z</time>
      </trkpt>
      <trkpt lat="43.34917" lon="-1.77047">
        <ele>8</ele>
        <time>2026-08-23T13:49:46.000Z</time>
      </trkpt>
      <trkpt lat="43.34915" lon="-1.7704">
        <ele>8</ele>
        <time>2026-08-23T13:49:47.000Z</time>
      </trkpt>
      <trkpt lat="43.34905" lon="-1.77026">
        <ele>8</ele>
        <time>2026-08-23T13:49:49.000Z</time>
      </trkpt>
      <trkpt lat="43.34905" lon="-1.77015">
        <ele>8</ele>
        <time>2026-08-23T13:49:51.000Z</time>
      </trkpt>
      <trkpt lat="43.34912" lon="-1.77007">
        <ele>9</ele>
        <time>2026-08-23T13:49:52.000Z</time>
      </trkpt>
      <trkpt lat="43.34915" lon="-1.77006">
        <ele>9</ele>
        <time>2026-08-23T13:49:53.000Z</time>
      </trkpt>
      <trkpt lat="43.34918" lon="-1.76994">
        <ele>9</ele>
        <time>2026-08-23T13:49:54.000Z</time>
      </trkpt>
      <trkpt lat="43.3492" lon="-1.76972">
        <ele>9</ele>
        <time>2026-08-23T13:49:57.000Z</time>
      </trkpt>
      <trkpt lat="43.34917" lon="-1.76925">
        <ele>9</ele>
        <time>2026-08-23T13:50:03.000Z</time>
      </trkpt>
      <trkpt lat="43.34912" lon="-1.76903">
        <ele>9</ele>
        <time>2026-08-23T13:50:06.000Z</time>
      </trkpt>
      <trkpt lat="43.34909" lon="-1.769">
        <ele>9</ele>
        <time>2026-08-23T13:50:07.000Z</time>
      </trkpt>
      <trkpt lat="43.34906" lon="-1.76891">
        <ele>10</ele>
        <time>2026-08-23T13:50:08.000Z</time>
      </trkpt>
      <trkpt lat="43.34906" lon="-1.76883">
        <ele>10</ele>
        <time>2026-08-23T13:50:09.000Z</time>
      </trkpt>
      <trkpt lat="43.34903" lon="-1.76866">
        <ele>10</ele>
        <time>2026-08-23T13:50:12.000Z</time>
      </trkpt>
      <trkpt lat="43.34875" lon="-1.7681">
        <ele>10</ele>
        <time>2026-08-23T13:50:20.000Z</time>
      </trkpt>
      <trkpt lat="43.34829" lon="-1.76728">
        <ele>7</ele>
        <time>2026-08-23T13:50:34.000Z</time>
      </trkpt>
      <trkpt lat="43.3481" lon="-1.767">
        <ele>7</ele>
        <time>2026-08-23T13:50:39.000Z</time>
      </trkpt>
      <trkpt lat="43.34792" lon="-1.76682">
        <ele>7</ele>
        <time>2026-08-23T13:50:43.000Z</time>
      </trkpt>
      <trkpt lat="43.34736" lon="-1.76647">
        <ele>8</ele>
        <time>2026-08-23T13:50:54.000Z</time>
      </trkpt>
      <trkpt lat="43.34723" lon="-1.76637">
        <ele>9</ele>
        <time>2026-08-23T13:50:56.000Z</time>
      </trkpt>
      <trkpt lat="43.34668" lon="-1.76584">
        <ele>11</ele>
        <time>2026-08-23T13:51:08.000Z</time>
      </trkpt>
      <trkpt lat="43.34644" lon="-1.76552">
        <ele>11</ele>
        <time>2026-08-23T13:51:14.000Z</time>
      </trkpt>
      <trkpt lat="43.34636" lon="-1.76535">
        <ele>12</ele>
        <time>2026-08-23T13:51:17.000Z</time>
      </trkpt>
      <trkpt lat="43.34609" lon="-1.76433">
        <ele>13</ele>
        <time>2026-08-23T13:51:31.000Z</time>
      </trkpt>
      <trkpt lat="43.34586" lon="-1.76341">
        <ele>9</ele>
        <time>2026-08-23T13:51:44.000Z</time>
      </trkpt>
      <trkpt lat="43.34573" lon="-1.76278">
        <ele>7</ele>
        <time>2026-08-23T13:51:52.000Z</time>
      </trkpt>
      <trkpt lat="43.34552" lon="-1.76262">
        <ele>6</ele>
        <time>2026-08-23T13:51:56.000Z</time>
      </trkpt>
      <trkpt lat="43.34549" lon="-1.76252">
        <ele>6</ele>
        <time>2026-08-23T13:51:58.000Z</time>
      </trkpt>
      <trkpt lat="43.34544" lon="-1.7625">
        <ele>6</ele>
        <time>2026-08-23T13:51:59.000Z</time>
      </trkpt>
      <trkpt lat="43.34474" lon="-1.76171">
        <ele>5</ele>
        <time>2026-08-23T13:52:15.000Z</time>
      </trkpt>
      <trkpt lat="43.34455" lon="-1.76153">
        <ele>5</ele>
        <time>2026-08-23T13:52:19.000Z</time>
      </trkpt>
      <trkpt lat="43.34448" lon="-1.76153">
        <ele>4</ele>
        <time>2026-08-23T13:52:20.000Z</time>
      </trkpt>
      <trkpt lat="43.34443" lon="-1.7615">
        <ele>4</ele>
        <time>2026-08-23T13:52:21.000Z</time>
      </trkpt>
      <trkpt lat="43.3444" lon="-1.76142">
        <ele>4</ele>
        <time>2026-08-23T13:52:22.000Z</time>
      </trkpt>
      <trkpt lat="43.3444" lon="-1.76133">
        <ele>5</ele>
        <time>2026-08-23T13:52:23.000Z</time>
      </trkpt>
      <trkpt lat="43.34443" lon="-1.76126">
        <ele>6</ele>
        <time>2026-08-23T13:52:24.000Z</time>
      </trkpt>
      <trkpt lat="43.34447" lon="-1.76123">
        <ele>7</ele>
        <time>2026-08-23T13:52:25.000Z</time>
      </trkpt>
      <trkpt lat="43.34451" lon="-1.76101">
        <ele>10</ele>
        <time>2026-08-23T13:52:28.000Z</time>
      </trkpt>
      <trkpt lat="43.34446" lon="-1.76045">
        <ele>10</ele>
        <time>2026-08-23T13:52:35.000Z</time>
      </trkpt>
      <trkpt lat="43.34445" lon="-1.76007">
        <ele>10</ele>
        <time>2026-08-23T13:52:40.000Z</time>
      </trkpt>
      <trkpt lat="43.34449" lon="-1.75923">
        <ele>18</ele>
        <time>2026-08-23T13:52:51.000Z</time>
      </trkpt>
      <trkpt lat="43.34454" lon="-1.75867">
        <ele>19</ele>
        <time>2026-08-23T13:52:59.000Z</time>
      </trkpt>
      <trkpt lat="43.34454" lon="-1.75842">
        <ele>19</ele>
        <time>2026-08-23T13:53:02.000Z</time>
      </trkpt>
      <trkpt lat="43.34451" lon="-1.75812">
        <ele>19</ele>
        <time>2026-08-23T13:53:06.000Z</time>
      </trkpt>
      <trkpt lat="43.34445" lon="-1.75782">
        <ele>19</ele>
        <time>2026-08-23T13:53:10.000Z</time>
      </trkpt>
      <trkpt lat="43.3442" lon="-1.75713">
        <ele>14</ele>
        <time>2026-08-23T13:53:20.000Z</time>
      </trkpt>
      <trkpt lat="43.34403" lon="-1.75673">
        <ele>12</ele>
        <time>2026-08-23T13:53:26.000Z</time>
      </trkpt>
      <trkpt lat="43.34377" lon="-1.75627">
        <ele>14</ele>
        <time>2026-08-23T13:53:33.000Z</time>
      </trkpt>
      <trkpt lat="43.34191" lon="-1.7534">
        <ele>18</ele>
        <time>2026-08-23T13:54:23.000Z</time>
      </trkpt>
      <trkpt lat="43.3412" lon="-1.75258">
        <ele>13</ele>
        <time>2026-08-23T13:54:40.000Z</time>
      </trkpt>
      <trkpt lat="43.341" lon="-1.75241">
        <ele>11</ele>
        <time>2026-08-23T13:54:44.000Z</time>
      </trkpt>
      <trkpt lat="43.34064" lon="-1.75227">
        <ele>8</ele>
        <time>2026-08-23T13:54:50.000Z</time>
      </trkpt>
      <trkpt lat="43.34056" lon="-1.7523">
        <ele>7</ele>
        <time>2026-08-23T13:54:52.000Z</time>
      </trkpt>
      <trkpt lat="43.34049" lon="-1.75225">
        <ele>7</ele>
        <time>2026-08-23T13:54:53.000Z</time>
      </trkpt>
      <trkpt lat="43.34046" lon="-1.75217">
        <ele>7</ele>
        <time>2026-08-23T13:54:54.000Z</time>
      </trkpt>
      <trkpt lat="43.34046" lon="-1.75209">
        <ele>8</ele>
        <time>2026-08-23T13:54:55.000Z</time>
      </trkpt>
      <trkpt lat="43.34047" lon="-1.75204">
        <ele>8</ele>
        <time>2026-08-23T13:54:56.000Z</time>
      </trkpt>
      <trkpt lat="43.34054" lon="-1.75197">
        <ele>9</ele>
        <time>2026-08-23T13:54:58.000Z</time>
      </trkpt>
      <trkpt lat="43.34058" lon="-1.75196">
        <ele>9</ele>
        <time>2026-08-23T13:54:58.000Z</time>
      </trkpt>
      <trkpt lat="43.34061" lon="-1.75192">
        <ele>10</ele>
        <time>2026-08-23T13:54:59.000Z</time>
      </trkpt>
      <trkpt lat="43.34068" lon="-1.7518">
        <ele>11</ele>
        <time>2026-08-23T13:55:01.000Z</time>
      </trkpt>
      <trkpt lat="43.34074" lon="-1.75159">
        <ele>12</ele>
        <time>2026-08-23T13:55:04.000Z</time>
      </trkpt>
      <trkpt lat="43.34081" lon="-1.75143">
        <ele>12</ele>
        <time>2026-08-23T13:55:06.000Z</time>
      </trkpt>
      <trkpt lat="43.34091" lon="-1.75134">
        <ele>14</ele>
        <time>2026-08-23T13:55:09.000Z</time>
      </trkpt>
      <trkpt lat="43.34099" lon="-1.75123">
        <ele>16</ele>
        <time>2026-08-23T13:55:11.000Z</time>
      </trkpt>
      <trkpt lat="43.34103" lon="-1.75114">
        <ele>18</ele>
        <time>2026-08-23T13:55:12.000Z</time>
      </trkpt>
      <trkpt lat="43.34106" lon="-1.75107">
        <ele>19</ele>
        <time>2026-08-23T13:55:13.000Z</time>
      </trkpt>
      <trkpt lat="43.34108" lon="-1.75098">
        <ele>19</ele>
        <time>2026-08-23T13:55:14.000Z</time>
      </trkpt>
      <trkpt lat="43.34113" lon="-1.75081">
        <ele>21</ele>
        <time>2026-08-23T13:55:17.000Z</time>
      </trkpt>
      <trkpt lat="43.34124" lon="-1.75059">
        <ele>22</ele>
        <time>2026-08-23T13:55:20.000Z</time>
      </trkpt>
      <trkpt lat="43.34143" lon="-1.75023">
        <ele>24</ele>
        <time>2026-08-23T13:55:26.000Z</time>
      </trkpt>
      <trkpt lat="43.34168" lon="-1.74972">
        <ele>23</ele>
        <time>2026-08-23T13:55:34.000Z</time>
      </trkpt>
      <trkpt lat="43.34187" lon="-1.74928">
        <ele>22</ele>
        <time>2026-08-23T13:55:40.000Z</time>
      </trkpt>
      <trkpt lat="43.34196" lon="-1.7491">
        <ele>21</ele>
        <time>2026-08-23T13:55:43.000Z</time>
      </trkpt>
      <trkpt lat="43.34225" lon="-1.74866">
        <ele>23</ele>
        <time>2026-08-23T13:55:51.000Z</time>
      </trkpt>
      <trkpt lat="43.34234" lon="-1.74838">
        <ele>22</ele>
        <time>2026-08-23T13:55:55.000Z</time>
      </trkpt>
      <trkpt lat="43.34233" lon="-1.7482">
        <ele>20</ele>
        <time>2026-08-23T13:55:57.000Z</time>
      </trkpt>
      <trkpt lat="43.34225" lon="-1.74789">
        <ele>17</ele>
        <time>2026-08-23T13:56:01.000Z</time>
      </trkpt>
      <trkpt lat="43.3422" lon="-1.74769">
        <ele>15</ele>
        <time>2026-08-23T13:56:04.000Z</time>
      </trkpt>
      <trkpt lat="43.34223" lon="-1.74733">
        <ele>14</ele>
        <time>2026-08-23T13:56:09.000Z</time>
      </trkpt>
      <trkpt lat="43.34248" lon="-1.74649">
        <ele>14</ele>
        <time>2026-08-23T13:56:21.000Z</time>
      </trkpt>
      <trkpt lat="43.34256" lon="-1.74588">
        <ele>13</ele>
        <time>2026-08-23T13:56:29.000Z</time>
      </trkpt>
      <trkpt lat="43.34253" lon="-1.7458">
        <ele>12</ele>
        <time>2026-08-23T13:56:30.000Z</time>
      </trkpt>
      <trkpt lat="43.34249" lon="-1.7457">
        <ele>13</ele>
        <time>2026-08-23T13:56:31.000Z</time>
      </trkpt>
      <trkpt lat="43.34242" lon="-1.74554">
        <ele>14</ele>
        <time>2026-08-23T13:56:34.000Z</time>
      </trkpt>
      <trkpt lat="43.3422" lon="-1.74523">
        <ele>16</ele>
        <time>2026-08-23T13:56:39.000Z</time>
      </trkpt>
      <trkpt lat="43.34194" lon="-1.74461">
        <ele>21</ele>
        <time>2026-08-23T13:56:49.000Z</time>
      </trkpt>
      <trkpt lat="43.34183" lon="-1.7442">
        <ele>24</ele>
        <time>2026-08-23T13:56:54.000Z</time>
      </trkpt>
      <trkpt lat="43.34179" lon="-1.74316">
        <ele>30</ele>
        <time>2026-08-23T13:57:08.000Z</time>
      </trkpt>
      <trkpt lat="43.34181" lon="-1.74292">
        <ele>30</ele>
        <time>2026-08-23T13:57:11.000Z</time>
      </trkpt>
      <trkpt lat="43.34194" lon="-1.7426">
        <ele>31</ele>
        <time>2026-08-23T13:57:16.000Z</time>
      </trkpt>
      <trkpt lat="43.34221" lon="-1.74203">
        <ele>32</ele>
        <time>2026-08-23T13:57:24.000Z</time>
      </trkpt>
      <trkpt lat="43.34227" lon="-1.74198">
        <ele>32</ele>
        <time>2026-08-23T13:57:26.000Z</time>
      </trkpt>
      <trkpt lat="43.34239" lon="-1.74194">
        <ele>32</ele>
        <time>2026-08-23T13:57:28.000Z</time>
      </trkpt>
      <trkpt lat="43.34249" lon="-1.74186">
        <ele>31</ele>
        <time>2026-08-23T13:57:30.000Z</time>
      </trkpt>
      <trkpt lat="43.34256" lon="-1.74174">
        <ele>31</ele>
        <time>2026-08-23T13:57:32.000Z</time>
      </trkpt>
      <trkpt lat="43.34261" lon="-1.74159">
        <ele>31</ele>
        <time>2026-08-23T13:57:34.000Z</time>
      </trkpt>
      <trkpt lat="43.34261" lon="-1.7411">
        <ele>30</ele>
        <time>2026-08-23T13:57:40.000Z</time>
      </trkpt>
      <trkpt lat="43.34262" lon="-1.74098">
        <ele>31</ele>
        <time>2026-08-23T13:57:42.000Z</time>
      </trkpt>
      <trkpt lat="43.34262" lon="-1.74088">
        <ele>30</ele>
        <time>2026-08-23T13:57:43.000Z</time>
      </trkpt>
      <trkpt lat="43.34261" lon="-1.74065">
        <ele>29</ele>
        <time>2026-08-23T13:57:46.000Z</time>
      </trkpt>
      <trkpt lat="43.34252" lon="-1.7402">
        <ele>25</ele>
        <time>2026-08-23T13:57:52.000Z</time>
      </trkpt>
      <trkpt lat="43.34251" lon="-1.74006">
        <ele>24</ele>
        <time>2026-08-23T13:57:54.000Z</time>
      </trkpt>
      <trkpt lat="43.34254" lon="-1.73984">
        <ele>24</ele>
        <time>2026-08-23T13:57:57.000Z</time>
      </trkpt>
      <trkpt lat="43.34256" lon="-1.73973">
        <ele>25</ele>
        <time>2026-08-23T13:57:58.000Z</time>
      </trkpt>
      <trkpt lat="43.34259" lon="-1.73966">
        <ele>25</ele>
        <time>2026-08-23T13:57:59.000Z</time>
      </trkpt>
      <trkpt lat="43.34261" lon="-1.73948">
        <ele>26</ele>
        <time>2026-08-23T13:58:02.000Z</time>
      </trkpt>
      <trkpt lat="43.34261" lon="-1.73939">
        <ele>26</ele>
        <time>2026-08-23T13:58:03.000Z</time>
      </trkpt>
      <trkpt lat="43.34258" lon="-1.73928">
        <ele>26</ele>
        <time>2026-08-23T13:58:04.000Z</time>
      </trkpt>
      <trkpt lat="43.34241" lon="-1.73864">
        <ele>32</ele>
        <time>2026-08-23T13:58:13.000Z</time>
      </trkpt>
      <trkpt lat="43.34238" lon="-1.73847">
        <ele>34</ele>
        <time>2026-08-23T13:58:16.000Z</time>
      </trkpt>
      <trkpt lat="43.34225" lon="-1.73696">
        <ele>50</ele>
        <time>2026-08-23T13:58:35.000Z</time>
      </trkpt>
      <trkpt lat="43.34223" lon="-1.73679">
        <ele>51</ele>
        <time>2026-08-23T13:58:37.000Z</time>
      </trkpt>
      <trkpt lat="43.34219" lon="-1.73644">
        <ele>54</ele>
        <time>2026-08-23T13:58:42.000Z</time>
      </trkpt>
      <trkpt lat="43.34214" lon="-1.73624">
        <ele>55</ele>
        <time>2026-08-23T13:58:45.000Z</time>
      </trkpt>
      <trkpt lat="43.3421" lon="-1.73584">
        <ele>58</ele>
        <time>2026-08-23T13:58:50.000Z</time>
      </trkpt>
      <trkpt lat="43.34207" lon="-1.73529">
        <ele>63</ele>
        <time>2026-08-23T13:58:57.000Z</time>
      </trkpt>
      <trkpt lat="43.3421" lon="-1.73463">
        <ele>68</ele>
        <time>2026-08-23T13:59:06.000Z</time>
      </trkpt>
      <trkpt lat="43.34207" lon="-1.73433">
        <ele>71</ele>
        <time>2026-08-23T13:59:10.000Z</time>
      </trkpt>
      <trkpt lat="43.34202" lon="-1.73411">
        <ele>72</ele>
        <time>2026-08-23T13:59:13.000Z</time>
      </trkpt>
      <trkpt lat="43.34196" lon="-1.73397">
        <ele>73</ele>
        <time>2026-08-23T13:59:15.000Z</time>
      </trkpt>
      <trkpt lat="43.34178" lon="-1.73377">
        <ele>72</ele>
        <time>2026-08-23T13:59:19.000Z</time>
      </trkpt>
      <trkpt lat="43.34163" lon="-1.73368">
        <ele>71</ele>
        <time>2026-08-23T13:59:22.000Z</time>
      </trkpt>
      <trkpt lat="43.34154" lon="-1.73356">
        <ele>73</ele>
        <time>2026-08-23T13:59:24.000Z</time>
      </trkpt>
      <trkpt lat="43.34147" lon="-1.73337">
        <ele>75</ele>
        <time>2026-08-23T13:59:27.000Z</time>
      </trkpt>
      <trkpt lat="43.34149" lon="-1.73283">
        <ele>78</ele>
        <time>2026-08-23T13:59:34.000Z</time>
      </trkpt>
      <trkpt lat="43.34163" lon="-1.73149">
        <ele>86</ele>
        <time>2026-08-23T13:59:51.000Z</time>
      </trkpt>
      <trkpt lat="43.34167" lon="-1.73119">
        <ele>88</ele>
        <time>2026-08-23T13:59:55.000Z</time>
      </trkpt>
      <trkpt lat="43.34169" lon="-1.73102">
        <ele>89</ele>
        <time>2026-08-23T13:59:57.000Z</time>
      </trkpt>
      <trkpt lat="43.34184" lon="-1.73021">
        <ele>99</ele>
        <time>2026-08-23T14:00:08.000Z</time>
      </trkpt>
      <trkpt lat="43.34196" lon="-1.72984">
        <ele>103</ele>
        <time>2026-08-23T14:00:13.000Z</time>
      </trkpt>
      <trkpt lat="43.34198" lon="-1.72961">
        <ele>105</ele>
        <time>2026-08-23T14:00:16.000Z</time>
      </trkpt>
      <trkpt lat="43.34198" lon="-1.72939">
        <ele>106</ele>
        <time>2026-08-23T14:00:19.000Z</time>
      </trkpt>
      <trkpt lat="43.34194" lon="-1.72919">
        <ele>106</ele>
        <time>2026-08-23T14:00:22.000Z</time>
      </trkpt>
      <trkpt lat="43.34191" lon="-1.72905">
        <ele>105</ele>
        <time>2026-08-23T14:00:24.000Z</time>
      </trkpt>
      <trkpt lat="43.34185" lon="-1.72889">
        <ele>104</ele>
        <time>2026-08-23T14:00:26.000Z</time>
      </trkpt>
      <trkpt lat="43.34157" lon="-1.72813">
        <ele>105</ele>
        <time>2026-08-23T14:00:37.000Z</time>
      </trkpt>
      <trkpt lat="43.34152" lon="-1.72799">
        <ele>107</ele>
        <time>2026-08-23T14:00:39.000Z</time>
      </trkpt>
      <trkpt lat="43.34151" lon="-1.72785">
        <ele>108</ele>
        <time>2026-08-23T14:00:41.000Z</time>
      </trkpt>
      <trkpt lat="43.34154" lon="-1.72747">
        <ele>107</ele>
        <time>2026-08-23T14:00:46.000Z</time>
      </trkpt>
      <trkpt lat="43.34157" lon="-1.72629">
        <ele>97</ele>
        <time>2026-08-23T14:01:01.000Z</time>
      </trkpt>
      <trkpt lat="43.34155" lon="-1.7261">
        <ele>96</ele>
        <time>2026-08-23T14:01:04.000Z</time>
      </trkpt>
      <trkpt lat="43.34144" lon="-1.72581">
        <ele>96</ele>
        <time>2026-08-23T14:01:08.000Z</time>
      </trkpt>
      <trkpt lat="43.34146" lon="-1.72574">
        <ele>96</ele>
        <time>2026-08-23T14:01:09.000Z</time>
      </trkpt>
      <trkpt lat="43.34153" lon="-1.72573">
        <ele>94</ele>
        <time>2026-08-23T14:01:10.000Z</time>
      </trkpt>
      <trkpt lat="43.34167" lon="-1.72577">
        <ele>91</ele>
        <time>2026-08-23T14:01:13.000Z</time>
      </trkpt>
      <trkpt lat="43.34177" lon="-1.72576">
        <ele>91</ele>
        <time>2026-08-23T14:01:15.000Z</time>
      </trkpt>
      <trkpt lat="43.34187" lon="-1.72572">
        <ele>90</ele>
        <time>2026-08-23T14:01:16.000Z</time>
      </trkpt>
      <trkpt lat="43.342" lon="-1.72557">
        <ele>89</ele>
        <time>2026-08-23T14:01:19.000Z</time>
      </trkpt>
      <trkpt lat="43.34242" lon="-1.72477">
        <ele>80</ele>
        <time>2026-08-23T14:01:32.000Z</time>
      </trkpt>
      <trkpt lat="43.3428" lon="-1.72413">
        <ele>76</ele>
        <time>2026-08-23T14:01:43.000Z</time>
      </trkpt>
      <trkpt lat="43.34293" lon="-1.72386">
        <ele>75</ele>
        <time>2026-08-23T14:01:47.000Z</time>
      </trkpt>
      <trkpt lat="43.34322" lon="-1.72307">
        <ele>68</ele>
        <time>2026-08-23T14:01:59.000Z</time>
      </trkpt>
      <trkpt lat="43.34339" lon="-1.72272">
        <ele>64</ele>
        <time>2026-08-23T14:02:04.000Z</time>
      </trkpt>
      <trkpt lat="43.34383" lon="-1.72217">
        <ele>65</ele>
        <time>2026-08-23T14:02:15.000Z</time>
      </trkpt>
      <trkpt lat="43.34396" lon="-1.72191">
        <ele>64</ele>
        <time>2026-08-23T14:02:19.000Z</time>
      </trkpt>
      <trkpt lat="43.34409" lon="-1.72143">
        <ele>62</ele>
        <time>2026-08-23T14:02:25.000Z</time>
      </trkpt>
      <trkpt lat="43.34414" lon="-1.72112">
        <ele>61</ele>
        <time>2026-08-23T14:02:29.000Z</time>
      </trkpt>
      <trkpt lat="43.34427" lon="-1.72071">
        <ele>58</ele>
        <time>2026-08-23T14:02:35.000Z</time>
      </trkpt>
      <trkpt lat="43.34447" lon="-1.72025">
        <ele>55</ele>
        <time>2026-08-23T14:02:42.000Z</time>
      </trkpt>
      <trkpt lat="43.34478" lon="-1.71967">
        <ele>53</ele>
        <time>2026-08-23T14:02:51.000Z</time>
      </trkpt>
      <trkpt lat="43.34523" lon="-1.71871">
        <ele>50</ele>
        <time>2026-08-23T14:03:06.000Z</time>
      </trkpt>
      <trkpt lat="43.34554" lon="-1.71785">
        <ele>48</ele>
        <time>2026-08-23T14:03:19.000Z</time>
      </trkpt>
      <trkpt lat="43.34564" lon="-1.71768">
        <ele>48</ele>
        <time>2026-08-23T14:03:21.000Z</time>
      </trkpt>
      <trkpt lat="43.34609" lon="-1.71741">
        <ele>47</ele>
        <time>2026-08-23T14:03:30.000Z</time>
      </trkpt>
      <trkpt lat="43.34674" lon="-1.7171">
        <ele>46</ele>
        <time>2026-08-23T14:03:42.000Z</time>
      </trkpt>
      <trkpt lat="43.34711" lon="-1.71682">
        <ele>42</ele>
        <time>2026-08-23T14:03:50.000Z</time>
      </trkpt>
      <trkpt lat="43.34741" lon="-1.71667">
        <ele>40</ele>
        <time>2026-08-23T14:03:56.000Z</time>
      </trkpt>
      <trkpt lat="43.34754" lon="-1.71659">
        <ele>39</ele>
        <time>2026-08-23T14:03:58.000Z</time>
      </trkpt>
      <trkpt lat="43.34784" lon="-1.7162">
        <ele>37</ele>
        <time>2026-08-23T14:04:06.000Z</time>
      </trkpt>
      <trkpt lat="43.34794" lon="-1.71596">
        <ele>37</ele>
        <time>2026-08-23T14:04:09.000Z</time>
      </trkpt>
      <trkpt lat="43.34795" lon="-1.71587">
        <ele>37</ele>
        <time>2026-08-23T14:04:10.000Z</time>
      </trkpt>
      <trkpt lat="43.34794" lon="-1.71563">
        <ele>37</ele>
        <time>2026-08-23T14:04:13.000Z</time>
      </trkpt>
      <trkpt lat="43.34793" lon="-1.71541">
        <ele>38</ele>
        <time>2026-08-23T14:04:16.000Z</time>
      </trkpt>
      <trkpt lat="43.34784" lon="-1.71486">
        <ele>41</ele>
        <time>2026-08-23T14:04:24.000Z</time>
      </trkpt>
      <trkpt lat="43.34783" lon="-1.71461">
        <ele>44</ele>
        <time>2026-08-23T14:04:27.000Z</time>
      </trkpt>
      <trkpt lat="43.34791" lon="-1.71447">
        <ele>47</ele>
        <time>2026-08-23T14:04:29.000Z</time>
      </trkpt>
      <trkpt lat="43.34874" lon="-1.71409">
        <ele>57</ele>
        <time>2026-08-23T14:04:45.000Z</time>
      </trkpt>
      <trkpt lat="43.34894" lon="-1.71418">
        <ele>58</ele>
        <time>2026-08-23T14:04:48.000Z</time>
      </trkpt>
      <trkpt lat="43.34917" lon="-1.71412">
        <ele>59</ele>
        <time>2026-08-23T14:04:53.000Z</time>
      </trkpt>
      <trkpt lat="43.34931" lon="-1.71404">
        <ele>60</ele>
        <time>2026-08-23T14:04:55.000Z</time>
      </trkpt>
      <trkpt lat="43.34939" lon="-1.7139">
        <ele>62</ele>
        <time>2026-08-23T14:04:58.000Z</time>
      </trkpt>
      <trkpt lat="43.34955" lon="-1.71332">
        <ele>68</ele>
        <time>2026-08-23T14:05:06.000Z</time>
      </trkpt>
      <trkpt lat="43.34981" lon="-1.71262">
        <ele>71</ele>
        <time>2026-08-23T14:05:16.000Z</time>
      </trkpt>
      <trkpt lat="43.34985" lon="-1.71254">
        <ele>72</ele>
        <time>2026-08-23T14:05:17.000Z</time>
      </trkpt>
      <trkpt lat="43.34996" lon="-1.71241">
        <ele>73</ele>
        <time>2026-08-23T14:05:20.000Z</time>
      </trkpt>
      <trkpt lat="43.35027" lon="-1.7122">
        <ele>73</ele>
        <time>2026-08-23T14:05:26.000Z</time>
      </trkpt>
      <trkpt lat="43.35037" lon="-1.71207">
        <ele>73</ele>
        <time>2026-08-23T14:05:28.000Z</time>
      </trkpt>
      <trkpt lat="43.35051" lon="-1.71179">
        <ele>74</ele>
        <time>2026-08-23T14:05:33.000Z</time>
      </trkpt>
      <trkpt lat="43.35059" lon="-1.71161">
        <ele>75</ele>
        <time>2026-08-23T14:05:35.000Z</time>
      </trkpt>
      <trkpt lat="43.35064" lon="-1.7115">
        <ele>76</ele>
        <time>2026-08-23T14:05:37.000Z</time>
      </trkpt>
      <trkpt lat="43.35074" lon="-1.71132">
        <ele>77</ele>
        <time>2026-08-23T14:05:40.000Z</time>
      </trkpt>
      <trkpt lat="43.35075" lon="-1.7112">
        <ele>77</ele>
        <time>2026-08-23T14:05:41.000Z</time>
      </trkpt>
      <trkpt lat="43.35072" lon="-1.711">
        <ele>78</ele>
        <time>2026-08-23T14:05:44.000Z</time>
      </trkpt>
      <trkpt lat="43.35064" lon="-1.71063">
        <ele>78</ele>
        <time>2026-08-23T14:05:49.000Z</time>
      </trkpt>
      <trkpt lat="43.3504" lon="-1.70956">
        <ele>78</ele>
        <time>2026-08-23T14:06:04.000Z</time>
      </trkpt>
      <trkpt lat="43.35028" lon="-1.7092">
        <ele>78</ele>
        <time>2026-08-23T14:06:09.000Z</time>
      </trkpt>
      <trkpt lat="43.35021" lon="-1.70872">
        <ele>79</ele>
        <time>2026-08-23T14:06:15.000Z</time>
      </trkpt>
      <trkpt lat="43.3502" lon="-1.70839">
        <ele>79</ele>
        <time>2026-08-23T14:06:19.000Z</time>
      </trkpt>
      <trkpt lat="43.35015" lon="-1.70828">
        <ele>80</ele>
        <time>2026-08-23T14:06:21.000Z</time>
      </trkpt>
      <trkpt lat="43.34998" lon="-1.70782">
        <ele>81</ele>
        <time>2026-08-23T14:06:28.000Z</time>
      </trkpt>
      <trkpt lat="43.34982" lon="-1.70747">
        <ele>81</ele>
        <time>2026-08-23T14:06:33.000Z</time>
      </trkpt>
      <trkpt lat="43.34957" lon="-1.70728">
        <ele>79</ele>
        <time>2026-08-23T14:06:38.000Z</time>
      </trkpt>
      <trkpt lat="43.34922" lon="-1.70722">
        <ele>78</ele>
        <time>2026-08-23T14:06:44.000Z</time>
      </trkpt>
      <trkpt lat="43.34905" lon="-1.70718">
        <ele>77</ele>
        <time>2026-08-23T14:06:47.000Z</time>
      </trkpt>
      <trkpt lat="43.34893" lon="-1.70716">
        <ele>77</ele>
        <time>2026-08-23T14:06:50.000Z</time>
      </trkpt>
      <trkpt lat="43.34876" lon="-1.70708">
        <ele>76</ele>
        <time>2026-08-23T14:06:53.000Z</time>
      </trkpt>
      <trkpt lat="43.34856" lon="-1.70694">
        <ele>76</ele>
        <time>2026-08-23T14:06:57.000Z</time>
      </trkpt>
      <trkpt lat="43.34802" lon="-1.70639">
        <ele>74</ele>
        <time>2026-08-23T14:07:09.000Z</time>
      </trkpt>
      <trkpt lat="43.34769" lon="-1.70578">
        <ele>76</ele>
        <time>2026-08-23T14:07:19.000Z</time>
      </trkpt>
      <trkpt lat="43.3474" lon="-1.70542">
        <ele>77</ele>
        <time>2026-08-23T14:07:26.000Z</time>
      </trkpt>
      <trkpt lat="43.34719" lon="-1.70471">
        <ele>81</ele>
        <time>2026-08-23T14:07:35.000Z</time>
      </trkpt>
      <trkpt lat="43.34708" lon="-1.70426">
        <ele>83</ele>
        <time>2026-08-23T14:07:42.000Z</time>
      </trkpt>
      <trkpt lat="43.34691" lon="-1.70364">
        <ele>87</ele>
        <time>2026-08-23T14:07:50.000Z</time>
      </trkpt>
      <trkpt lat="43.34683" lon="-1.70346">
        <ele>88</ele>
        <time>2026-08-23T14:07:53.000Z</time>
      </trkpt>
      <trkpt lat="43.34669" lon="-1.70321">
        <ele>90</ele>
        <time>2026-08-23T14:07:57.000Z</time>
      </trkpt>
      <trkpt lat="43.34653" lon="-1.703">
        <ele>90</ele>
        <time>2026-08-23T14:08:01.000Z</time>
      </trkpt>
      <trkpt lat="43.34619" lon="-1.70264">
        <ele>90</ele>
        <time>2026-08-23T14:08:09.000Z</time>
      </trkpt>
      <trkpt lat="43.34612" lon="-1.70258">
        <ele>90</ele>
        <time>2026-08-23T14:08:10.000Z</time>
      </trkpt>
      <trkpt lat="43.34564" lon="-1.70219">
        <ele>86</ele>
        <time>2026-08-23T14:08:20.000Z</time>
      </trkpt>
      <trkpt lat="43.34527" lon="-1.70192">
        <ele>87</ele>
        <time>2026-08-23T14:08:27.000Z</time>
      </trkpt>
      <trkpt lat="43.34476" lon="-1.70133">
        <ele>88</ele>
        <time>2026-08-23T14:08:39.000Z</time>
      </trkpt>
      <trkpt lat="43.34472" lon="-1.70129">
        <ele>87</ele>
        <time>2026-08-23T14:08:40.000Z</time>
      </trkpt>
      <trkpt lat="43.34461" lon="-1.70129">
        <ele>88</ele>
        <time>2026-08-23T14:08:42.000Z</time>
      </trkpt>
      <trkpt lat="43.34453" lon="-1.70135">
        <ele>88</ele>
        <time>2026-08-23T14:08:44.000Z</time>
      </trkpt>
      <trkpt lat="43.3444" lon="-1.70145">
        <ele>88</ele>
        <time>2026-08-23T14:08:46.000Z</time>
      </trkpt>
      <trkpt lat="43.34416" lon="-1.70156">
        <ele>87</ele>
        <time>2026-08-23T14:08:51.000Z</time>
      </trkpt>
      <trkpt lat="43.34413" lon="-1.70158">
        <ele>87</ele>
        <time>2026-08-23T14:08:51.000Z</time>
      </trkpt>
      <trkpt lat="43.34398" lon="-1.70159">
        <ele>86</ele>
        <time>2026-08-23T14:08:54.000Z</time>
      </trkpt>
      <trkpt lat="43.34354" lon="-1.70144">
        <ele>83</ele>
        <time>2026-08-23T14:09:02.000Z</time>
      </trkpt>
      <trkpt lat="43.34293" lon="-1.7014">
        <ele>80</ele>
        <time>2026-08-23T14:09:13.000Z</time>
      </trkpt>
      <trkpt lat="43.34273" lon="-1.70143">
        <ele>79</ele>
        <time>2026-08-23T14:09:17.000Z</time>
      </trkpt>
      <trkpt lat="43.34256" lon="-1.70147">
        <ele>78</ele>
        <time>2026-08-23T14:09:20.000Z</time>
      </trkpt>
      <trkpt lat="43.34254" lon="-1.70034">
        <ele>79</ele>
        <time>2026-08-23T14:09:34.000Z</time>
      </trkpt>
      <trkpt lat="43.34256" lon="-1.70018">
        <ele>79</ele>
        <time>2026-08-23T14:09:36.000Z</time>
      </trkpt>
      <trkpt lat="43.34265" lon="-1.69953">
        <ele>78</ele>
        <time>2026-08-23T14:09:45.000Z</time>
      </trkpt>
      <trkpt lat="43.34269" lon="-1.69941">
        <ele>77</ele>
        <time>2026-08-23T14:09:47.000Z</time>
      </trkpt>
      <trkpt lat="43.34273" lon="-1.69935">
        <ele>77</ele>
        <time>2026-08-23T14:09:48.000Z</time>
      </trkpt>
      <trkpt lat="43.34279" lon="-1.69928">
        <ele>77</ele>
        <time>2026-08-23T14:09:49.000Z</time>
      </trkpt>
      <trkpt lat="43.34401" lon="-1.6981">
        <ele>78</ele>
        <time>2026-08-23T14:10:16.000Z</time>
      </trkpt>
      <trkpt lat="43.34407" lon="-1.69804">
        <ele>78</ele>
        <time>2026-08-23T14:10:17.000Z</time>
      </trkpt>
      <trkpt lat="43.34427" lon="-1.69787">
        <ele>77</ele>
        <time>2026-08-23T14:10:21.000Z</time>
      </trkpt>
      <trkpt lat="43.34441" lon="-1.69752">
        <ele>73</ele>
        <time>2026-08-23T14:10:26.000Z</time>
      </trkpt>
      <trkpt lat="43.34445" lon="-1.69673">
        <ele>67</ele>
        <time>2026-08-23T14:10:37.000Z</time>
      </trkpt>
      <trkpt lat="43.34463" lon="-1.69631">
        <ele>64</ele>
        <time>2026-08-23T14:10:43.000Z</time>
      </trkpt>
      <trkpt lat="43.34473" lon="-1.69601">
        <ele>62</ele>
        <time>2026-08-23T14:10:47.000Z</time>
      </trkpt>
      <trkpt lat="43.34467" lon="-1.69449">
        <ele>57</ele>
        <time>2026-08-23T14:11:07.000Z</time>
      </trkpt>
      <trkpt lat="43.34476" lon="-1.69392">
        <ele>55</ele>
        <time>2026-08-23T14:11:14.000Z</time>
      </trkpt>
      <trkpt lat="43.34479" lon="-1.69372">
        <ele>54</ele>
        <time>2026-08-23T14:11:17.000Z</time>
      </trkpt>
      <trkpt lat="43.3448" lon="-1.69347">
        <ele>53</ele>
        <time>2026-08-23T14:11:20.000Z</time>
      </trkpt>
      <trkpt lat="43.34481" lon="-1.69339">
        <ele>52</ele>
        <time>2026-08-23T14:11:21.000Z</time>
      </trkpt>
      <trkpt lat="43.34483" lon="-1.69332">
        <ele>52</ele>
        <time>2026-08-23T14:11:22.000Z</time>
      </trkpt>
      <trkpt lat="43.34527" lon="-1.69256">
        <ele>49</ele>
        <time>2026-08-23T14:11:35.000Z</time>
      </trkpt>
      <trkpt lat="43.34552" lon="-1.69214">
        <ele>47</ele>
        <time>2026-08-23T14:11:42.000Z</time>
      </trkpt>
      <trkpt lat="43.34557" lon="-1.69204">
        <ele>47</ele>
        <time>2026-08-23T14:11:44.000Z</time>
      </trkpt>
      <trkpt lat="43.34563" lon="-1.69183">
        <ele>46</ele>
        <time>2026-08-23T14:11:46.000Z</time>
      </trkpt>
      <trkpt lat="43.34584" lon="-1.69101">
        <ele>43</ele>
        <time>2026-08-23T14:11:58.000Z</time>
      </trkpt>
      <trkpt lat="43.34612" lon="-1.69061">
        <ele>42</ele>
        <time>2026-08-23T14:12:05.000Z</time>
      </trkpt>
      <trkpt lat="43.34636" lon="-1.69026">
        <ele>42</ele>
        <time>2026-08-23T14:12:11.000Z</time>
      </trkpt>
      <trkpt lat="43.34652" lon="-1.69002">
        <ele>42</ele>
        <time>2026-08-23T14:12:15.000Z</time>
      </trkpt>
      <trkpt lat="43.3466" lon="-1.68989">
        <ele>42</ele>
        <time>2026-08-23T14:12:18.000Z</time>
      </trkpt>
      <trkpt lat="43.34672" lon="-1.68961">
        <ele>41</ele>
        <time>2026-08-23T14:12:22.000Z</time>
      </trkpt>
      <trkpt lat="43.34676" lon="-1.68943">
        <ele>41</ele>
        <time>2026-08-23T14:12:24.000Z</time>
      </trkpt>
      <trkpt lat="43.34674" lon="-1.68928">
        <ele>40</ele>
        <time>2026-08-23T14:12:26.000Z</time>
      </trkpt>
      <trkpt lat="43.34638" lon="-1.68962">
        <ele>41</ele>
        <time>2026-08-23T14:12:34.000Z</time>
      </trkpt>
      <trkpt lat="43.34585" lon="-1.68988">
        <ele>42</ele>
        <time>2026-08-23T14:12:44.000Z</time>
      </trkpt>
      <trkpt lat="43.34565" lon="-1.68992">
        <ele>42</ele>
        <time>2026-08-23T14:12:48.000Z</time>
      </trkpt>
      <trkpt lat="43.34563" lon="-1.68992">
        <ele>42</ele>
        <time>2026-08-23T14:12:48.000Z</time>
      </trkpt>
      <trkpt lat="43.34527" lon="-1.6899">
        <ele>43</ele>
        <time>2026-08-23T14:12:54.000Z</time>
      </trkpt>
      <trkpt lat="43.34517" lon="-1.6899">
        <ele>43</ele>
        <time>2026-08-23T14:12:56.000Z</time>
      </trkpt>
      <trkpt lat="43.34491" lon="-1.68991">
        <ele>44</ele>
        <time>2026-08-23T14:13:01.000Z</time>
      </trkpt>
      <trkpt lat="43.34479" lon="-1.68993">
        <ele>44</ele>
        <time>2026-08-23T14:13:03.000Z</time>
      </trkpt>
      <trkpt lat="43.34286" lon="-1.69031">
        <ele>48</ele>
        <time>2026-08-23T14:13:38.000Z</time>
      </trkpt>
      <trkpt lat="43.34262" lon="-1.69036">
        <ele>48</ele>
        <time>2026-08-23T14:13:42.000Z</time>
      </trkpt>
      <trkpt lat="43.34205" lon="-1.69048">
        <ele>52</ele>
        <time>2026-08-23T14:13:52.000Z</time>
      </trkpt>
      <trkpt lat="43.34152" lon="-1.69057">
        <ele>57</ele>
        <time>2026-08-23T14:14:02.000Z</time>
      </trkpt>
      <trkpt lat="43.3413" lon="-1.69063">
        <ele>58</ele>
        <time>2026-08-23T14:14:06.000Z</time>
      </trkpt>
      <trkpt lat="43.3411" lon="-1.69068">
        <ele>60</ele>
        <time>2026-08-23T14:14:09.000Z</time>
      </trkpt>
      <trkpt lat="43.3406" lon="-1.69084">
        <ele>60</ele>
        <time>2026-08-23T14:14:18.000Z</time>
      </trkpt>
      <trkpt lat="43.34049" lon="-1.69085">
        <ele>61</ele>
        <time>2026-08-23T14:14:20.000Z</time>
      </trkpt>
      <trkpt lat="43.34031" lon="-1.69088">
        <ele>62</ele>
        <time>2026-08-23T14:14:24.000Z</time>
      </trkpt>
      <trkpt lat="43.33982" lon="-1.69086">
        <ele>63</ele>
        <time>2026-08-23T14:14:32.000Z</time>
      </trkpt>
      <trkpt lat="43.33936" lon="-1.69081">
        <ele>61</ele>
        <time>2026-08-23T14:14:40.000Z</time>
      </trkpt>
      <trkpt lat="43.33869" lon="-1.69059">
        <ele>64</ele>
        <time>2026-08-23T14:14:53.000Z</time>
      </trkpt>
      <trkpt lat="43.33851" lon="-1.69056">
        <ele>65</ele>
        <time>2026-08-23T14:14:56.000Z</time>
      </trkpt>
      <trkpt lat="43.33836" lon="-1.69057">
        <ele>66</ele>
        <time>2026-08-23T14:14:59.000Z</time>
      </trkpt>
      <trkpt lat="43.33819" lon="-1.69062">
        <ele>66</ele>
        <time>2026-08-23T14:15:02.000Z</time>
      </trkpt>
      <trkpt lat="43.3378" lon="-1.69084">
        <ele>65</ele>
        <time>2026-08-23T14:15:09.000Z</time>
      </trkpt>
      <trkpt lat="43.33771" lon="-1.69089">
        <ele>65</ele>
        <time>2026-08-23T14:15:11.000Z</time>
      </trkpt>
      <trkpt lat="43.33746" lon="-1.69098">
        <ele>66</ele>
        <time>2026-08-23T14:15:16.000Z</time>
      </trkpt>
      <trkpt lat="43.33723" lon="-1.691">
        <ele>68</ele>
        <time>2026-08-23T14:15:20.000Z</time>
      </trkpt>
      <trkpt lat="43.33677" lon="-1.691">
        <ele>72</ele>
        <time>2026-08-23T14:15:28.000Z</time>
      </trkpt>
      <trkpt lat="43.33661" lon="-1.69097">
        <ele>73</ele>
        <time>2026-08-23T14:15:31.000Z</time>
      </trkpt>
      <trkpt lat="43.33644" lon="-1.69089">
        <ele>73</ele>
        <time>2026-08-23T14:15:34.000Z</time>
      </trkpt>
      <trkpt lat="43.33629" lon="-1.69075">
        <ele>74</ele>
        <time>2026-08-23T14:15:37.000Z</time>
      </trkpt>
      <trkpt lat="43.33615" lon="-1.69056">
        <ele>76</ele>
        <time>2026-08-23T14:15:41.000Z</time>
      </trkpt>
      <trkpt lat="43.336" lon="-1.69022">
        <ele>81</ele>
        <time>2026-08-23T14:15:46.000Z</time>
      </trkpt>
      <trkpt lat="43.33591" lon="-1.69009">
        <ele>83</ele>
        <time>2026-08-23T14:15:48.000Z</time>
      </trkpt>
      <trkpt lat="43.3358" lon="-1.69005">
        <ele>83</ele>
        <time>2026-08-23T14:15:50.000Z</time>
      </trkpt>
      <trkpt lat="43.33556" lon="-1.69002">
        <ele>82</ele>
        <time>2026-08-23T14:15:54.000Z</time>
      </trkpt>
      <trkpt lat="43.33537" lon="-1.68997">
        <ele>82</ele>
        <time>2026-08-23T14:15:58.000Z</time>
      </trkpt>
      <trkpt lat="43.33517" lon="-1.68989">
        <ele>82</ele>
        <time>2026-08-23T14:16:02.000Z</time>
      </trkpt>
      <trkpt lat="43.335" lon="-1.68976">
        <ele>84</ele>
        <time>2026-08-23T14:16:05.000Z</time>
      </trkpt>
      <trkpt lat="43.33451" lon="-1.68907">
        <ele>91</ele>
        <time>2026-08-23T14:16:18.000Z</time>
      </trkpt>
      <trkpt lat="43.33435" lon="-1.68877">
        <ele>93</ele>
        <time>2026-08-23T14:16:22.000Z</time>
      </trkpt>
      <trkpt lat="43.33426" lon="-1.68841">
        <ele>96</ele>
        <time>2026-08-23T14:16:27.000Z</time>
      </trkpt>
      <trkpt lat="43.33424" lon="-1.68818">
        <ele>98</ele>
        <time>2026-08-23T14:16:30.000Z</time>
      </trkpt>
      <trkpt lat="43.33419" lon="-1.68795">
        <ele>98</ele>
        <time>2026-08-23T14:16:33.000Z</time>
      </trkpt>
      <trkpt lat="43.33404" lon="-1.68755">
        <ele>99</ele>
        <time>2026-08-23T14:16:39.000Z</time>
      </trkpt>
      <trkpt lat="43.33397" lon="-1.68745">
        <ele>98</ele>
        <time>2026-08-23T14:16:41.000Z</time>
      </trkpt>
      <trkpt lat="43.33394" lon="-1.68738">
        <ele>98</ele>
        <time>2026-08-23T14:16:42.000Z</time>
      </trkpt>
      <trkpt lat="43.33391" lon="-1.68727">
        <ele>97</ele>
        <time>2026-08-23T14:16:44.000Z</time>
      </trkpt>
      <trkpt lat="43.33394" lon="-1.68622">
        <ele>94</ele>
        <time>2026-08-23T14:16:57.000Z</time>
      </trkpt>
      <trkpt lat="43.33399" lon="-1.68547">
        <ele>91</ele>
        <time>2026-08-23T14:17:07.000Z</time>
      </trkpt>
      <trkpt lat="43.33401" lon="-1.68506">
        <ele>89</ele>
        <time>2026-08-23T14:17:12.000Z</time>
      </trkpt>
      <trkpt lat="43.33402" lon="-1.68459">
        <ele>86</ele>
        <time>2026-08-23T14:17:18.000Z</time>
      </trkpt>
      <trkpt lat="43.33403" lon="-1.68437">
        <ele>85</ele>
        <time>2026-08-23T14:17:21.000Z</time>
      </trkpt>
      <trkpt lat="43.33408" lon="-1.68325">
        <ele>83</ele>
        <time>2026-08-23T14:17:36.000Z</time>
      </trkpt>
      <trkpt lat="43.33415" lon="-1.6814">
        <ele>76</ele>
        <time>2026-08-23T14:18:00.000Z</time>
      </trkpt>
      <trkpt lat="43.33417" lon="-1.68082">
        <ele>75</ele>
        <time>2026-08-23T14:18:07.000Z</time>
      </trkpt>
      <trkpt lat="43.33424" lon="-1.67866">
        <ele>69</ele>
        <time>2026-08-23T14:18:35.000Z</time>
      </trkpt>
      <trkpt lat="43.33426" lon="-1.67812">
        <ele>67</ele>
        <time>2026-08-23T14:18:42.000Z</time>
      </trkpt>
      <trkpt lat="43.33429" lon="-1.67776">
        <ele>66</ele>
        <time>2026-08-23T14:18:47.000Z</time>
      </trkpt>
      <trkpt lat="43.33431" lon="-1.67754">
        <ele>66</ele>
        <time>2026-08-23T14:18:50.000Z</time>
      </trkpt>
      <trkpt lat="43.33442" lon="-1.67686">
        <ele>65</ele>
        <time>2026-08-23T14:18:59.000Z</time>
      </trkpt>
      <trkpt lat="43.33458" lon="-1.67596">
        <ele>62</ele>
        <time>2026-08-23T14:19:11.000Z</time>
      </trkpt>
      <trkpt lat="43.33465" lon="-1.67543">
        <ele>60</ele>
        <time>2026-08-23T14:19:18.000Z</time>
      </trkpt>
      <trkpt lat="43.33469" lon="-1.67481">
        <ele>58</ele>
        <time>2026-08-23T14:19:26.000Z</time>
      </trkpt>
      <trkpt lat="43.33471" lon="-1.67453">
        <ele>58</ele>
        <time>2026-08-23T14:19:29.000Z</time>
      </trkpt>
      <trkpt lat="43.33472" lon="-1.67425">
        <ele>58</ele>
        <time>2026-08-23T14:19:33.000Z</time>
      </trkpt>
      <trkpt lat="43.33472" lon="-1.67396">
        <ele>57</ele>
        <time>2026-08-23T14:19:37.000Z</time>
      </trkpt>
      <trkpt lat="43.3347" lon="-1.67366">
        <ele>56</ele>
        <time>2026-08-23T14:19:41.000Z</time>
      </trkpt>
      <trkpt lat="43.33465" lon="-1.67337">
        <ele>55</ele>
        <time>2026-08-23T14:19:45.000Z</time>
      </trkpt>
      <trkpt lat="43.33449" lon="-1.67255">
        <ele>52</ele>
        <time>2026-08-23T14:19:55.000Z</time>
      </trkpt>
      <trkpt lat="43.33438" lon="-1.67201">
        <ele>52</ele>
        <time>2026-08-23T14:20:03.000Z</time>
      </trkpt>
      <trkpt lat="43.33438" lon="-1.67191">
        <ele>52</ele>
        <time>2026-08-23T14:20:04.000Z</time>
      </trkpt>
      <trkpt lat="43.33438" lon="-1.67154">
        <ele>51</ele>
        <time>2026-08-23T14:20:09.000Z</time>
      </trkpt>
      <trkpt lat="43.33438" lon="-1.6714">
        <ele>51</ele>
        <time>2026-08-23T14:20:11.000Z</time>
      </trkpt>
      <trkpt lat="43.33449" lon="-1.66967">
        <ele>52</ele>
        <time>2026-08-23T14:20:33.000Z</time>
      </trkpt>
      <trkpt lat="43.33452" lon="-1.6695">
        <ele>53</ele>
        <time>2026-08-23T14:20:35.000Z</time>
      </trkpt>
      <trkpt lat="43.33461" lon="-1.66923">
        <ele>52</ele>
        <time>2026-08-23T14:20:39.000Z</time>
      </trkpt>
      <trkpt lat="43.33472" lon="-1.669">
        <ele>51</ele>
        <time>2026-08-23T14:20:43.000Z</time>
      </trkpt>
      <trkpt lat="43.33517" lon="-1.66837">
        <ele>46</ele>
        <time>2026-08-23T14:20:54.000Z</time>
      </trkpt>
      <trkpt lat="43.33535" lon="-1.66816">
        <ele>45</ele>
        <time>2026-08-23T14:20:58.000Z</time>
      </trkpt>
      <trkpt lat="43.3354" lon="-1.66811">
        <ele>45</ele>
        <time>2026-08-23T14:21:00.000Z</time>
      </trkpt>
      <trkpt lat="43.33547" lon="-1.66807">
        <ele>45</ele>
        <time>2026-08-23T14:21:01.000Z</time>
      </trkpt>
      <trkpt lat="43.33557" lon="-1.66805">
        <ele>45</ele>
        <time>2026-08-23T14:21:03.000Z</time>
      </trkpt>
      <trkpt lat="43.3358" lon="-1.668">
        <ele>45</ele>
        <time>2026-08-23T14:21:07.000Z</time>
      </trkpt>
      <trkpt lat="43.33596" lon="-1.66791">
        <ele>45</ele>
        <time>2026-08-23T14:21:10.000Z</time>
      </trkpt>
      <trkpt lat="43.33596" lon="-1.66787">
        <ele>45</ele>
        <time>2026-08-23T14:21:10.000Z</time>
      </trkpt>
      <trkpt lat="43.336" lon="-1.66781">
        <ele>45</ele>
        <time>2026-08-23T14:21:11.000Z</time>
      </trkpt>
      <trkpt lat="43.33602" lon="-1.66779">
        <ele>45</ele>
        <time>2026-08-23T14:21:12.000Z</time>
      </trkpt>
      <trkpt lat="43.33608" lon="-1.6678">
        <ele>45</ele>
        <time>2026-08-23T14:21:13.000Z</time>
      </trkpt>
      <trkpt lat="43.33611" lon="-1.66782">
        <ele>45</ele>
        <time>2026-08-23T14:21:14.000Z</time>
      </trkpt>
      <trkpt lat="43.33621" lon="-1.66781">
        <ele>45</ele>
        <time>2026-08-23T14:21:15.000Z</time>
      </trkpt>
      <trkpt lat="43.33629" lon="-1.66778">
        <ele>45</ele>
        <time>2026-08-23T14:21:17.000Z</time>
      </trkpt>
      <trkpt lat="43.33633" lon="-1.66772">
        <ele>45</ele>
        <time>2026-08-23T14:21:18.000Z</time>
      </trkpt>
      <trkpt lat="43.3364" lon="-1.66759">
        <ele>45</ele>
        <time>2026-08-23T14:21:20.000Z</time>
      </trkpt>
      <trkpt lat="43.33655" lon="-1.66718">
        <ele>47</ele>
        <time>2026-08-23T14:21:26.000Z</time>
      </trkpt>
      <trkpt lat="43.33666" lon="-1.66662">
        <ele>48</ele>
        <time>2026-08-23T14:21:33.000Z</time>
      </trkpt>
      <trkpt lat="43.33672" lon="-1.66622">
        <ele>50</ele>
        <time>2026-08-23T14:21:39.000Z</time>
      </trkpt>
      <trkpt lat="43.33671" lon="-1.66597">
        <ele>50</ele>
        <time>2026-08-23T14:21:42.000Z</time>
      </trkpt>
      <trkpt lat="43.33666" lon="-1.66563">
        <ele>52</ele>
        <time>2026-08-23T14:21:46.000Z</time>
      </trkpt>
      <trkpt lat="43.33661" lon="-1.6654">
        <ele>53</ele>
        <time>2026-08-23T14:21:50.000Z</time>
      </trkpt>
      <trkpt lat="43.33625" lon="-1.66444">
        <ele>59</ele>
        <time>2026-08-23T14:22:04.000Z</time>
      </trkpt>
      <trkpt lat="43.33615" lon="-1.66412">
        <ele>62</ele>
        <time>2026-08-23T14:22:08.000Z</time>
      </trkpt>
      <trkpt lat="43.33608" lon="-1.66377">
        <ele>64</ele>
        <time>2026-08-23T14:22:13.000Z</time>
      </trkpt>
      <trkpt lat="43.33607" lon="-1.66344">
        <ele>65</ele>
        <time>2026-08-23T14:22:17.000Z</time>
      </trkpt>
      <trkpt lat="43.33615" lon="-1.66263">
        <ele>67</ele>
        <time>2026-08-23T14:22:28.000Z</time>
      </trkpt>
      <trkpt lat="43.33622" lon="-1.6624">
        <ele>67</ele>
        <time>2026-08-23T14:22:31.000Z</time>
      </trkpt>
      <trkpt lat="43.33645" lon="-1.66182">
        <ele>65</ele>
        <time>2026-08-23T14:22:39.000Z</time>
      </trkpt>
      <trkpt lat="43.3365" lon="-1.66164">
        <ele>65</ele>
        <time>2026-08-23T14:22:42.000Z</time>
      </trkpt>
      <trkpt lat="43.33653" lon="-1.66149">
        <ele>66</ele>
        <time>2026-08-23T14:22:44.000Z</time>
      </trkpt>
      <trkpt lat="43.33666" lon="-1.66081">
        <ele>68</ele>
        <time>2026-08-23T14:22:53.000Z</time>
      </trkpt>
      <trkpt lat="43.33677" lon="-1.66023">
        <ele>69</ele>
        <time>2026-08-23T14:23:01.000Z</time>
      </trkpt>
      <trkpt lat="43.33678" lon="-1.6602">
        <ele>69</ele>
        <time>2026-08-23T14:23:01.000Z</time>
      </trkpt>
      <trkpt lat="43.33682" lon="-1.65994">
        <ele>69</ele>
        <time>2026-08-23T14:23:05.000Z</time>
      </trkpt>
      <trkpt lat="43.33683" lon="-1.65985">
        <ele>69</ele>
        <time>2026-08-23T14:23:06.000Z</time>
      </trkpt>
      <trkpt lat="43.33695" lon="-1.6592">
        <ele>68</ele>
        <time>2026-08-23T14:23:14.000Z</time>
      </trkpt>
      <trkpt lat="43.33716" lon="-1.65754">
        <ele>66</ele>
        <time>2026-08-23T14:23:36.000Z</time>
      </trkpt>
      <trkpt lat="43.33724" lon="-1.65706">
        <ele>65</ele>
        <time>2026-08-23T14:23:43.000Z</time>
      </trkpt>
      <trkpt lat="43.3373" lon="-1.65677">
        <ele>64</ele>
        <time>2026-08-23T14:23:47.000Z</time>
      </trkpt>
      <trkpt lat="43.33774" lon="-1.65464">
        <ele>65</ele>
        <time>2026-08-23T14:24:15.000Z</time>
      </trkpt>
      <trkpt lat="43.33776" lon="-1.65454">
        <ele>65</ele>
        <time>2026-08-23T14:24:17.000Z</time>
      </trkpt>
      <trkpt lat="43.33786" lon="-1.6541">
        <ele>64</ele>
        <time>2026-08-23T14:24:22.000Z</time>
      </trkpt>
      <trkpt lat="43.33832" lon="-1.65197">
        <ele>57</ele>
        <time>2026-08-23T14:24:51.000Z</time>
      </trkpt>
      <trkpt lat="43.33858" lon="-1.65073">
        <ele>52</ele>
        <time>2026-08-23T14:25:08.000Z</time>
      </trkpt>
      <trkpt lat="43.33868" lon="-1.65026">
        <ele>50</ele>
        <time>2026-08-23T14:25:14.000Z</time>
      </trkpt>
      <trkpt lat="43.33898" lon="-1.64886">
        <ele>47</ele>
        <time>2026-08-23T14:25:33.000Z</time>
      </trkpt>
      <trkpt lat="43.3393" lon="-1.64735">
        <ele>44</ele>
        <time>2026-08-23T14:25:54.000Z</time>
      </trkpt>
      <trkpt lat="43.33943" lon="-1.64674">
        <ele>41</ele>
        <time>2026-08-23T14:26:02.000Z</time>
      </trkpt>
      <trkpt lat="43.33975" lon="-1.64522">
        <ele>39</ele>
        <time>2026-08-23T14:26:22.000Z</time>
      </trkpt>
      <trkpt lat="43.33982" lon="-1.64493">
        <ele>38</ele>
        <time>2026-08-23T14:26:26.000Z</time>
      </trkpt>
      <trkpt lat="43.33986" lon="-1.64473">
        <ele>37</ele>
        <time>2026-08-23T14:26:29.000Z</time>
      </trkpt>
      <trkpt lat="43.34003" lon="-1.64392">
        <ele>35</ele>
        <time>2026-08-23T14:26:40.000Z</time>
      </trkpt>
      <trkpt lat="43.34023" lon="-1.64283">
        <ele>35</ele>
        <time>2026-08-23T14:26:54.000Z</time>
      </trkpt>
      <trkpt lat="43.34024" lon="-1.64261">
        <ele>35</ele>
        <time>2026-08-23T14:26:57.000Z</time>
      </trkpt>
      <trkpt lat="43.34024" lon="-1.64238">
        <ele>35</ele>
        <time>2026-08-23T14:27:00.000Z</time>
      </trkpt>
      <trkpt lat="43.34022" lon="-1.64205">
        <ele>35</ele>
        <time>2026-08-23T14:27:04.000Z</time>
      </trkpt>
      <trkpt lat="43.34024" lon="-1.64173">
        <ele>35</ele>
        <time>2026-08-23T14:27:09.000Z</time>
      </trkpt>
      <trkpt lat="43.3403" lon="-1.64148">
        <ele>35</ele>
        <time>2026-08-23T14:27:12.000Z</time>
      </trkpt>
      <trkpt lat="43.34039" lon="-1.64126">
        <ele>36</ele>
        <time>2026-08-23T14:27:15.000Z</time>
      </trkpt>
      <trkpt lat="43.34062" lon="-1.64097">
        <ele>37</ele>
        <time>2026-08-23T14:27:21.000Z</time>
      </trkpt>
      <trkpt lat="43.34095" lon="-1.64075">
        <ele>39</ele>
        <time>2026-08-23T14:27:27.000Z</time>
      </trkpt>
      <trkpt lat="43.34139" lon="-1.64055">
        <ele>43</ele>
        <time>2026-08-23T14:27:36.000Z</time>
      </trkpt>
      <trkpt lat="43.34156" lon="-1.6404">
        <ele>45</ele>
        <time>2026-08-23T14:27:39.000Z</time>
      </trkpt>
      <trkpt lat="43.34177" lon="-1.64013">
        <ele>47</ele>
        <time>2026-08-23T14:27:44.000Z</time>
      </trkpt>
      <trkpt lat="43.34187" lon="-1.63993">
        <ele>48</ele>
        <time>2026-08-23T14:27:47.000Z</time>
      </trkpt>
      <trkpt lat="43.34219" lon="-1.63911">
        <ele>48</ele>
        <time>2026-08-23T14:27:59.000Z</time>
      </trkpt>
      <trkpt lat="43.34226" lon="-1.63883">
        <ele>49</ele>
        <time>2026-08-23T14:28:03.000Z</time>
      </trkpt>
      <trkpt lat="43.34229" lon="-1.63858">
        <ele>49</ele>
        <time>2026-08-23T14:28:07.000Z</time>
      </trkpt>
      <trkpt lat="43.34228" lon="-1.63827">
        <ele>50</ele>
        <time>2026-08-23T14:28:11.000Z</time>
      </trkpt>
      <trkpt lat="43.34217" lon="-1.63766">
        <ele>51</ele>
        <time>2026-08-23T14:28:19.000Z</time>
      </trkpt>
      <trkpt lat="43.34214" lon="-1.63753">
        <ele>51</ele>
        <time>2026-08-23T14:28:20.000Z</time>
      </trkpt>
      <trkpt lat="43.34211" lon="-1.63746">
        <ele>51</ele>
        <time>2026-08-23T14:28:22.000Z</time>
      </trkpt>
      <trkpt lat="43.34207" lon="-1.63727">
        <ele>50</ele>
        <time>2026-08-23T14:28:24.000Z</time>
      </trkpt>
      <trkpt lat="43.34207" lon="-1.63691">
        <ele>49</ele>
        <time>2026-08-23T14:28:29.000Z</time>
      </trkpt>
      <trkpt lat="43.34214" lon="-1.63668">
        <ele>49</ele>
        <time>2026-08-23T14:28:32.000Z</time>
      </trkpt>
      <trkpt lat="43.34216" lon="-1.6366">
        <ele>48</ele>
        <time>2026-08-23T14:28:33.000Z</time>
      </trkpt>
      <trkpt lat="43.34246" lon="-1.63597">
        <ele>46</ele>
        <time>2026-08-23T14:28:43.000Z</time>
      </trkpt>
      <trkpt lat="43.34258" lon="-1.63562">
        <ele>44</ele>
        <time>2026-08-23T14:28:48.000Z</time>
      </trkpt>
      <trkpt lat="43.34262" lon="-1.63522">
        <ele>42</ele>
        <time>2026-08-23T14:28:53.000Z</time>
      </trkpt>
      <trkpt lat="43.3426" lon="-1.63493">
        <ele>40</ele>
        <time>2026-08-23T14:28:57.000Z</time>
      </trkpt>
      <trkpt lat="43.34257" lon="-1.63481">
        <ele>40</ele>
        <time>2026-08-23T14:28:58.000Z</time>
      </trkpt>
      <trkpt lat="43.34254" lon="-1.63471">
        <ele>40</ele>
        <time>2026-08-23T14:29:00.000Z</time>
      </trkpt>
      <trkpt lat="43.34245" lon="-1.63447">
        <ele>39</ele>
        <time>2026-08-23T14:29:03.000Z</time>
      </trkpt>
      <trkpt lat="43.34224" lon="-1.63385">
        <ele>37</ele>
        <time>2026-08-23T14:29:12.000Z</time>
      </trkpt>
      <trkpt lat="43.34222" lon="-1.63363">
        <ele>36</ele>
        <time>2026-08-23T14:29:15.000Z</time>
      </trkpt>
      <trkpt lat="43.34227" lon="-1.63343">
        <ele>36</ele>
        <time>2026-08-23T14:29:18.000Z</time>
      </trkpt>
      <trkpt lat="43.34276" lon="-1.63237">
        <ele>35</ele>
        <time>2026-08-23T14:29:34.000Z</time>
      </trkpt>
      <trkpt lat="43.34285" lon="-1.63212">
        <ele>33</ele>
        <time>2026-08-23T14:29:38.000Z</time>
      </trkpt>
      <trkpt lat="43.3429" lon="-1.63198">
        <ele>33</ele>
        <time>2026-08-23T14:29:40.000Z</time>
      </trkpt>
      <trkpt lat="43.34294" lon="-1.63188">
        <ele>32</ele>
        <time>2026-08-23T14:29:41.000Z</time>
      </trkpt>
      <trkpt lat="43.34322" lon="-1.63071">
        <ele>27</ele>
        <time>2026-08-23T14:29:57.000Z</time>
      </trkpt>
      <trkpt lat="43.34325" lon="-1.63063">
        <ele>26</ele>
        <time>2026-08-23T14:29:58.000Z</time>
      </trkpt>
      <trkpt lat="43.34333" lon="-1.63028">
        <ele>22</ele>
        <time>2026-08-23T14:30:03.000Z</time>
      </trkpt>
      <trkpt lat="43.34344" lon="-1.62964">
        <ele>17</ele>
        <time>2026-08-23T14:30:12.000Z</time>
      </trkpt>
      <trkpt lat="43.34355" lon="-1.62855">
        <ele>12</ele>
        <time>2026-08-23T14:30:26.000Z</time>
      </trkpt>
      <trkpt lat="43.34362" lon="-1.62744">
        <ele>13</ele>
        <time>2026-08-23T14:30:40.000Z</time>
      </trkpt>
      <trkpt lat="43.34361" lon="-1.6265">
        <ele>16</ele>
        <time>2026-08-23T14:30:52.000Z</time>
      </trkpt>
      <trkpt lat="43.3436" lon="-1.62626">
        <ele>17</ele>
        <time>2026-08-23T14:30:55.000Z</time>
      </trkpt>
      <trkpt lat="43.34361" lon="-1.62615">
        <ele>18</ele>
        <time>2026-08-23T14:30:57.000Z</time>
      </trkpt>
      <trkpt lat="43.34366" lon="-1.6258">
        <ele>19</ele>
        <time>2026-08-23T14:31:02.000Z</time>
      </trkpt>
      <trkpt lat="43.34385" lon="-1.62513">
        <ele>22</ele>
        <time>2026-08-23T14:31:11.000Z</time>
      </trkpt>
      <trkpt lat="43.34387" lon="-1.62508">
        <ele>23</ele>
        <time>2026-08-23T14:31:12.000Z</time>
      </trkpt>
      <trkpt lat="43.3441" lon="-1.62438">
        <ele>24</ele>
        <time>2026-08-23T14:31:22.000Z</time>
      </trkpt>
      <trkpt lat="43.34413" lon="-1.62431">
        <ele>24</ele>
        <time>2026-08-23T14:31:23.000Z</time>
      </trkpt>
      <trkpt lat="43.34437" lon="-1.624">
        <ele>24</ele>
        <time>2026-08-23T14:31:28.000Z</time>
      </trkpt>
      <trkpt lat="43.34441" lon="-1.62392">
        <ele>23</ele>
        <time>2026-08-23T14:31:30.000Z</time>
      </trkpt>
      <trkpt lat="43.34446" lon="-1.62381">
        <ele>23</ele>
        <time>2026-08-23T14:31:31.000Z</time>
      </trkpt>
      <trkpt lat="43.34447" lon="-1.62374">
        <ele>22</ele>
        <time>2026-08-23T14:31:32.000Z</time>
      </trkpt>
      <trkpt lat="43.34448" lon="-1.62357">
        <ele>22</ele>
        <time>2026-08-23T14:31:34.000Z</time>
      </trkpt>
      <trkpt lat="43.34445" lon="-1.62318">
        <ele>21</ele>
        <time>2026-08-23T14:31:40.000Z</time>
      </trkpt>
      <trkpt lat="43.34444" lon="-1.62311">
        <ele>21</ele>
        <time>2026-08-23T14:31:40.000Z</time>
      </trkpt>
      <trkpt lat="43.34445" lon="-1.62293">
        <ele>21</ele>
        <time>2026-08-23T14:31:43.000Z</time>
      </trkpt>
      <trkpt lat="43.34459" lon="-1.62219">
        <ele>22</ele>
        <time>2026-08-23T14:31:53.000Z</time>
      </trkpt>
      <trkpt lat="43.34463" lon="-1.62196">
        <ele>22</ele>
        <time>2026-08-23T14:31:56.000Z</time>
      </trkpt>
      <trkpt lat="43.34465" lon="-1.62188">
        <ele>23</ele>
        <time>2026-08-23T14:31:57.000Z</time>
      </trkpt>
      <trkpt lat="43.34471" lon="-1.62165">
        <ele>23</ele>
        <time>2026-08-23T14:32:00.000Z</time>
      </trkpt>
      <trkpt lat="43.34474" lon="-1.62153">
        <ele>23</ele>
        <time>2026-08-23T14:32:02.000Z</time>
      </trkpt>
      <trkpt lat="43.34471" lon="-1.621">
        <ele>24</ele>
        <time>2026-08-23T14:32:09.000Z</time>
      </trkpt>
      <trkpt lat="43.34471" lon="-1.62092">
        <ele>24</ele>
        <time>2026-08-23T14:32:10.000Z</time>
      </trkpt>
      <trkpt lat="43.34463" lon="-1.62074">
        <ele>24</ele>
        <time>2026-08-23T14:32:12.000Z</time>
      </trkpt>
      <trkpt lat="43.34456" lon="-1.62059">
        <ele>24</ele>
        <time>2026-08-23T14:32:15.000Z</time>
      </trkpt>
      <trkpt lat="43.34406" lon="-1.61984">
        <ele>25</ele>
        <time>2026-08-23T14:32:28.000Z</time>
      </trkpt>
      <trkpt lat="43.34394" lon="-1.61963">
        <ele>26</ele>
        <time>2026-08-23T14:32:31.000Z</time>
      </trkpt>
      <trkpt lat="43.34386" lon="-1.6194">
        <ele>26</ele>
        <time>2026-08-23T14:32:35.000Z</time>
      </trkpt>
      <trkpt lat="43.34384" lon="-1.61931">
        <ele>26</ele>
        <time>2026-08-23T14:32:36.000Z</time>
      </trkpt>
      <trkpt lat="43.34381" lon="-1.61901">
        <ele>25</ele>
        <time>2026-08-23T14:32:40.000Z</time>
      </trkpt>
      <trkpt lat="43.3438" lon="-1.61734">
        <ele>24</ele>
        <time>2026-08-23T14:33:01.000Z</time>
      </trkpt>
      <trkpt lat="43.34379" lon="-1.61719">
        <ele>24</ele>
        <time>2026-08-23T14:33:03.000Z</time>
      </trkpt>
      <trkpt lat="43.34378" lon="-1.61699">
        <ele>25</ele>
        <time>2026-08-23T14:33:06.000Z</time>
      </trkpt>
      <trkpt lat="43.34377" lon="-1.61689">
        <ele>26</ele>
        <time>2026-08-23T14:33:07.000Z</time>
      </trkpt>
      <trkpt lat="43.34364" lon="-1.61649">
        <ele>29</ele>
        <time>2026-08-23T14:33:13.000Z</time>
      </trkpt>
      <trkpt lat="43.34356" lon="-1.61637">
        <ele>30</ele>
        <time>2026-08-23T14:33:15.000Z</time>
      </trkpt>
      <trkpt lat="43.34345" lon="-1.61629">
        <ele>32</ele>
        <time>2026-08-23T14:33:17.000Z</time>
      </trkpt>
      <trkpt lat="43.34319" lon="-1.61627">
        <ele>34</ele>
        <time>2026-08-23T14:33:22.000Z</time>
      </trkpt>
      <trkpt lat="43.34233" lon="-1.61618">
        <ele>42</ele>
        <time>2026-08-23T14:33:37.000Z</time>
      </trkpt>
      <trkpt lat="43.34166" lon="-1.61611">
        <ele>43</ele>
        <time>2026-08-23T14:33:49.000Z</time>
      </trkpt>
      <trkpt lat="43.34147" lon="-1.61609">
        <ele>45</ele>
        <time>2026-08-23T14:33:52.000Z</time>
      </trkpt>
      <trkpt lat="43.34092" lon="-1.61623">
        <ele>46</ele>
        <time>2026-08-23T14:34:02.000Z</time>
      </trkpt>
      <trkpt lat="43.34077" lon="-1.61621">
        <ele>46</ele>
        <time>2026-08-23T14:34:05.000Z</time>
      </trkpt>
      <trkpt lat="43.34063" lon="-1.61612">
        <ele>48</ele>
        <time>2026-08-23T14:34:08.000Z</time>
      </trkpt>
      <trkpt lat="43.3406" lon="-1.61609">
        <ele>48</ele>
        <time>2026-08-23T14:34:08.000Z</time>
      </trkpt>
      <trkpt lat="43.34025" lon="-1.61572">
        <ele>55</ele>
        <time>2026-08-23T14:34:16.000Z</time>
      </trkpt>
      <trkpt lat="43.34008" lon="-1.61565">
        <ele>57</ele>
        <time>2026-08-23T14:34:19.000Z</time>
      </trkpt>
      <trkpt lat="43.33962" lon="-1.61557">
        <ele>59</ele>
        <time>2026-08-23T14:34:28.000Z</time>
      </trkpt>
      <trkpt lat="43.33942" lon="-1.61559">
        <ele>58</ele>
        <time>2026-08-23T14:34:31.000Z</time>
      </trkpt>
      <trkpt lat="43.3392" lon="-1.61564">
        <ele>56</ele>
        <time>2026-08-23T14:34:35.000Z</time>
      </trkpt>
      <trkpt lat="43.33892" lon="-1.61563">
        <ele>58</ele>
        <time>2026-08-23T14:34:40.000Z</time>
      </trkpt>
      <trkpt lat="43.33868" lon="-1.61571">
        <ele>57</ele>
        <time>2026-08-23T14:34:45.000Z</time>
      </trkpt>
      <trkpt lat="43.33835" lon="-1.61567">
        <ele>61</ele>
        <time>2026-08-23T14:34:51.000Z</time>
      </trkpt>
      <trkpt lat="43.33807" lon="-1.61573">
        <ele>62</ele>
        <time>2026-08-23T14:34:56.000Z</time>
      </trkpt>
      <trkpt lat="43.33788" lon="-1.61574">
        <ele>63</ele>
        <time>2026-08-23T14:34:59.000Z</time>
      </trkpt>
      <trkpt lat="43.33722" lon="-1.61552">
        <ele>71</ele>
        <time>2026-08-23T14:35:11.000Z</time>
      </trkpt>
      <trkpt lat="43.33696" lon="-1.61543">
        <ele>73</ele>
        <time>2026-08-23T14:35:16.000Z</time>
      </trkpt>
      <trkpt lat="43.33654" lon="-1.61499">
        <ele>80</ele>
        <time>2026-08-23T14:35:25.000Z</time>
      </trkpt>
      <trkpt lat="43.33615" lon="-1.61479">
        <ele>79</ele>
        <time>2026-08-23T14:35:33.000Z</time>
      </trkpt>
      <trkpt lat="43.33602" lon="-1.61468">
        <ele>79</ele>
        <time>2026-08-23T14:35:35.000Z</time>
      </trkpt>
      <trkpt lat="43.3359" lon="-1.6145">
        <ele>81</ele>
        <time>2026-08-23T14:35:39.000Z</time>
      </trkpt>
      <trkpt lat="43.33576" lon="-1.61419">
        <ele>85</ele>
        <time>2026-08-23T14:35:43.000Z</time>
      </trkpt>
      <trkpt lat="43.33566" lon="-1.61407">
        <ele>85</ele>
        <time>2026-08-23T14:35:46.000Z</time>
      </trkpt>
      <trkpt lat="43.33546" lon="-1.61387">
        <ele>84</ele>
        <time>2026-08-23T14:35:50.000Z</time>
      </trkpt>
      <trkpt lat="43.33539" lon="-1.61369">
        <ele>86</ele>
        <time>2026-08-23T14:35:53.000Z</time>
      </trkpt>
      <trkpt lat="43.33538" lon="-1.61319">
        <ele>95</ele>
        <time>2026-08-23T14:35:59.000Z</time>
      </trkpt>
      <trkpt lat="43.33531" lon="-1.61302">
        <ele>97</ele>
        <time>2026-08-23T14:36:02.000Z</time>
      </trkpt>
      <trkpt lat="43.33501" lon="-1.61281">
        <ele>95</ele>
        <time>2026-08-23T14:36:08.000Z</time>
      </trkpt>
      <trkpt lat="43.3348" lon="-1.61233">
        <ele>101</ele>
        <time>2026-08-23T14:36:15.000Z</time>
      </trkpt>
      <trkpt lat="43.33471" lon="-1.61223">
        <ele>101</ele>
        <time>2026-08-23T14:36:17.000Z</time>
      </trkpt>
      <trkpt lat="43.33457" lon="-1.61218">
        <ele>98</ele>
        <time>2026-08-23T14:36:20.000Z</time>
      </trkpt>
      <trkpt lat="43.33448" lon="-1.61219">
        <ele>95</ele>
        <time>2026-08-23T14:36:21.000Z</time>
      </trkpt>
      <trkpt lat="43.3344" lon="-1.61214">
        <ele>94</ele>
        <time>2026-08-23T14:36:23.000Z</time>
      </trkpt>
      <trkpt lat="43.33431" lon="-1.612">
        <ele>94</ele>
        <time>2026-08-23T14:36:25.000Z</time>
      </trkpt>
      <trkpt lat="43.33423" lon="-1.6117">
        <ele>97</ele>
        <time>2026-08-23T14:36:29.000Z</time>
      </trkpt>
      <trkpt lat="43.33421" lon="-1.61125">
        <ele>100</ele>
        <time>2026-08-23T14:36:35.000Z</time>
      </trkpt>
      <trkpt lat="43.33423" lon="-1.61102">
        <ele>103</ele>
        <time>2026-08-23T14:36:38.000Z</time>
      </trkpt>
      <trkpt lat="43.33429" lon="-1.61078">
        <ele>108</ele>
        <time>2026-08-23T14:36:41.000Z</time>
      </trkpt>
      <trkpt lat="43.3343" lon="-1.61045">
        <ele>108</ele>
        <time>2026-08-23T14:36:46.000Z</time>
      </trkpt>
      <trkpt lat="43.33439" lon="-1.61015">
        <ele>112</ele>
        <time>2026-08-23T14:36:50.000Z</time>
      </trkpt>
      <trkpt lat="43.33458" lon="-1.61001">
        <ele>119</ele>
        <time>2026-08-23T14:36:54.000Z</time>
      </trkpt>
      <trkpt lat="43.33461" lon="-1.60989">
        <ele>121</ele>
        <time>2026-08-23T14:36:55.000Z</time>
      </trkpt>
      <trkpt lat="43.33457" lon="-1.60973">
        <ele>121</ele>
        <time>2026-08-23T14:36:57.000Z</time>
      </trkpt>
      <trkpt lat="43.33441" lon="-1.60956">
        <ele>116</ele>
        <time>2026-08-23T14:37:01.000Z</time>
      </trkpt>
      <trkpt lat="43.33435" lon="-1.60941">
        <ele>115</ele>
        <time>2026-08-23T14:37:03.000Z</time>
      </trkpt>
      <trkpt lat="43.33434" lon="-1.60918">
        <ele>117</ele>
        <time>2026-08-23T14:37:06.000Z</time>
      </trkpt>
      <trkpt lat="43.33442" lon="-1.60876">
        <ele>127</ele>
        <time>2026-08-23T14:37:12.000Z</time>
      </trkpt>
      <trkpt lat="43.33441" lon="-1.60858">
        <ele>130</ele>
        <time>2026-08-23T14:37:14.000Z</time>
      </trkpt>
      <trkpt lat="43.33434" lon="-1.60846">
        <ele>130</ele>
        <time>2026-08-23T14:37:16.000Z</time>
      </trkpt>
      <trkpt lat="43.33424" lon="-1.60845">
        <ele>127</ele>
        <time>2026-08-23T14:37:18.000Z</time>
      </trkpt>
      <trkpt lat="43.33401" lon="-1.60853">
        <ele>121</ele>
        <time>2026-08-23T14:37:22.000Z</time>
      </trkpt>
      <trkpt lat="43.3339" lon="-1.60852">
        <ele>119</ele>
        <time>2026-08-23T14:37:24.000Z</time>
      </trkpt>
      <trkpt lat="43.33373" lon="-1.60836">
        <ele>120</ele>
        <time>2026-08-23T14:37:28.000Z</time>
      </trkpt>
      <trkpt lat="43.33359" lon="-1.60813">
        <ele>122</ele>
        <time>2026-08-23T14:37:32.000Z</time>
      </trkpt>
      <trkpt lat="43.33353" lon="-1.60788">
        <ele>125</ele>
        <time>2026-08-23T14:37:35.000Z</time>
      </trkpt>
      <trkpt lat="43.33353" lon="-1.60767">
        <ele>129</ele>
        <time>2026-08-23T14:37:38.000Z</time>
      </trkpt>
      <trkpt lat="43.33344" lon="-1.60746">
        <ele>131</ele>
        <time>2026-08-23T14:37:41.000Z</time>
      </trkpt>
      <trkpt lat="43.33331" lon="-1.60735">
        <ele>131</ele>
        <time>2026-08-23T14:37:44.000Z</time>
      </trkpt>
      <trkpt lat="43.33317" lon="-1.60728">
        <ele>129</ele>
        <time>2026-08-23T14:37:46.000Z</time>
      </trkpt>
      <trkpt lat="43.33268" lon="-1.60651">
        <ele>132</ele>
        <time>2026-08-23T14:38:00.000Z</time>
      </trkpt>
      <trkpt lat="43.33249" lon="-1.60601">
        <ele>136</ele>
        <time>2026-08-23T14:38:07.000Z</time>
      </trkpt>
      <trkpt lat="43.33243" lon="-1.6057">
        <ele>140</ele>
        <time>2026-08-23T14:38:11.000Z</time>
      </trkpt>
      <trkpt lat="43.33247" lon="-1.60524">
        <ele>147</ele>
        <time>2026-08-23T14:38:17.000Z</time>
      </trkpt>
      <trkpt lat="43.33244" lon="-1.60513">
        <ele>148</ele>
        <time>2026-08-23T14:38:19.000Z</time>
      </trkpt>
      <trkpt lat="43.33234" lon="-1.60504">
        <ele>146</ele>
        <time>2026-08-23T14:38:21.000Z</time>
      </trkpt>
      <trkpt lat="43.33212" lon="-1.60497">
        <ele>141</ele>
        <time>2026-08-23T14:38:25.000Z</time>
      </trkpt>
      <trkpt lat="43.33199" lon="-1.60488">
        <ele>139</ele>
        <time>2026-08-23T14:38:27.000Z</time>
      </trkpt>
      <trkpt lat="43.33185" lon="-1.60466">
        <ele>139</ele>
        <time>2026-08-23T14:38:31.000Z</time>
      </trkpt>
      <trkpt lat="43.33178" lon="-1.60435">
        <ele>142</ele>
        <time>2026-08-23T14:38:35.000Z</time>
      </trkpt>
      <trkpt lat="43.33174" lon="-1.60406">
        <ele>145</ele>
        <time>2026-08-23T14:38:39.000Z</time>
      </trkpt>
      <trkpt lat="43.33156" lon="-1.60359">
        <ele>148</ele>
        <time>2026-08-23T14:38:46.000Z</time>
      </trkpt>
      <trkpt lat="43.33143" lon="-1.60316">
        <ele>150</ele>
        <time>2026-08-23T14:38:52.000Z</time>
      </trkpt>
      <trkpt lat="43.33128" lon="-1.60292">
        <ele>150</ele>
        <time>2026-08-23T14:38:56.000Z</time>
      </trkpt>
      <trkpt lat="43.3311" lon="-1.60273">
        <ele>151</ele>
        <time>2026-08-23T14:39:00.000Z</time>
      </trkpt>
      <trkpt lat="43.33094" lon="-1.60262">
        <ele>152</ele>
        <time>2026-08-23T14:39:03.000Z</time>
      </trkpt>
      <trkpt lat="43.33073" lon="-1.60252">
        <ele>152</ele>
        <time>2026-08-23T14:39:07.000Z</time>
      </trkpt>
      <trkpt lat="43.33019" lon="-1.60227">
        <ele>155</ele>
        <time>2026-08-23T14:39:17.000Z</time>
      </trkpt>
      <trkpt lat="43.32981" lon="-1.60215">
        <ele>158</ele>
        <time>2026-08-23T14:39:24.000Z</time>
      </trkpt>
      <trkpt lat="43.32899" lon="-1.60204">
        <ele>162</ele>
        <time>2026-08-23T14:39:39.000Z</time>
      </trkpt>
      <trkpt lat="43.32792" lon="-1.60191">
        <ele>164</ele>
        <time>2026-08-23T14:39:58.000Z</time>
      </trkpt>
      <trkpt lat="43.32772" lon="-1.60187">
        <ele>164</ele>
        <time>2026-08-23T14:40:02.000Z</time>
      </trkpt>
      <trkpt lat="43.32751" lon="-1.60178">
        <ele>166</ele>
        <time>2026-08-23T14:40:06.000Z</time>
      </trkpt>
      <trkpt lat="43.32714" lon="-1.60151">
        <ele>168</ele>
        <time>2026-08-23T14:40:13.000Z</time>
      </trkpt>
      <trkpt lat="43.32685" lon="-1.60134">
        <ele>169</ele>
        <time>2026-08-23T14:40:19.000Z</time>
      </trkpt>
      <trkpt lat="43.32596" lon="-1.60104">
        <ele>168</ele>
        <time>2026-08-23T14:40:35.000Z</time>
      </trkpt>
      <trkpt lat="43.32578" lon="-1.60097">
        <ele>168</ele>
        <time>2026-08-23T14:40:38.000Z</time>
      </trkpt>
      <trkpt lat="43.32561" lon="-1.60087">
        <ele>170</ele>
        <time>2026-08-23T14:40:42.000Z</time>
      </trkpt>
      <trkpt lat="43.32529" lon="-1.60061">
        <ele>173</ele>
        <time>2026-08-23T14:40:48.000Z</time>
      </trkpt>
      <trkpt lat="43.32517" lon="-1.60054">
        <ele>174</ele>
        <time>2026-08-23T14:40:51.000Z</time>
      </trkpt>
      <trkpt lat="43.32507" lon="-1.60054">
        <ele>173</ele>
        <time>2026-08-23T14:40:52.000Z</time>
      </trkpt>
      <trkpt lat="43.32498" lon="-1.60056">
        <ele>173</ele>
        <time>2026-08-23T14:40:54.000Z</time>
      </trkpt>
      <trkpt lat="43.32496" lon="-1.60056">
        <ele>173</ele>
        <time>2026-08-23T14:40:54.000Z</time>
      </trkpt>
      <trkpt lat="43.32447" lon="-1.60099">
        <ele>177</ele>
        <time>2026-08-23T14:41:05.000Z</time>
      </trkpt>
      <trkpt lat="43.32438" lon="-1.60104">
        <ele>179</ele>
        <time>2026-08-23T14:41:06.000Z</time>
      </trkpt>
      <trkpt lat="43.32431" lon="-1.60103">
        <ele>180</ele>
        <time>2026-08-23T14:41:08.000Z</time>
      </trkpt>
      <trkpt lat="43.32422" lon="-1.60096">
        <ele>179</ele>
        <time>2026-08-23T14:41:10.000Z</time>
      </trkpt>
      <trkpt lat="43.32399" lon="-1.6006">
        <ele>179</ele>
        <time>2026-08-23T14:41:16.000Z</time>
      </trkpt>
      <trkpt lat="43.32378" lon="-1.60034">
        <ele>180</ele>
        <time>2026-08-23T14:41:21.000Z</time>
      </trkpt>
      <trkpt lat="43.3236" lon="-1.60023">
        <ele>182</ele>
        <time>2026-08-23T14:41:24.000Z</time>
      </trkpt>
      <trkpt lat="43.32329" lon="-1.60012">
        <ele>184</ele>
        <time>2026-08-23T14:41:30.000Z</time>
      </trkpt>
      <trkpt lat="43.32306" lon="-1.59999">
        <ele>184</ele>
        <time>2026-08-23T14:41:34.000Z</time>
      </trkpt>
      <trkpt lat="43.32286" lon="-1.59984">
        <ele>184</ele>
        <time>2026-08-23T14:41:38.000Z</time>
      </trkpt>
      <trkpt lat="43.32265" lon="-1.59959">
        <ele>181</ele>
        <time>2026-08-23T14:41:43.000Z</time>
      </trkpt>
      <trkpt lat="43.32252" lon="-1.59949">
        <ele>180</ele>
        <time>2026-08-23T14:41:46.000Z</time>
      </trkpt>
      <trkpt lat="43.32242" lon="-1.59947">
        <ele>181</ele>
        <time>2026-08-23T14:41:48.000Z</time>
      </trkpt>
      <trkpt lat="43.3223" lon="-1.59953">
        <ele>183</ele>
        <time>2026-08-23T14:41:50.000Z</time>
      </trkpt>
      <trkpt lat="43.32203" lon="-1.5999">
        <ele>191</ele>
        <time>2026-08-23T14:41:57.000Z</time>
      </trkpt>
      <trkpt lat="43.32191" lon="-1.59993">
        <ele>192</ele>
        <time>2026-08-23T14:41:59.000Z</time>
      </trkpt>
      <trkpt lat="43.32187" lon="-1.5999">
        <ele>192</ele>
        <time>2026-08-23T14:42:00.000Z</time>
      </trkpt>
      <trkpt lat="43.32183" lon="-1.59986">
        <ele>191</ele>
        <time>2026-08-23T14:42:01.000Z</time>
      </trkpt>
      <trkpt lat="43.32181" lon="-1.59981">
        <ele>191</ele>
        <time>2026-08-23T14:42:01.000Z</time>
      </trkpt>
      <trkpt lat="43.32182" lon="-1.59969">
        <ele>189</ele>
        <time>2026-08-23T14:42:03.000Z</time>
      </trkpt>
      <trkpt lat="43.32189" lon="-1.59943">
        <ele>184</ele>
        <time>2026-08-23T14:42:07.000Z</time>
      </trkpt>
      <trkpt lat="43.3219" lon="-1.59928">
        <ele>182</ele>
        <time>2026-08-23T14:42:09.000Z</time>
      </trkpt>
      <trkpt lat="43.32187" lon="-1.59887">
        <ele>178</ele>
        <time>2026-08-23T14:42:14.000Z</time>
      </trkpt>
      <trkpt lat="43.32184" lon="-1.59866">
        <ele>177</ele>
        <time>2026-08-23T14:42:17.000Z</time>
      </trkpt>
      <trkpt lat="43.32172" lon="-1.59841">
        <ele>177</ele>
        <time>2026-08-23T14:42:21.000Z</time>
      </trkpt>
      <trkpt lat="43.32154" lon="-1.5982">
        <ele>175</ele>
        <time>2026-08-23T14:42:25.000Z</time>
      </trkpt>
      <trkpt lat="43.32138" lon="-1.59812">
        <ele>174</ele>
        <time>2026-08-23T14:42:28.000Z</time>
      </trkpt>
      <trkpt lat="43.32103" lon="-1.59803">
        <ele>175</ele>
        <time>2026-08-23T14:42:34.000Z</time>
      </trkpt>
      <trkpt lat="43.3206" lon="-1.59781">
        <ele>169</ele>
        <time>2026-08-23T14:42:42.000Z</time>
      </trkpt>
      <trkpt lat="43.32052" lon="-1.59779">
        <ele>167</ele>
        <time>2026-08-23T14:42:44.000Z</time>
      </trkpt>
      <trkpt lat="43.32042" lon="-1.59788">
        <ele>168</ele>
        <time>2026-08-23T14:42:46.000Z</time>
      </trkpt>
      <trkpt lat="43.32027" lon="-1.59816">
        <ele>173</ele>
        <time>2026-08-23T14:42:50.000Z</time>
      </trkpt>
      <trkpt lat="43.3202" lon="-1.59824">
        <ele>174</ele>
        <time>2026-08-23T14:42:52.000Z</time>
      </trkpt>
      <trkpt lat="43.32" lon="-1.59835">
        <ele>173</ele>
        <time>2026-08-23T14:42:56.000Z</time>
      </trkpt>
      <trkpt lat="43.31976" lon="-1.59855">
        <ele>178</ele>
        <time>2026-08-23T14:43:01.000Z</time>
      </trkpt>
      <trkpt lat="43.3197" lon="-1.59856">
        <ele>178</ele>
        <time>2026-08-23T14:43:02.000Z</time>
      </trkpt>
      <trkpt lat="43.31963" lon="-1.59854">
        <ele>178</ele>
        <time>2026-08-23T14:43:03.000Z</time>
      </trkpt>
      <trkpt lat="43.31932" lon="-1.5983">
        <ele>171</ele>
        <time>2026-08-23T14:43:09.000Z</time>
      </trkpt>
      <trkpt lat="43.3192" lon="-1.59822">
        <ele>170</ele>
        <time>2026-08-23T14:43:12.000Z</time>
      </trkpt>
      <trkpt lat="43.31893" lon="-1.59824">
        <ele>172</ele>
        <time>2026-08-23T14:43:17.000Z</time>
      </trkpt>
      <trkpt lat="43.31884" lon="-1.59819">
        <ele>172</ele>
        <time>2026-08-23T14:43:18.000Z</time>
      </trkpt>
      <trkpt lat="43.31879" lon="-1.5981">
        <ele>171</ele>
        <time>2026-08-23T14:43:20.000Z</time>
      </trkpt>
      <trkpt lat="43.31876" lon="-1.59804">
        <ele>170</ele>
        <time>2026-08-23T14:43:21.000Z</time>
      </trkpt>
      <trkpt lat="43.31874" lon="-1.59797">
        <ele>169</ele>
        <time>2026-08-23T14:43:22.000Z</time>
      </trkpt>
      <trkpt lat="43.31867" lon="-1.59787">
        <ele>167</ele>
        <time>2026-08-23T14:43:24.000Z</time>
      </trkpt>
      <trkpt lat="43.31825" lon="-1.59764">
        <ele>167</ele>
        <time>2026-08-23T14:43:32.000Z</time>
      </trkpt>
      <trkpt lat="43.31813" lon="-1.59751">
        <ele>167</ele>
        <time>2026-08-23T14:43:34.000Z</time>
      </trkpt>
      <trkpt lat="43.31799" lon="-1.59731">
        <ele>166</ele>
        <time>2026-08-23T14:43:38.000Z</time>
      </trkpt>
      <trkpt lat="43.3179" lon="-1.59724">
        <ele>166</ele>
        <time>2026-08-23T14:43:40.000Z</time>
      </trkpt>
      <trkpt lat="43.31777" lon="-1.5972">
        <ele>167</ele>
        <time>2026-08-23T14:43:42.000Z</time>
      </trkpt>
      <trkpt lat="43.31771" lon="-1.59721">
        <ele>168</ele>
        <time>2026-08-23T14:43:43.000Z</time>
      </trkpt>
      <trkpt lat="43.31758" lon="-1.59724">
        <ele>171</ele>
        <time>2026-08-23T14:43:46.000Z</time>
      </trkpt>
      <trkpt lat="43.31747" lon="-1.59692">
        <ele>166</ele>
        <time>2026-08-23T14:43:50.000Z</time>
      </trkpt>
      <trkpt lat="43.31729" lon="-1.59677">
        <ele>169</ele>
        <time>2026-08-23T14:43:54.000Z</time>
      </trkpt>
      <trkpt lat="43.31723" lon="-1.59669">
        <ele>170</ele>
        <time>2026-08-23T14:43:55.000Z</time>
      </trkpt>
      <trkpt lat="43.31725" lon="-1.59656">
        <ele>167</ele>
        <time>2026-08-23T14:43:57.000Z</time>
      </trkpt>
      <trkpt lat="43.31735" lon="-1.59635">
        <ele>162</ele>
        <time>2026-08-23T14:44:00.000Z</time>
      </trkpt>
      <trkpt lat="43.31739" lon="-1.59601">
        <ele>157</ele>
        <time>2026-08-23T14:44:05.000Z</time>
      </trkpt>
      <trkpt lat="43.31737" lon="-1.5958">
        <ele>155</ele>
        <time>2026-08-23T14:44:08.000Z</time>
      </trkpt>
      <trkpt lat="43.31727" lon="-1.59559">
        <ele>155</ele>
        <time>2026-08-23T14:44:11.000Z</time>
      </trkpt>
      <trkpt lat="43.31702" lon="-1.59527">
        <ele>155</ele>
        <time>2026-08-23T14:44:17.000Z</time>
      </trkpt>
      <trkpt lat="43.31682" lon="-1.59514">
        <ele>157</ele>
        <time>2026-08-23T14:44:21.000Z</time>
      </trkpt>
      <trkpt lat="43.31658" lon="-1.59487">
        <ele>155</ele>
        <time>2026-08-23T14:44:26.000Z</time>
      </trkpt>
      <trkpt lat="43.31647" lon="-1.59481">
        <ele>156</ele>
        <time>2026-08-23T14:44:28.000Z</time>
      </trkpt>
      <trkpt lat="43.31624" lon="-1.59474">
        <ele>158</ele>
        <time>2026-08-23T14:44:33.000Z</time>
      </trkpt>
      <trkpt lat="43.31616" lon="-1.59461">
        <ele>156</ele>
        <time>2026-08-23T14:44:35.000Z</time>
      </trkpt>
      <trkpt lat="43.316" lon="-1.59428">
        <ele>151</ele>
        <time>2026-08-23T14:44:40.000Z</time>
      </trkpt>
      <trkpt lat="43.31587" lon="-1.59417">
        <ele>151</ele>
        <time>2026-08-23T14:44:43.000Z</time>
      </trkpt>
      <trkpt lat="43.31554" lon="-1.59408">
        <ele>156</ele>
        <time>2026-08-23T14:44:49.000Z</time>
      </trkpt>
      <trkpt lat="43.31549" lon="-1.59402">
        <ele>156</ele>
        <time>2026-08-23T14:44:50.000Z</time>
      </trkpt>
      <trkpt lat="43.31537" lon="-1.59372">
        <ele>155</ele>
        <time>2026-08-23T14:44:54.000Z</time>
      </trkpt>
      <trkpt lat="43.31524" lon="-1.5936">
        <ele>157</ele>
        <time>2026-08-23T14:44:57.000Z</time>
      </trkpt>
      <trkpt lat="43.31514" lon="-1.59346">
        <ele>158</ele>
        <time>2026-08-23T14:45:00.000Z</time>
      </trkpt>
      <trkpt lat="43.31516" lon="-1.59328">
        <ele>156</ele>
        <time>2026-08-23T14:45:02.000Z</time>
      </trkpt>
      <trkpt lat="43.3153" lon="-1.59315">
        <ele>152</ele>
        <time>2026-08-23T14:45:05.000Z</time>
      </trkpt>
      <trkpt lat="43.31542" lon="-1.59296">
        <ele>148</ele>
        <time>2026-08-23T14:45:08.000Z</time>
      </trkpt>
      <trkpt lat="43.31552" lon="-1.59274">
        <ele>145</ele>
        <time>2026-08-23T14:45:12.000Z</time>
      </trkpt>
      <trkpt lat="43.31587" lon="-1.59177">
        <ele>136</ele>
        <time>2026-08-23T14:45:26.000Z</time>
      </trkpt>
      <trkpt lat="43.31594" lon="-1.59155">
        <ele>135</ele>
        <time>2026-08-23T14:45:29.000Z</time>
      </trkpt>
      <trkpt lat="43.31597" lon="-1.59124">
        <ele>137</ele>
        <time>2026-08-23T14:45:33.000Z</time>
      </trkpt>
      <trkpt lat="43.31602" lon="-1.59111">
        <ele>137</ele>
        <time>2026-08-23T14:45:35.000Z</time>
      </trkpt>
      <trkpt lat="43.31613" lon="-1.59102">
        <ele>136</ele>
        <time>2026-08-23T14:45:37.000Z</time>
      </trkpt>
      <trkpt lat="43.31657" lon="-1.5909">
        <ele>131</ele>
        <time>2026-08-23T14:45:45.000Z</time>
      </trkpt>
      <trkpt lat="43.3167" lon="-1.59079">
        <ele>131</ele>
        <time>2026-08-23T14:45:48.000Z</time>
      </trkpt>
      <trkpt lat="43.31692" lon="-1.59044">
        <ele>133</ele>
        <time>2026-08-23T14:45:54.000Z</time>
      </trkpt>
      <trkpt lat="43.31715" lon="-1.59028">
        <ele>132</ele>
        <time>2026-08-23T14:45:58.000Z</time>
      </trkpt>
      <trkpt lat="43.31735" lon="-1.59027">
        <ele>130</ele>
        <time>2026-08-23T14:46:02.000Z</time>
      </trkpt>
      <trkpt lat="43.31763" lon="-1.59035">
        <ele>126</ele>
        <time>2026-08-23T14:46:07.000Z</time>
      </trkpt>
      <trkpt lat="43.31772" lon="-1.59034">
        <ele>125</ele>
        <time>2026-08-23T14:46:08.000Z</time>
      </trkpt>
      <trkpt lat="43.3178" lon="-1.59029">
        <ele>126</ele>
        <time>2026-08-23T14:46:10.000Z</time>
      </trkpt>
      <trkpt lat="43.31804" lon="-1.58995">
        <ele>129</ele>
        <time>2026-08-23T14:46:16.000Z</time>
      </trkpt>
      <trkpt lat="43.31813" lon="-1.58973">
        <ele>128</ele>
        <time>2026-08-23T14:46:19.000Z</time>
      </trkpt>
      <trkpt lat="43.31814" lon="-1.58961">
        <ele>128</ele>
        <time>2026-08-23T14:46:21.000Z</time>
      </trkpt>
      <trkpt lat="43.31812" lon="-1.58952">
        <ele>128</ele>
        <time>2026-08-23T14:46:22.000Z</time>
      </trkpt>
      <trkpt lat="43.31804" lon="-1.58939">
        <ele>128</ele>
        <time>2026-08-23T14:46:24.000Z</time>
      </trkpt>
      <trkpt lat="43.31793" lon="-1.58932">
        <ele>128</ele>
        <time>2026-08-23T14:46:27.000Z</time>
      </trkpt>
      <trkpt lat="43.31768" lon="-1.58931">
        <ele>128</ele>
        <time>2026-08-23T14:46:31.000Z</time>
      </trkpt>
      <trkpt lat="43.31763" lon="-1.58929">
        <ele>128</ele>
        <time>2026-08-23T14:46:32.000Z</time>
      </trkpt>
      <trkpt lat="43.31755" lon="-1.58926">
        <ele>128</ele>
        <time>2026-08-23T14:46:33.000Z</time>
      </trkpt>
      <trkpt lat="43.31705" lon="-1.58876">
        <ele>123</ele>
        <time>2026-08-23T14:46:44.000Z</time>
      </trkpt>
      <trkpt lat="43.31695" lon="-1.58873">
        <ele>123</ele>
        <time>2026-08-23T14:46:46.000Z</time>
      </trkpt>
      <trkpt lat="43.31651" lon="-1.58868">
        <ele>122</ele>
        <time>2026-08-23T14:46:54.000Z</time>
      </trkpt>
      <trkpt lat="43.31613" lon="-1.58856">
        <ele>119</ele>
        <time>2026-08-23T14:47:01.000Z</time>
      </trkpt>
      <trkpt lat="43.31553" lon="-1.58858">
        <ele>117</ele>
        <time>2026-08-23T14:47:12.000Z</time>
      </trkpt>
      <trkpt lat="43.31529" lon="-1.58853">
        <ele>114</ele>
        <time>2026-08-23T14:47:16.000Z</time>
      </trkpt>
      <trkpt lat="43.31515" lon="-1.58856">
        <ele>114</ele>
        <time>2026-08-23T14:47:19.000Z</time>
      </trkpt>
      <trkpt lat="43.31503" lon="-1.58861">
        <ele>114</ele>
        <time>2026-08-23T14:47:21.000Z</time>
      </trkpt>
      <trkpt lat="43.31493" lon="-1.5886">
        <ele>113</ele>
        <time>2026-08-23T14:47:23.000Z</time>
      </trkpt>
      <trkpt lat="43.31489" lon="-1.58852">
        <ele>111</ele>
        <time>2026-08-23T14:47:24.000Z</time>
      </trkpt>
      <trkpt lat="43.3149" lon="-1.58841">
        <ele>108</ele>
        <time>2026-08-23T14:47:25.000Z</time>
      </trkpt>
      <trkpt lat="43.31501" lon="-1.58834">
        <ele>107</ele>
        <time>2026-08-23T14:47:27.000Z</time>
      </trkpt>
      <trkpt lat="43.3155" lon="-1.58832">
        <ele>111</ele>
        <time>2026-08-23T14:47:36.000Z</time>
      </trkpt>
      <trkpt lat="43.31585" lon="-1.58822">
        <ele>111</ele>
        <time>2026-08-23T14:47:43.000Z</time>
      </trkpt>
      <trkpt lat="43.31617" lon="-1.58807">
        <ele>107</ele>
        <time>2026-08-23T14:47:49.000Z</time>
      </trkpt>
      <trkpt lat="43.31655" lon="-1.58801">
        <ele>107</ele>
        <time>2026-08-23T14:47:55.000Z</time>
      </trkpt>
      <trkpt lat="43.31716" lon="-1.58797">
        <ele>109</ele>
        <time>2026-08-23T14:48:06.000Z</time>
      </trkpt>
      <trkpt lat="43.31721" lon="-1.5879">
        <ele>108</ele>
        <time>2026-08-23T14:48:07.000Z</time>
      </trkpt>
      <trkpt lat="43.3172" lon="-1.58782">
        <ele>107</ele>
        <time>2026-08-23T14:48:09.000Z</time>
      </trkpt>
      <trkpt lat="43.31696" lon="-1.58753">
        <ele>100</ele>
        <time>2026-08-23T14:48:14.000Z</time>
      </trkpt>
      <trkpt lat="43.31648" lon="-1.58716">
        <ele>92</ele>
        <time>2026-08-23T14:48:24.000Z</time>
      </trkpt>
      <trkpt lat="43.3163" lon="-1.58688">
        <ele>88</ele>
        <time>2026-08-23T14:48:29.000Z</time>
      </trkpt>
      <trkpt lat="43.31624" lon="-1.58666">
        <ele>85</ele>
        <time>2026-08-23T14:48:32.000Z</time>
      </trkpt>
      <trkpt lat="43.31621" lon="-1.58656">
        <ele>84</ele>
        <time>2026-08-23T14:48:33.000Z</time>
      </trkpt>
      <trkpt lat="43.31582" lon="-1.58483">
        <ele>72</ele>
        <time>2026-08-23T14:48:57.000Z</time>
      </trkpt>
      <trkpt lat="43.31558" lon="-1.58411">
        <ele>69</ele>
        <time>2026-08-23T14:49:07.000Z</time>
      </trkpt>
      <trkpt lat="43.31543" lon="-1.5839">
        <ele>67</ele>
        <time>2026-08-23T14:49:11.000Z</time>
      </trkpt>
      <trkpt lat="43.31506" lon="-1.58349">
        <ele>65</ele>
        <time>2026-08-23T14:49:19.000Z</time>
      </trkpt>
      <trkpt lat="43.31482" lon="-1.58323">
        <ele>63</ele>
        <time>2026-08-23T14:49:25.000Z</time>
      </trkpt>
      <trkpt lat="43.31472" lon="-1.58315">
        <ele>62</ele>
        <time>2026-08-23T14:49:27.000Z</time>
      </trkpt>
      <trkpt lat="43.31464" lon="-1.58313">
        <ele>62</ele>
        <time>2026-08-23T14:49:28.000Z</time>
      </trkpt>
      <trkpt lat="43.31459" lon="-1.58313">
        <ele>62</ele>
        <time>2026-08-23T14:49:29.000Z</time>
      </trkpt>
      <trkpt lat="43.31455" lon="-1.58311">
        <ele>61</ele>
        <time>2026-08-23T14:49:30.000Z</time>
      </trkpt>
      <trkpt lat="43.31452" lon="-1.58308">
        <ele>61</ele>
        <time>2026-08-23T14:49:30.000Z</time>
      </trkpt>
      <trkpt lat="43.31449" lon="-1.58305">
        <ele>61</ele>
        <time>2026-08-23T14:49:31.000Z</time>
      </trkpt>
      <trkpt lat="43.31448" lon="-1.58301">
        <ele>61</ele>
        <time>2026-08-23T14:49:32.000Z</time>
      </trkpt>
      <trkpt lat="43.31446" lon="-1.58295">
        <ele>61</ele>
        <time>2026-08-23T14:49:33.000Z</time>
      </trkpt>
      <trkpt lat="43.31446" lon="-1.5829">
        <ele>61</ele>
        <time>2026-08-23T14:49:33.000Z</time>
      </trkpt>
      <trkpt lat="43.31447" lon="-1.58284">
        <ele>61</ele>
        <time>2026-08-23T14:49:34.000Z</time>
      </trkpt>
      <trkpt lat="43.31449" lon="-1.58279">
        <ele>61</ele>
        <time>2026-08-23T14:49:35.000Z</time>
      </trkpt>
      <trkpt lat="43.31452" lon="-1.58275">
        <ele>61</ele>
        <time>2026-08-23T14:49:35.000Z</time>
      </trkpt>
      <trkpt lat="43.31455" lon="-1.58265">
        <ele>60</ele>
        <time>2026-08-23T14:49:37.000Z</time>
      </trkpt>
      <trkpt lat="43.31458" lon="-1.5825">
        <ele>60</ele>
        <time>2026-08-23T14:49:39.000Z</time>
      </trkpt>
      <trkpt lat="43.31456" lon="-1.58226">
        <ele>60</ele>
        <time>2026-08-23T14:49:42.000Z</time>
      </trkpt>
      <trkpt lat="43.31457" lon="-1.58188">
        <ele>59</ele>
        <time>2026-08-23T14:49:47.000Z</time>
      </trkpt>
      <trkpt lat="43.31462" lon="-1.58164">
        <ele>59</ele>
        <time>2026-08-23T14:49:50.000Z</time>
      </trkpt>
      <trkpt lat="43.31498" lon="-1.58066">
        <ele>57</ele>
        <time>2026-08-23T14:50:04.000Z</time>
      </trkpt>
      <trkpt lat="43.315" lon="-1.58057">
        <ele>56</ele>
        <time>2026-08-23T14:50:06.000Z</time>
      </trkpt>
      <trkpt lat="43.31503" lon="-1.58036">
        <ele>56</ele>
        <time>2026-08-23T14:50:08.000Z</time>
      </trkpt>
      <trkpt lat="43.31502" lon="-1.58012">
        <ele>55</ele>
        <time>2026-08-23T14:50:11.000Z</time>
      </trkpt>
      <trkpt lat="43.315" lon="-1.57997">
        <ele>55</ele>
        <time>2026-08-23T14:50:13.000Z</time>
      </trkpt>
      <trkpt lat="43.31496" lon="-1.5798">
        <ele>55</ele>
        <time>2026-08-23T14:50:16.000Z</time>
      </trkpt>
      <trkpt lat="43.31474" lon="-1.57899">
        <ele>58</ele>
        <time>2026-08-23T14:50:27.000Z</time>
      </trkpt>
      <trkpt lat="43.31454" lon="-1.57825">
        <ele>63</ele>
        <time>2026-08-23T14:50:37.000Z</time>
      </trkpt>
      <trkpt lat="43.3144" lon="-1.57773">
        <ele>61</ele>
        <time>2026-08-23T14:50:44.000Z</time>
      </trkpt>
      <trkpt lat="43.3141" lon="-1.57665">
        <ele>56</ele>
        <time>2026-08-23T14:50:59.000Z</time>
      </trkpt>
      <trkpt lat="43.31399" lon="-1.5763">
        <ele>55</ele>
        <time>2026-08-23T14:51:04.000Z</time>
      </trkpt>
      <trkpt lat="43.31382" lon="-1.5757">
        <ele>56</ele>
        <time>2026-08-23T14:51:13.000Z</time>
      </trkpt>
      <trkpt lat="43.31369" lon="-1.57529">
        <ele>55</ele>
        <time>2026-08-23T14:51:18.000Z</time>
      </trkpt>
      <trkpt lat="43.31359" lon="-1.57506">
        <ele>54</ele>
        <time>2026-08-23T14:51:22.000Z</time>
      </trkpt>
      <trkpt lat="43.31351" lon="-1.57496">
        <ele>53</ele>
        <time>2026-08-23T14:51:24.000Z</time>
      </trkpt>
      <trkpt lat="43.31333" lon="-1.57478">
        <ele>53</ele>
        <time>2026-08-23T14:51:28.000Z</time>
      </trkpt>
      <trkpt lat="43.31301" lon="-1.57456">
        <ele>54</ele>
        <time>2026-08-23T14:51:34.000Z</time>
      </trkpt>
      <trkpt lat="43.31256" lon="-1.57422">
        <ele>51</ele>
        <time>2026-08-23T14:51:43.000Z</time>
      </trkpt>
      <trkpt lat="43.31221" lon="-1.57392">
        <ele>51</ele>
        <time>2026-08-23T14:51:51.000Z</time>
      </trkpt>
      <trkpt lat="43.31158" lon="-1.57333">
        <ele>49</ele>
        <time>2026-08-23T14:52:04.000Z</time>
      </trkpt>
      <trkpt lat="43.31146" lon="-1.57322">
        <ele>48</ele>
        <time>2026-08-23T14:52:07.000Z</time>
      </trkpt>
      <trkpt lat="43.31101" lon="-1.57276">
        <ele>45</ele>
        <time>2026-08-23T14:52:17.000Z</time>
      </trkpt>
      <trkpt lat="43.31095" lon="-1.57271">
        <ele>45</ele>
        <time>2026-08-23T14:52:18.000Z</time>
      </trkpt>
      <trkpt lat="43.31078" lon="-1.57256">
        <ele>44</ele>
        <time>2026-08-23T14:52:22.000Z</time>
      </trkpt>
      <trkpt lat="43.3105" lon="-1.57243">
        <ele>46</ele>
        <time>2026-08-23T14:52:27.000Z</time>
      </trkpt>
      <trkpt lat="43.31017" lon="-1.57235">
        <ele>47</ele>
        <time>2026-08-23T14:52:33.000Z</time>
      </trkpt>
      <trkpt lat="43.31007" lon="-1.57234">
        <ele>48</ele>
        <time>2026-08-23T14:52:35.000Z</time>
      </trkpt>
      <trkpt lat="43.30976" lon="-1.5723">
        <ele>48</ele>
        <time>2026-08-23T14:52:40.000Z</time>
      </trkpt>
      <trkpt lat="43.30966" lon="-1.57231">
        <ele>47</ele>
        <time>2026-08-23T14:52:42.000Z</time>
      </trkpt>
      <trkpt lat="43.30963" lon="-1.57234">
        <ele>47</ele>
        <time>2026-08-23T14:52:43.000Z</time>
      </trkpt>
      <trkpt lat="43.30959" lon="-1.57235">
        <ele>47</ele>
        <time>2026-08-23T14:52:43.000Z</time>
      </trkpt>
      <trkpt lat="43.30956" lon="-1.57234">
        <ele>47</ele>
        <time>2026-08-23T14:52:44.000Z</time>
      </trkpt>
      <trkpt lat="43.30953" lon="-1.5723">
        <ele>47</ele>
        <time>2026-08-23T14:52:45.000Z</time>
      </trkpt>
      <trkpt lat="43.30952" lon="-1.57225">
        <ele>47</ele>
        <time>2026-08-23T14:52:45.000Z</time>
      </trkpt>
      <trkpt lat="43.30953" lon="-1.57219">
        <ele>47</ele>
        <time>2026-08-23T14:52:46.000Z</time>
      </trkpt>
      <trkpt lat="43.30955" lon="-1.57215">
        <ele>47</ele>
        <time>2026-08-23T14:52:47.000Z</time>
      </trkpt>
      <trkpt lat="43.30959" lon="-1.57213">
        <ele>47</ele>
        <time>2026-08-23T14:52:47.000Z</time>
      </trkpt>
      <trkpt lat="43.30968" lon="-1.57201">
        <ele>47</ele>
        <time>2026-08-23T14:52:50.000Z</time>
      </trkpt>
      <trkpt lat="43.30975" lon="-1.57181">
        <ele>47</ele>
        <time>2026-08-23T14:52:53.000Z</time>
      </trkpt>
      <trkpt lat="43.30984" lon="-1.57152">
        <ele>48</ele>
        <time>2026-08-23T14:52:57.000Z</time>
      </trkpt>
      <trkpt lat="43.30987" lon="-1.57138">
        <ele>48</ele>
        <time>2026-08-23T14:52:58.000Z</time>
      </trkpt>
      <trkpt lat="43.30988" lon="-1.57124">
        <ele>49</ele>
        <time>2026-08-23T14:53:00.000Z</time>
      </trkpt>
      <trkpt lat="43.30989" lon="-1.57097">
        <ele>49</ele>
        <time>2026-08-23T14:53:04.000Z</time>
      </trkpt>
      <trkpt lat="43.30988" lon="-1.57086">
        <ele>49</ele>
        <time>2026-08-23T14:53:05.000Z</time>
      </trkpt>
      <trkpt lat="43.30984" lon="-1.57075">
        <ele>50</ele>
        <time>2026-08-23T14:53:07.000Z</time>
      </trkpt>
      <trkpt lat="43.30952" lon="-1.57024">
        <ele>50</ele>
        <time>2026-08-23T14:53:16.000Z</time>
      </trkpt>
      <trkpt lat="43.30928" lon="-1.5696">
        <ele>51</ele>
        <time>2026-08-23T14:53:25.000Z</time>
      </trkpt>
      <trkpt lat="43.3092" lon="-1.56922">
        <ele>51</ele>
        <time>2026-08-23T14:53:30.000Z</time>
      </trkpt>
      <trkpt lat="43.30918" lon="-1.56896">
        <ele>51</ele>
        <time>2026-08-23T14:53:33.000Z</time>
      </trkpt>
      <trkpt lat="43.30918" lon="-1.56887">
        <ele>50</ele>
        <time>2026-08-23T14:53:35.000Z</time>
      </trkpt>
      <trkpt lat="43.3094" lon="-1.56798">
        <ele>49</ele>
        <time>2026-08-23T14:53:47.000Z</time>
      </trkpt>
      <trkpt lat="43.30947" lon="-1.56775">
        <ele>49</ele>
        <time>2026-08-23T14:53:50.000Z</time>
      </trkpt>
      <trkpt lat="43.30981" lon="-1.56719">
        <ele>50</ele>
        <time>2026-08-23T14:53:59.000Z</time>
      </trkpt>
      <trkpt lat="43.31027" lon="-1.56635">
        <ele>48</ele>
        <time>2026-08-23T14:54:13.000Z</time>
      </trkpt>
      <trkpt lat="43.31039" lon="-1.56619">
        <ele>47</ele>
        <time>2026-08-23T14:54:16.000Z</time>
      </trkpt>
      <trkpt lat="43.31046" lon="-1.56611">
        <ele>47</ele>
        <time>2026-08-23T14:54:18.000Z</time>
      </trkpt>
      <trkpt lat="43.31059" lon="-1.56599">
        <ele>47</ele>
        <time>2026-08-23T14:54:20.000Z</time>
      </trkpt>
      <trkpt lat="43.31073" lon="-1.5659">
        <ele>47</ele>
        <time>2026-08-23T14:54:23.000Z</time>
      </trkpt>
      <trkpt lat="43.31226" lon="-1.56498">
        <ele>47</ele>
        <time>2026-08-23T14:54:53.000Z</time>
      </trkpt>
      <trkpt lat="43.31245" lon="-1.56484">
        <ele>47</ele>
        <time>2026-08-23T14:54:57.000Z</time>
      </trkpt>
      <trkpt lat="43.31252" lon="-1.56476">
        <ele>47</ele>
        <time>2026-08-23T14:54:58.000Z</time>
      </trkpt>
      <trkpt lat="43.31259" lon="-1.56468">
        <ele>47</ele>
        <time>2026-08-23T14:55:00.000Z</time>
      </trkpt>
      <trkpt lat="43.31305" lon="-1.56386">
        <ele>46</ele>
        <time>2026-08-23T14:55:13.000Z</time>
      </trkpt>
      <trkpt lat="43.31316" lon="-1.56371">
        <ele>45</ele>
        <time>2026-08-23T14:55:16.000Z</time>
      </trkpt>
      <trkpt lat="43.31331" lon="-1.56357">
        <ele>44</ele>
        <time>2026-08-23T14:55:19.000Z</time>
      </trkpt>
      <trkpt lat="43.31391" lon="-1.56308">
        <ele>44</ele>
        <time>2026-08-23T14:55:32.000Z</time>
      </trkpt>
      <trkpt lat="43.31401" lon="-1.56299">
        <ele>44</ele>
        <time>2026-08-23T14:55:34.000Z</time>
      </trkpt>
      <trkpt lat="43.31417" lon="-1.56278">
        <ele>44</ele>
        <time>2026-08-23T14:55:38.000Z</time>
      </trkpt>
      <trkpt lat="43.31427" lon="-1.56257">
        <ele>44</ele>
        <time>2026-08-23T14:55:41.000Z</time>
      </trkpt>
      <trkpt lat="43.31433" lon="-1.56246">
        <ele>44</ele>
        <time>2026-08-23T14:55:43.000Z</time>
      </trkpt>
      <trkpt lat="43.31442" lon="-1.5622">
        <ele>45</ele>
        <time>2026-08-23T14:55:47.000Z</time>
      </trkpt>
      <trkpt lat="43.31448" lon="-1.56194">
        <ele>46</ele>
        <time>2026-08-23T14:55:50.000Z</time>
      </trkpt>
      <trkpt lat="43.31458" lon="-1.56134">
        <ele>46</ele>
        <time>2026-08-23T14:55:58.000Z</time>
      </trkpt>
      <trkpt lat="43.31465" lon="-1.56118">
        <ele>46</ele>
        <time>2026-08-23T14:56:00.000Z</time>
      </trkpt>
      <trkpt lat="43.31473" lon="-1.56109">
        <ele>47</ele>
        <time>2026-08-23T14:56:02.000Z</time>
      </trkpt>
      <trkpt lat="43.31481" lon="-1.56106">
        <ele>47</ele>
        <time>2026-08-23T14:56:04.000Z</time>
      </trkpt>
      <trkpt lat="43.31492" lon="-1.56109">
        <ele>48</ele>
        <time>2026-08-23T14:56:06.000Z</time>
      </trkpt>
      <trkpt lat="43.31553" lon="-1.56153">
        <ele>52</ele>
        <time>2026-08-23T14:56:18.000Z</time>
      </trkpt>
      <trkpt lat="43.31567" lon="-1.56157">
        <ele>53</ele>
        <time>2026-08-23T14:56:21.000Z</time>
      </trkpt>
      <trkpt lat="43.31582" lon="-1.56156">
        <ele>53</ele>
        <time>2026-08-23T14:56:23.000Z</time>
      </trkpt>
      <trkpt lat="43.3159" lon="-1.56152">
        <ele>53</ele>
        <time>2026-08-23T14:56:25.000Z</time>
      </trkpt>
      <trkpt lat="43.31606" lon="-1.5614">
        <ele>54</ele>
        <time>2026-08-23T14:56:28.000Z</time>
      </trkpt>
      <trkpt lat="43.31624" lon="-1.56121">
        <ele>55</ele>
        <time>2026-08-23T14:56:32.000Z</time>
      </trkpt>
      <trkpt lat="43.31662" lon="-1.56079">
        <ele>57</ele>
        <time>2026-08-23T14:56:41.000Z</time>
      </trkpt>
      <trkpt lat="43.317" lon="-1.56038">
        <ele>55</ele>
        <time>2026-08-23T14:56:49.000Z</time>
      </trkpt>
      <trkpt lat="43.31735" lon="-1.56002">
        <ele>53</ele>
        <time>2026-08-23T14:56:57.000Z</time>
      </trkpt>
      <trkpt lat="43.31745" lon="-1.55991">
        <ele>53</ele>
        <time>2026-08-23T14:56:59.000Z</time>
      </trkpt>
      <trkpt lat="43.31754" lon="-1.55974">
        <ele>52</ele>
        <time>2026-08-23T14:57:02.000Z</time>
      </trkpt>
      <trkpt lat="43.31763" lon="-1.55933">
        <ele>51</ele>
        <time>2026-08-23T14:57:08.000Z</time>
      </trkpt>
      <trkpt lat="43.3177" lon="-1.55915">
        <ele>50</ele>
        <time>2026-08-23T14:57:10.000Z</time>
      </trkpt>
      <trkpt lat="43.31791" lon="-1.55887">
        <ele>50</ele>
        <time>2026-08-23T14:57:15.000Z</time>
      </trkpt>
      <trkpt lat="43.31795" lon="-1.5588">
        <ele>50</ele>
        <time>2026-08-23T14:57:17.000Z</time>
      </trkpt>
      <trkpt lat="43.31803" lon="-1.55869">
        <ele>49</ele>
        <time>2026-08-23T14:57:19.000Z</time>
      </trkpt>
      <trkpt lat="43.31861" lon="-1.55769">
        <ele>46</ele>
        <time>2026-08-23T14:57:35.000Z</time>
      </trkpt>
      <trkpt lat="43.31864" lon="-1.55764">
        <ele>46</ele>
        <time>2026-08-23T14:57:36.000Z</time>
      </trkpt>
      <trkpt lat="43.31872" lon="-1.55753">
        <ele>45</ele>
        <time>2026-08-23T14:57:38.000Z</time>
      </trkpt>
      <trkpt lat="43.31879" lon="-1.55743">
        <ele>45</ele>
        <time>2026-08-23T14:57:40.000Z</time>
      </trkpt>
      <trkpt lat="43.31904" lon="-1.5571">
        <ele>44</ele>
        <time>2026-08-23T14:57:46.000Z</time>
      </trkpt>
      <trkpt lat="43.3192" lon="-1.55689">
        <ele>43</ele>
        <time>2026-08-23T14:57:50.000Z</time>
      </trkpt>
      <trkpt lat="43.31935" lon="-1.55665">
        <ele>41</ele>
        <time>2026-08-23T14:57:54.000Z</time>
      </trkpt>
      <trkpt lat="43.31941" lon="-1.55653">
        <ele>41</ele>
        <time>2026-08-23T14:57:56.000Z</time>
      </trkpt>
      <trkpt lat="43.31945" lon="-1.55643">
        <ele>40</ele>
        <time>2026-08-23T14:57:57.000Z</time>
      </trkpt>
      <trkpt lat="43.31962" lon="-1.55573">
        <ele>37</ele>
        <time>2026-08-23T14:58:07.000Z</time>
      </trkpt>
      <trkpt lat="43.31993" lon="-1.55427">
        <ele>35</ele>
        <time>2026-08-23T14:58:27.000Z</time>
      </trkpt>
      <trkpt lat="43.32003" lon="-1.55401">
        <ele>35</ele>
        <time>2026-08-23T14:58:30.000Z</time>
      </trkpt>
      <trkpt lat="43.32012" lon="-1.5539">
        <ele>35</ele>
        <time>2026-08-23T14:58:33.000Z</time>
      </trkpt>
      <trkpt lat="43.3203" lon="-1.55373">
        <ele>34</ele>
        <time>2026-08-23T14:58:36.000Z</time>
      </trkpt>
      <trkpt lat="43.32044" lon="-1.5536">
        <ele>34</ele>
        <time>2026-08-23T14:58:39.000Z</time>
      </trkpt>
      <trkpt lat="43.32064" lon="-1.55338">
        <ele>34</ele>
        <time>2026-08-23T14:58:44.000Z</time>
      </trkpt>
      <trkpt lat="43.32078" lon="-1.55312">
        <ele>33</ele>
        <time>2026-08-23T14:58:48.000Z</time>
      </trkpt>
      <trkpt lat="43.32085" lon="-1.55294">
        <ele>33</ele>
        <time>2026-08-23T14:58:51.000Z</time>
      </trkpt>
      <trkpt lat="43.32091" lon="-1.55274">
        <ele>33</ele>
        <time>2026-08-23T14:58:54.000Z</time>
      </trkpt>
      <trkpt lat="43.3214" lon="-1.55075">
        <ele>32</ele>
        <time>2026-08-23T14:59:21.000Z</time>
      </trkpt>
      <trkpt lat="43.3215" lon="-1.55051">
        <ele>31</ele>
        <time>2026-08-23T14:59:24.000Z</time>
      </trkpt>
      <trkpt lat="43.32152" lon="-1.55048">
        <ele>31</ele>
        <time>2026-08-23T14:59:25.000Z</time>
      </trkpt>
      <trkpt lat="43.32156" lon="-1.55044">
        <ele>31</ele>
        <time>2026-08-23T14:59:26.000Z</time>
      </trkpt>
      <trkpt lat="43.32183" lon="-1.55023">
        <ele>30</ele>
        <time>2026-08-23T14:59:31.000Z</time>
      </trkpt>
      <trkpt lat="43.32245" lon="-1.54992">
        <ele>30</ele>
        <time>2026-08-23T14:59:43.000Z</time>
      </trkpt>
      <trkpt lat="43.32324" lon="-1.54956">
        <ele>30</ele>
        <time>2026-08-23T14:59:58.000Z</time>
      </trkpt>
      <trkpt lat="43.32378" lon="-1.54933">
        <ele>32</ele>
        <time>2026-08-23T15:00:08.000Z</time>
      </trkpt>
      <trkpt lat="43.32414" lon="-1.54918">
        <ele>32</ele>
        <time>2026-08-23T15:00:15.000Z</time>
      </trkpt>
      <trkpt lat="43.32445" lon="-1.54904">
        <ele>34</ele>
        <time>2026-08-23T15:00:20.000Z</time>
      </trkpt>
      <trkpt lat="43.32463" lon="-1.54893">
        <ele>34</ele>
        <time>2026-08-23T15:00:24.000Z</time>
      </trkpt>
      <trkpt lat="43.32482" lon="-1.54878">
        <ele>34</ele>
        <time>2026-08-23T15:00:28.000Z</time>
      </trkpt>
      <trkpt lat="43.32564" lon="-1.54806">
        <ele>36</ele>
        <time>2026-08-23T15:00:45.000Z</time>
      </trkpt>
      <trkpt lat="43.32608" lon="-1.54762">
        <ele>35</ele>
        <time>2026-08-23T15:00:55.000Z</time>
      </trkpt>
      <trkpt lat="43.32637" lon="-1.54734">
        <ele>35</ele>
        <time>2026-08-23T15:01:01.000Z</time>
      </trkpt>
      <trkpt lat="43.32679" lon="-1.54692">
        <ele>37</ele>
        <time>2026-08-23T15:01:10.000Z</time>
      </trkpt>
      <trkpt lat="43.32846" lon="-1.54527">
        <ele>37</ele>
        <time>2026-08-23T15:01:47.000Z</time>
      </trkpt>
      <trkpt lat="43.32876" lon="-1.54504">
        <ele>34</ele>
        <time>2026-08-23T15:01:53.000Z</time>
      </trkpt>
      <trkpt lat="43.32897" lon="-1.54492">
        <ele>33</ele>
        <time>2026-08-23T15:01:57.000Z</time>
      </trkpt>
      <trkpt lat="43.32935" lon="-1.54467">
        <ele>32</ele>
        <time>2026-08-23T15:02:05.000Z</time>
      </trkpt>
      <trkpt lat="43.32973" lon="-1.54445">
        <ele>31</ele>
        <time>2026-08-23T15:02:12.000Z</time>
      </trkpt>
      <trkpt lat="43.32992" lon="-1.54437">
        <ele>31</ele>
        <time>2026-08-23T15:02:16.000Z</time>
      </trkpt>
      <trkpt lat="43.33014" lon="-1.54435">
        <ele>31</ele>
        <time>2026-08-23T15:02:19.000Z</time>
      </trkpt>
      <trkpt lat="43.33024" lon="-1.54438">
        <ele>31</ele>
        <time>2026-08-23T15:02:21.000Z</time>
      </trkpt>
      <trkpt lat="43.33034" lon="-1.54441">
        <ele>31</ele>
        <time>2026-08-23T15:02:23.000Z</time>
      </trkpt>
      <trkpt lat="43.33043" lon="-1.54445">
        <ele>32</ele>
        <time>2026-08-23T15:02:25.000Z</time>
      </trkpt>
      <trkpt lat="43.33061" lon="-1.54459">
        <ele>32</ele>
        <time>2026-08-23T15:02:28.000Z</time>
      </trkpt>
      <trkpt lat="43.3308" lon="-1.54478">
        <ele>32</ele>
        <time>2026-08-23T15:02:33.000Z</time>
      </trkpt>
      <trkpt lat="43.331" lon="-1.54501">
        <ele>33</ele>
        <time>2026-08-23T15:02:37.000Z</time>
      </trkpt>
      <trkpt lat="43.33131" lon="-1.54538">
        <ele>34</ele>
        <time>2026-08-23T15:02:45.000Z</time>
      </trkpt>
      <trkpt lat="43.33146" lon="-1.54555">
        <ele>34</ele>
        <time>2026-08-23T15:02:48.000Z</time>
      </trkpt>
      <trkpt lat="43.3317" lon="-1.54594">
        <ele>35</ele>
        <time>2026-08-23T15:02:55.000Z</time>
      </trkpt>
      <trkpt lat="43.33195" lon="-1.54663">
        <ele>37</ele>
        <time>2026-08-23T15:03:05.000Z</time>
      </trkpt>
      <trkpt lat="43.332" lon="-1.54673">
        <ele>38</ele>
        <time>2026-08-23T15:03:06.000Z</time>
      </trkpt>
      <trkpt lat="43.3321" lon="-1.54694">
        <ele>39</ele>
        <time>2026-08-23T15:03:09.000Z</time>
      </trkpt>
      <trkpt lat="43.33231" lon="-1.54721">
        <ele>41</ele>
        <time>2026-08-23T15:03:15.000Z</time>
      </trkpt>
      <trkpt lat="43.33316" lon="-1.54798">
        <ele>42</ele>
        <time>2026-08-23T15:03:33.000Z</time>
      </trkpt>
      <trkpt lat="43.33342" lon="-1.5481">
        <ele>40</ele>
        <time>2026-08-23T15:03:38.000Z</time>
      </trkpt>
      <trkpt lat="43.33397" lon="-1.54823">
        <ele>36</ele>
        <time>2026-08-23T15:03:48.000Z</time>
      </trkpt>
      <trkpt lat="43.33451" lon="-1.54835">
        <ele>35</ele>
        <time>2026-08-23T15:03:57.000Z</time>
      </trkpt>
      <trkpt lat="43.33477" lon="-1.54844">
        <ele>35</ele>
        <time>2026-08-23T15:04:02.000Z</time>
      </trkpt>
      <trkpt lat="43.33499" lon="-1.54853">
        <ele>35</ele>
        <time>2026-08-23T15:04:06.000Z</time>
      </trkpt>
      <trkpt lat="43.33506" lon="-1.54856">
        <ele>36</ele>
        <time>2026-08-23T15:04:07.000Z</time>
      </trkpt>
      <trkpt lat="43.33528" lon="-1.54864">
        <ele>36</ele>
        <time>2026-08-23T15:04:11.000Z</time>
      </trkpt>
      <trkpt lat="43.33531" lon="-1.54866">
        <ele>36</ele>
        <time>2026-08-23T15:04:12.000Z</time>
      </trkpt>
      <trkpt lat="43.33544" lon="-1.54872">
        <ele>36</ele>
        <time>2026-08-23T15:04:14.000Z</time>
      </trkpt>
      <trkpt lat="43.33558" lon="-1.54878">
        <ele>37</ele>
        <time>2026-08-23T15:04:17.000Z</time>
      </trkpt>
      <trkpt lat="43.33606" lon="-1.54902">
        <ele>38</ele>
        <time>2026-08-23T15:04:26.000Z</time>
      </trkpt>
      <trkpt lat="43.33612" lon="-1.54904">
        <ele>37</ele>
        <time>2026-08-23T15:04:27.000Z</time>
      </trkpt>
      <trkpt lat="43.33689" lon="-1.54934">
        <ele>34</ele>
        <time>2026-08-23T15:04:42.000Z</time>
      </trkpt>
      <trkpt lat="43.33855" lon="-1.5503">
        <ele>39</ele>
        <time>2026-08-23T15:05:14.000Z</time>
      </trkpt>
      <trkpt lat="43.33886" lon="-1.55044">
        <ele>42</ele>
        <time>2026-08-23T15:05:19.000Z</time>
      </trkpt>
      <trkpt lat="43.33903" lon="-1.55043">
        <ele>44</ele>
        <time>2026-08-23T15:05:22.000Z</time>
      </trkpt>
      <trkpt lat="43.33917" lon="-1.55038">
        <ele>45</ele>
        <time>2026-08-23T15:05:25.000Z</time>
      </trkpt>
      <trkpt lat="43.33939" lon="-1.55026">
        <ele>44</ele>
        <time>2026-08-23T15:05:29.000Z</time>
      </trkpt>
      <trkpt lat="43.33954" lon="-1.55017">
        <ele>43</ele>
        <time>2026-08-23T15:05:32.000Z</time>
      </trkpt>
      <trkpt lat="43.3396" lon="-1.55028">
        <ele>44</ele>
        <time>2026-08-23T15:05:34.000Z</time>
      </trkpt>
      <trkpt lat="43.33972" lon="-1.55032">
        <ele>45</ele>
        <time>2026-08-23T15:05:36.000Z</time>
      </trkpt>
      <trkpt lat="43.33993" lon="-1.55032">
        <ele>45</ele>
        <time>2026-08-23T15:05:40.000Z</time>
      </trkpt>
      <trkpt lat="43.34" lon="-1.55029">
        <ele>45</ele>
        <time>2026-08-23T15:05:41.000Z</time>
      </trkpt>
      <trkpt lat="43.34066" lon="-1.55027">
        <ele>47</ele>
        <time>2026-08-23T15:05:53.000Z</time>
      </trkpt>
      <trkpt lat="43.34104" lon="-1.55012">
        <ele>46</ele>
        <time>2026-08-23T15:06:00.000Z</time>
      </trkpt>
      <trkpt lat="43.34119" lon="-1.5501">
        <ele>46</ele>
        <time>2026-08-23T15:06:03.000Z</time>
      </trkpt>
      <trkpt lat="43.3415" lon="-1.55008">
        <ele>45</ele>
        <time>2026-08-23T15:06:08.000Z</time>
      </trkpt>
      <trkpt lat="43.34215" lon="-1.55017">
        <ele>43</ele>
        <time>2026-08-23T15:06:20.000Z</time>
      </trkpt>
      <trkpt lat="43.34263" lon="-1.55017">
        <ele>39</ele>
        <time>2026-08-23T15:06:28.000Z</time>
      </trkpt>
      <trkpt lat="43.34287" lon="-1.54977">
        <ele>35</ele>
        <time>2026-08-23T15:06:35.000Z</time>
      </trkpt>
      <trkpt lat="43.34302" lon="-1.54971">
        <ele>33</ele>
        <time>2026-08-23T15:06:38.000Z</time>
      </trkpt>
      <trkpt lat="43.34311" lon="-1.54974">
        <ele>33</ele>
        <time>2026-08-23T15:06:39.000Z</time>
      </trkpt>
      <trkpt lat="43.34322" lon="-1.54982">
        <ele>31</ele>
        <time>2026-08-23T15:06:42.000Z</time>
      </trkpt>
      <trkpt lat="43.3435" lon="-1.55017">
        <ele>28</ele>
        <time>2026-08-23T15:06:48.000Z</time>
      </trkpt>
      <trkpt lat="43.3436" lon="-1.55024">
        <ele>27</ele>
        <time>2026-08-23T15:06:50.000Z</time>
      </trkpt>
      <trkpt lat="43.34374" lon="-1.55027">
        <ele>26</ele>
        <time>2026-08-23T15:06:53.000Z</time>
      </trkpt>
      <trkpt lat="43.34407" lon="-1.55026">
        <ele>23</ele>
        <time>2026-08-23T15:06:59.000Z</time>
      </trkpt>
      <trkpt lat="43.34419" lon="-1.55018">
        <ele>22</ele>
        <time>2026-08-23T15:07:01.000Z</time>
      </trkpt>
      <trkpt lat="43.34427" lon="-1.55029">
        <ele>23</ele>
        <time>2026-08-23T15:07:03.000Z</time>
      </trkpt>
      <trkpt lat="43.34446" lon="-1.55055">
        <ele>23</ele>
        <time>2026-08-23T15:07:08.000Z</time>
      </trkpt>
      <trkpt lat="43.3449" lon="-1.55114">
        <ele>22</ele>
        <time>2026-08-23T15:07:19.000Z</time>
      </trkpt>
      <trkpt lat="43.34548" lon="-1.55189">
        <ele>20</ele>
        <time>2026-08-23T15:07:33.000Z</time>
      </trkpt>
      <trkpt lat="43.34561" lon="-1.55198">
        <ele>20</ele>
        <time>2026-08-23T15:07:36.000Z</time>
      </trkpt>
      <trkpt lat="43.34571" lon="-1.55205">
        <ele>19</ele>
        <time>2026-08-23T15:07:38.000Z</time>
      </trkpt>
      <trkpt lat="43.34597" lon="-1.55214">
        <ele>19</ele>
        <time>2026-08-23T15:07:42.000Z</time>
      </trkpt>
      <trkpt lat="43.3463" lon="-1.55218">
        <ele>19</ele>
        <time>2026-08-23T15:07:48.000Z</time>
      </trkpt>
      <trkpt lat="43.34801" lon="-1.55235">
        <ele>19</ele>
        <time>2026-08-23T15:08:19.000Z</time>
      </trkpt>
      <trkpt lat="43.34821" lon="-1.55247">
        <ele>18</ele>
        <time>2026-08-23T15:08:23.000Z</time>
      </trkpt>
      <trkpt lat="43.34831" lon="-1.55248">
        <ele>18</ele>
        <time>2026-08-23T15:08:24.000Z</time>
      </trkpt>
      <trkpt lat="43.34847" lon="-1.55243">
        <ele>18</ele>
        <time>2026-08-23T15:08:27.000Z</time>
      </trkpt>
      <trkpt lat="43.34857" lon="-1.5523">
        <ele>19</ele>
        <time>2026-08-23T15:08:30.000Z</time>
      </trkpt>
      <trkpt lat="43.34859" lon="-1.55222">
        <ele>19</ele>
        <time>2026-08-23T15:08:31.000Z</time>
      </trkpt>
      <trkpt lat="43.34865" lon="-1.55186">
        <ele>20</ele>
        <time>2026-08-23T15:08:36.000Z</time>
      </trkpt>
      <trkpt lat="43.34869" lon="-1.55177">
        <ele>20</ele>
        <time>2026-08-23T15:08:37.000Z</time>
      </trkpt>
      <trkpt lat="43.34874" lon="-1.55162">
        <ele>21</ele>
        <time>2026-08-23T15:08:39.000Z</time>
      </trkpt>
      <trkpt lat="43.35004" lon="-1.55055">
        <ele>22</ele>
        <time>2026-08-23T15:09:06.000Z</time>
      </trkpt>
      <trkpt lat="43.35056" lon="-1.55009">
        <ele>20</ele>
        <time>2026-08-23T15:09:17.000Z</time>
      </trkpt>
      <trkpt lat="43.35078" lon="-1.54991">
        <ele>19</ele>
        <time>2026-08-23T15:09:22.000Z</time>
      </trkpt>
      <trkpt lat="43.35085" lon="-1.54978">
        <ele>19</ele>
        <time>2026-08-23T15:09:24.000Z</time>
      </trkpt>
      <trkpt lat="43.3509" lon="-1.54968">
        <ele>19</ele>
        <time>2026-08-23T15:09:25.000Z</time>
      </trkpt>
      <trkpt lat="43.3509" lon="-1.54959">
        <ele>19</ele>
        <time>2026-08-23T15:09:26.000Z</time>
      </trkpt>
      <trkpt lat="43.35092" lon="-1.54951">
        <ele>19</ele>
        <time>2026-08-23T15:09:28.000Z</time>
      </trkpt>
      <trkpt lat="43.35095" lon="-1.54944">
        <ele>19</ele>
        <time>2026-08-23T15:09:29.000Z</time>
      </trkpt>
      <trkpt lat="43.351" lon="-1.54938">
        <ele>19</ele>
        <time>2026-08-23T15:09:30.000Z</time>
      </trkpt>
      <trkpt lat="43.35106" lon="-1.54935">
        <ele>19</ele>
        <time>2026-08-23T15:09:31.000Z</time>
      </trkpt>
      <trkpt lat="43.35113" lon="-1.54934">
        <ele>19</ele>
        <time>2026-08-23T15:09:32.000Z</time>
      </trkpt>
      <trkpt lat="43.3512" lon="-1.54937">
        <ele>19</ele>
        <time>2026-08-23T15:09:34.000Z</time>
      </trkpt>
      <trkpt lat="43.35125" lon="-1.54942">
        <ele>19</ele>
        <time>2026-08-23T15:09:35.000Z</time>
      </trkpt>
      <trkpt lat="43.35129" lon="-1.54948">
        <ele>18</ele>
        <time>2026-08-23T15:09:36.000Z</time>
      </trkpt>
      <trkpt lat="43.35132" lon="-1.54956">
        <ele>18</ele>
        <time>2026-08-23T15:09:37.000Z</time>
      </trkpt>
      <trkpt lat="43.35133" lon="-1.54964">
        <ele>18</ele>
        <time>2026-08-23T15:09:38.000Z</time>
      </trkpt>
      <trkpt lat="43.35132" lon="-1.54974">
        <ele>18</ele>
        <time>2026-08-23T15:09:39.000Z</time>
      </trkpt>
      <trkpt lat="43.35128" lon="-1.54983">
        <ele>18</ele>
        <time>2026-08-23T15:09:41.000Z</time>
      </trkpt>
      <trkpt lat="43.35123" lon="-1.5499">
        <ele>18</ele>
        <time>2026-08-23T15:09:42.000Z</time>
      </trkpt>
      <trkpt lat="43.35126" lon="-1.54997">
        <ele>18</ele>
        <time>2026-08-23T15:09:43.000Z</time>
      </trkpt>
      <trkpt lat="43.35174" lon="-1.55105">
        <ele>16</ele>
        <time>2026-08-23T15:09:59.000Z</time>
      </trkpt>
      <trkpt lat="43.35211" lon="-1.55188">
        <ele>16</ele>
        <time>2026-08-23T15:10:12.000Z</time>
      </trkpt>
      <trkpt lat="43.35241" lon="-1.55255">
        <ele>17</ele>
        <time>2026-08-23T15:10:22.000Z</time>
      </trkpt>
      <trkpt lat="43.35261" lon="-1.55301">
        <ele>17</ele>
        <time>2026-08-23T15:10:29.000Z</time>
      </trkpt>
      <trkpt lat="43.35274" lon="-1.55324">
        <ele>18</ele>
        <time>2026-08-23T15:10:33.000Z</time>
      </trkpt>
      <trkpt lat="43.35293" lon="-1.55347">
        <ele>17</ele>
        <time>2026-08-23T15:10:37.000Z</time>
      </trkpt>
      <trkpt lat="43.35313" lon="-1.55363">
        <ele>17</ele>
        <time>2026-08-23T15:10:41.000Z</time>
      </trkpt>
      <trkpt lat="43.35338" lon="-1.55377">
        <ele>16</ele>
        <time>2026-08-23T15:10:46.000Z</time>
      </trkpt>
      <trkpt lat="43.35369" lon="-1.55382">
        <ele>16</ele>
        <time>2026-08-23T15:10:52.000Z</time>
      </trkpt>
      <trkpt lat="43.35398" lon="-1.5538">
        <ele>16</ele>
        <time>2026-08-23T15:10:57.000Z</time>
      </trkpt>
      <trkpt lat="43.35456" lon="-1.55371">
        <ele>16</ele>
        <time>2026-08-23T15:11:07.000Z</time>
      </trkpt>
      <trkpt lat="43.35483" lon="-1.5537">
        <ele>16</ele>
        <time>2026-08-23T15:11:12.000Z</time>
      </trkpt>
      <trkpt lat="43.35496" lon="-1.55373">
        <ele>16</ele>
        <time>2026-08-23T15:11:14.000Z</time>
      </trkpt>
      <trkpt lat="43.35509" lon="-1.55378">
        <ele>16</ele>
        <time>2026-08-23T15:11:17.000Z</time>
      </trkpt>
      <trkpt lat="43.35523" lon="-1.55388">
        <ele>16</ele>
        <time>2026-08-23T15:11:20.000Z</time>
      </trkpt>
      <trkpt lat="43.35533" lon="-1.55391">
        <ele>16</ele>
        <time>2026-08-23T15:11:21.000Z</time>
      </trkpt>
      <trkpt lat="43.35548" lon="-1.55396">
        <ele>16</ele>
        <time>2026-08-23T15:11:24.000Z</time>
      </trkpt>
      <trkpt lat="43.3555" lon="-1.55395">
        <ele>16</ele>
        <time>2026-08-23T15:11:25.000Z</time>
      </trkpt>
      <trkpt lat="43.35554" lon="-1.55395">
        <ele>16</ele>
        <time>2026-08-23T15:11:25.000Z</time>
      </trkpt>
      <trkpt lat="43.35557" lon="-1.55397">
        <ele>16</ele>
        <time>2026-08-23T15:11:26.000Z</time>
      </trkpt>
      <trkpt lat="43.35561" lon="-1.554">
        <ele>16</ele>
        <time>2026-08-23T15:11:27.000Z</time>
      </trkpt>
      <trkpt lat="43.35563" lon="-1.55404">
        <ele>16</ele>
        <time>2026-08-23T15:11:27.000Z</time>
      </trkpt>
      <trkpt lat="43.35565" lon="-1.55414">
        <ele>16</ele>
        <time>2026-08-23T15:11:29.000Z</time>
      </trkpt>
      <trkpt lat="43.35565" lon="-1.55416">
        <ele>16</ele>
        <time>2026-08-23T15:11:29.000Z</time>
      </trkpt>
      <trkpt lat="43.35565" lon="-1.55419">
        <ele>16</ele>
        <time>2026-08-23T15:11:29.000Z</time>
      </trkpt>
      <trkpt lat="43.35564" lon="-1.55422">
        <ele>16</ele>
        <time>2026-08-23T15:11:30.000Z</time>
      </trkpt>
      <trkpt lat="43.35574" lon="-1.55455">
        <ele>15</ele>
        <time>2026-08-23T15:11:34.000Z</time>
      </trkpt>
      <trkpt lat="43.35574" lon="-1.55465">
        <ele>14</ele>
        <time>2026-08-23T15:11:36.000Z</time>
      </trkpt>
      <trkpt lat="43.35577" lon="-1.55474">
        <ele>14</ele>
        <time>2026-08-23T15:11:37.000Z</time>
      </trkpt>
      <trkpt lat="43.35581" lon="-1.55514">
        <ele>13</ele>
        <time>2026-08-23T15:11:42.000Z</time>
      </trkpt>
      <trkpt lat="43.35585" lon="-1.55731">
        <ele>16</ele>
        <time>2026-08-23T15:12:10.000Z</time>
      </trkpt>
      <trkpt lat="43.35588" lon="-1.55791">
        <ele>16</ele>
        <time>2026-08-23T15:12:18.000Z</time>
      </trkpt>
      <trkpt lat="43.35592" lon="-1.55814">
        <ele>15</ele>
        <time>2026-08-23T15:12:21.000Z</time>
      </trkpt>
      <trkpt lat="43.35606" lon="-1.55857">
        <ele>15</ele>
        <time>2026-08-23T15:12:27.000Z</time>
      </trkpt>
      <trkpt lat="43.35632" lon="-1.55899">
        <ele>15</ele>
        <time>2026-08-23T15:12:34.000Z</time>
      </trkpt>
      <trkpt lat="43.35646" lon="-1.55913">
        <ele>16</ele>
        <time>2026-08-23T15:12:37.000Z</time>
      </trkpt>
      <trkpt lat="43.35682" lon="-1.55941">
        <ele>16</ele>
        <time>2026-08-23T15:12:45.000Z</time>
      </trkpt>
      <trkpt lat="43.35718" lon="-1.5597">
        <ele>16</ele>
        <time>2026-08-23T15:12:52.000Z</time>
      </trkpt>
      <trkpt lat="43.3573" lon="-1.55977">
        <ele>17</ele>
        <time>2026-08-23T15:12:54.000Z</time>
      </trkpt>
      <trkpt lat="43.35741" lon="-1.55983">
        <ele>17</ele>
        <time>2026-08-23T15:12:57.000Z</time>
      </trkpt>
      <trkpt lat="43.35745" lon="-1.55978">
        <ele>17</ele>
        <time>2026-08-23T15:12:58.000Z</time>
      </trkpt>
      <trkpt lat="43.35751" lon="-1.55976">
        <ele>17</ele>
        <time>2026-08-23T15:12:59.000Z</time>
      </trkpt>
      <trkpt lat="43.35756" lon="-1.55977">
        <ele>17</ele>
        <time>2026-08-23T15:13:00.000Z</time>
      </trkpt>
      <trkpt lat="43.35762" lon="-1.55982">
        <ele>18</ele>
        <time>2026-08-23T15:13:01.000Z</time>
      </trkpt>
      <trkpt lat="43.35766" lon="-1.55989">
        <ele>18</ele>
        <time>2026-08-23T15:13:02.000Z</time>
      </trkpt>
      <trkpt lat="43.35767" lon="-1.55997">
        <ele>18</ele>
        <time>2026-08-23T15:13:03.000Z</time>
      </trkpt>
      <trkpt lat="43.35764" lon="-1.56008">
        <ele>19</ele>
        <time>2026-08-23T15:13:05.000Z</time>
      </trkpt>
      <trkpt lat="43.3576" lon="-1.56015">
        <ele>19</ele>
        <time>2026-08-23T15:13:06.000Z</time>
      </trkpt>
      <trkpt lat="43.35753" lon="-1.56017">
        <ele>19</ele>
        <time>2026-08-23T15:13:07.000Z</time>
      </trkpt>
      <trkpt lat="43.35747" lon="-1.56016">
        <ele>19</ele>
        <time>2026-08-23T15:13:08.000Z</time>
      </trkpt>
      <trkpt lat="43.35721" lon="-1.56041">
        <ele>19</ele>
        <time>2026-08-23T15:13:14.000Z</time>
      </trkpt>
      <trkpt lat="43.35652" lon="-1.56086">
        <ele>18</ele>
        <time>2026-08-23T15:13:27.000Z</time>
      </trkpt>
      <trkpt lat="43.35635" lon="-1.56106">
        <ele>18</ele>
        <time>2026-08-23T15:13:31.000Z</time>
      </trkpt>
      <trkpt lat="43.35625" lon="-1.56126">
        <ele>18</ele>
        <time>2026-08-23T15:13:34.000Z</time>
      </trkpt>
      <trkpt lat="43.35623" lon="-1.56133">
        <ele>18</ele>
        <time>2026-08-23T15:13:35.000Z</time>
      </trkpt>
      <trkpt lat="43.35617" lon="-1.5617">
        <ele>19</ele>
        <time>2026-08-23T15:13:40.000Z</time>
      </trkpt>
      <trkpt lat="43.35615" lon="-1.56214">
        <ele>19</ele>
        <time>2026-08-23T15:13:46.000Z</time>
      </trkpt>
      <trkpt lat="43.35622" lon="-1.56509">
        <ele>19</ele>
        <time>2026-08-23T15:14:24.000Z</time>
      </trkpt>
      <trkpt lat="43.35622" lon="-1.56558">
        <ele>19</ele>
        <time>2026-08-23T15:14:30.000Z</time>
      </trkpt>
      <trkpt lat="43.35624" lon="-1.56587">
        <ele>19</ele>
        <time>2026-08-23T15:14:34.000Z</time>
      </trkpt>
      <trkpt lat="43.35627" lon="-1.56588">
        <ele>19</ele>
        <time>2026-08-23T15:14:35.000Z</time>
      </trkpt>
      <trkpt lat="43.35633" lon="-1.56592">
        <ele>19</ele>
        <time>2026-08-23T15:14:36.000Z</time>
      </trkpt>
      <trkpt lat="43.35635" lon="-1.56599">
        <ele>19</ele>
        <time>2026-08-23T15:14:37.000Z</time>
      </trkpt>
      <trkpt lat="43.35635" lon="-1.56604">
        <ele>19</ele>
        <time>2026-08-23T15:14:38.000Z</time>
      </trkpt>
      <trkpt lat="43.3563" lon="-1.56613">
        <ele>19</ele>
        <time>2026-08-23T15:14:39.000Z</time>
      </trkpt>
      <trkpt lat="43.35624" lon="-1.56615">
        <ele>19</ele>
        <time>2026-08-23T15:14:40.000Z</time>
      </trkpt>
      <trkpt lat="43.35625" lon="-1.56642">
        <ele>19</ele>
        <time>2026-08-23T15:14:44.000Z</time>
      </trkpt>
      <trkpt lat="43.35617" lon="-1.56692">
        <ele>19</ele>
        <time>2026-08-23T15:14:50.000Z</time>
      </trkpt>
      <trkpt lat="43.35592" lon="-1.56778">
        <ele>17</ele>
        <time>2026-08-23T15:15:02.000Z</time>
      </trkpt>
      <trkpt lat="43.35587" lon="-1.56801">
        <ele>17</ele>
        <time>2026-08-23T15:15:05.000Z</time>
      </trkpt>
      <trkpt lat="43.35585" lon="-1.56823">
        <ele>17</ele>
        <time>2026-08-23T15:15:08.000Z</time>
      </trkpt>
      <trkpt lat="43.35588" lon="-1.56851">
        <ele>17</ele>
        <time>2026-08-23T15:15:12.000Z</time>
      </trkpt>
      <trkpt lat="43.35593" lon="-1.56864">
        <ele>17</ele>
        <time>2026-08-23T15:15:14.000Z</time>
      </trkpt>
      <trkpt lat="43.35608" lon="-1.56893">
        <ele>17</ele>
        <time>2026-08-23T15:15:18.000Z</time>
      </trkpt>
      <trkpt lat="43.35625" lon="-1.56922">
        <ele>17</ele>
        <time>2026-08-23T15:15:23.000Z</time>
      </trkpt>
      <trkpt lat="43.35723" lon="-1.5713">
        <ele>15</ele>
        <time>2026-08-23T15:15:55.000Z</time>
      </trkpt>
      <trkpt lat="43.35733" lon="-1.5716">
        <ele>15</ele>
        <time>2026-08-23T15:16:00.000Z</time>
      </trkpt>
      <trkpt lat="43.3574" lon="-1.57189">
        <ele>15</ele>
        <time>2026-08-23T15:16:04.000Z</time>
      </trkpt>
      <trkpt lat="43.35745" lon="-1.57225">
        <ele>14</ele>
        <time>2026-08-23T15:16:08.000Z</time>
      </trkpt>
      <trkpt lat="43.35763" lon="-1.57418">
        <ele>13</ele>
        <time>2026-08-23T15:16:33.000Z</time>
      </trkpt>
      <trkpt lat="43.35767" lon="-1.57433">
        <ele>13</ele>
        <time>2026-08-23T15:16:35.000Z</time>
      </trkpt>
      <trkpt lat="43.35781" lon="-1.57455">
        <ele>13</ele>
        <time>2026-08-23T15:16:39.000Z</time>
      </trkpt>
      <trkpt lat="43.35786" lon="-1.57459">
        <ele>13</ele>
        <time>2026-08-23T15:16:40.000Z</time>
      </trkpt>
      <trkpt lat="43.35788" lon="-1.57464">
        <ele>13</ele>
        <time>2026-08-23T15:16:41.000Z</time>
      </trkpt>
      <trkpt lat="43.35789" lon="-1.5747">
        <ele>13</ele>
        <time>2026-08-23T15:16:42.000Z</time>
      </trkpt>
      <trkpt lat="43.35784" lon="-1.57479">
        <ele>13</ele>
        <time>2026-08-23T15:16:43.000Z</time>
      </trkpt>
      <trkpt lat="43.35781" lon="-1.57496">
        <ele>13</ele>
        <time>2026-08-23T15:16:46.000Z</time>
      </trkpt>
      <trkpt lat="43.35779" lon="-1.57526">
        <ele>13</ele>
        <time>2026-08-23T15:16:49.000Z</time>
      </trkpt>
      <trkpt lat="43.35779" lon="-1.57552">
        <ele>13</ele>
        <time>2026-08-23T15:16:53.000Z</time>
      </trkpt>
      <trkpt lat="43.35782" lon="-1.57586">
        <ele>13</ele>
        <time>2026-08-23T15:16:57.000Z</time>
      </trkpt>
      <trkpt lat="43.35827" lon="-1.57821">
        <ele>11</ele>
        <time>2026-08-23T15:17:29.000Z</time>
      </trkpt>
      <trkpt lat="43.35838" lon="-1.57869">
        <ele>11</ele>
        <time>2026-08-23T15:17:35.000Z</time>
      </trkpt>
      <trkpt lat="43.35852" lon="-1.57913">
        <ele>12</ele>
        <time>2026-08-23T15:17:41.000Z</time>
      </trkpt>
      <trkpt lat="43.35864" lon="-1.57937">
        <ele>12</ele>
        <time>2026-08-23T15:17:45.000Z</time>
      </trkpt>
      <trkpt lat="43.35894" lon="-1.57993">
        <ele>11</ele>
        <time>2026-08-23T15:17:54.000Z</time>
      </trkpt>
      <trkpt lat="43.36003" lon="-1.58148">
        <ele>11</ele>
        <time>2026-08-23T15:18:22.000Z</time>
      </trkpt>
      <trkpt lat="43.36109" lon="-1.58303">
        <ele>12</ele>
        <time>2026-08-23T15:18:50.000Z</time>
      </trkpt>
      <trkpt lat="43.36129" lon="-1.58341">
        <ele>12</ele>
        <time>2026-08-23T15:18:56.000Z</time>
      </trkpt>
      <trkpt lat="43.36139" lon="-1.58363">
        <ele>12</ele>
        <time>2026-08-23T15:18:59.000Z</time>
      </trkpt>
      <trkpt lat="43.36164" lon="-1.58429">
        <ele>12</ele>
        <time>2026-08-23T15:19:09.000Z</time>
      </trkpt>
      <trkpt lat="43.36257" lon="-1.58723">
        <ele>14</ele>
        <time>2026-08-23T15:19:50.000Z</time>
      </trkpt>
      <trkpt lat="43.3628" lon="-1.58766">
        <ele>18</ele>
        <time>2026-08-23T15:19:57.000Z</time>
      </trkpt>
      <trkpt lat="43.36308" lon="-1.58801">
        <ele>19</ele>
        <time>2026-08-23T15:20:04.000Z</time>
      </trkpt>
      <trkpt lat="43.36402" lon="-1.58885">
        <ele>17</ele>
        <time>2026-08-23T15:20:24.000Z</time>
      </trkpt>
      <trkpt lat="43.36427" lon="-1.58913">
        <ele>13</ele>
        <time>2026-08-23T15:20:29.000Z</time>
      </trkpt>
      <trkpt lat="43.36444" lon="-1.58941">
        <ele>12</ele>
        <time>2026-08-23T15:20:34.000Z</time>
      </trkpt>
      <trkpt lat="43.3646" lon="-1.58976">
        <ele>11</ele>
        <time>2026-08-23T15:20:40.000Z</time>
      </trkpt>
      <trkpt lat="43.36482" lon="-1.59044">
        <ele>9</ele>
        <time>2026-08-23T15:20:49.000Z</time>
      </trkpt>
      <trkpt lat="43.36581" lon="-1.59376">
        <ele>9</ele>
        <time>2026-08-23T15:21:36.000Z</time>
      </trkpt>
      <trkpt lat="43.36589" lon="-1.5943">
        <ele>9</ele>
        <time>2026-08-23T15:21:43.000Z</time>
      </trkpt>
      <trkpt lat="43.36592" lon="-1.59482">
        <ele>9</ele>
        <time>2026-08-23T15:21:49.000Z</time>
      </trkpt>
      <trkpt lat="43.36588" lon="-1.59546">
        <ele>11</ele>
        <time>2026-08-23T15:21:58.000Z</time>
      </trkpt>
      <trkpt lat="43.36567" lon="-1.59809">
        <ele>18</ele>
        <time>2026-08-23T15:22:32.000Z</time>
      </trkpt>
      <trkpt lat="43.36562" lon="-1.59843">
        <ele>18</ele>
        <time>2026-08-23T15:22:36.000Z</time>
      </trkpt>
      <trkpt lat="43.36549" lon="-1.59873">
        <ele>17</ele>
        <time>2026-08-23T15:22:41.000Z</time>
      </trkpt>
      <trkpt lat="43.36533" lon="-1.59897">
        <ele>16</ele>
        <time>2026-08-23T15:22:45.000Z</time>
      </trkpt>
      <trkpt lat="43.36476" lon="-1.5994">
        <ele>14</ele>
        <time>2026-08-23T15:22:57.000Z</time>
      </trkpt>
      <trkpt lat="43.36447" lon="-1.59965">
        <ele>14</ele>
        <time>2026-08-23T15:23:03.000Z</time>
      </trkpt>
      <trkpt lat="43.36418" lon="-1.59996">
        <ele>13</ele>
        <time>2026-08-23T15:23:09.000Z</time>
      </trkpt>
      <trkpt lat="43.36387" lon="-1.60042">
        <ele>15</ele>
        <time>2026-08-23T15:23:18.000Z</time>
      </trkpt>
      <trkpt lat="43.36371" lon="-1.60073">
        <ele>15</ele>
        <time>2026-08-23T15:23:22.000Z</time>
      </trkpt>
      <trkpt lat="43.36336" lon="-1.60166">
        <ele>16</ele>
        <time>2026-08-23T15:23:36.000Z</time>
      </trkpt>
      <trkpt lat="43.36316" lon="-1.60201">
        <ele>20</ele>
        <time>2026-08-23T15:23:42.000Z</time>
      </trkpt>
      <trkpt lat="43.36299" lon="-1.60225">
        <ele>21</ele>
        <time>2026-08-23T15:23:46.000Z</time>
      </trkpt>
      <trkpt lat="43.36264" lon="-1.60257">
        <ele>19</ele>
        <time>2026-08-23T15:23:54.000Z</time>
      </trkpt>
      <trkpt lat="43.36203" lon="-1.60308">
        <ele>15</ele>
        <time>2026-08-23T15:24:06.000Z</time>
      </trkpt>
      <trkpt lat="43.36173" lon="-1.60338">
        <ele>13</ele>
        <time>2026-08-23T15:24:13.000Z</time>
      </trkpt>
      <trkpt lat="43.36153" lon="-1.60362">
        <ele>14</ele>
        <time>2026-08-23T15:24:18.000Z</time>
      </trkpt>
      <trkpt lat="43.36138" lon="-1.60384">
        <ele>15</ele>
        <time>2026-08-23T15:24:21.000Z</time>
      </trkpt>
      <trkpt lat="43.36126" lon="-1.60409">
        <ele>15</ele>
        <time>2026-08-23T15:24:25.000Z</time>
      </trkpt>
      <trkpt lat="43.36109" lon="-1.60462">
        <ele>16</ele>
        <time>2026-08-23T15:24:33.000Z</time>
      </trkpt>
      <trkpt lat="43.36103" lon="-1.60494">
        <ele>17</ele>
        <time>2026-08-23T15:24:37.000Z</time>
      </trkpt>
      <trkpt lat="43.36102" lon="-1.60518">
        <ele>17</ele>
        <time>2026-08-23T15:24:40.000Z</time>
      </trkpt>
      <trkpt lat="43.36102" lon="-1.60551">
        <ele>17</ele>
        <time>2026-08-23T15:24:44.000Z</time>
      </trkpt>
      <trkpt lat="43.36104" lon="-1.60585">
        <ele>18</ele>
        <time>2026-08-23T15:24:49.000Z</time>
      </trkpt>
      <trkpt lat="43.36117" lon="-1.60699">
        <ele>18</ele>
        <time>2026-08-23T15:25:04.000Z</time>
      </trkpt>
      <trkpt lat="43.36119" lon="-1.6075">
        <ele>18</ele>
        <time>2026-08-23T15:25:10.000Z</time>
      </trkpt>
      <trkpt lat="43.36113" lon="-1.60838">
        <ele>16</ele>
        <time>2026-08-23T15:25:22.000Z</time>
      </trkpt>
      <trkpt lat="43.36105" lon="-1.61018">
        <ele>17</ele>
        <time>2026-08-23T15:25:45.000Z</time>
      </trkpt>
      <trkpt lat="43.36096" lon="-1.6111">
        <ele>14</ele>
        <time>2026-08-23T15:25:57.000Z</time>
      </trkpt>
      <trkpt lat="43.36091" lon="-1.61139">
        <ele>13</ele>
        <time>2026-08-23T15:26:01.000Z</time>
      </trkpt>
      <trkpt lat="43.36083" lon="-1.61166">
        <ele>12</ele>
        <time>2026-08-23T15:26:05.000Z</time>
      </trkpt>
      <trkpt lat="43.36066" lon="-1.61209">
        <ele>11</ele>
        <time>2026-08-23T15:26:11.000Z</time>
      </trkpt>
      <trkpt lat="43.36058" lon="-1.61226">
        <ele>11</ele>
        <time>2026-08-23T15:26:14.000Z</time>
      </trkpt>
      <trkpt lat="43.36043" lon="-1.61253">
        <ele>11</ele>
        <time>2026-08-23T15:26:18.000Z</time>
      </trkpt>
      <trkpt lat="43.36014" lon="-1.61293">
        <ele>11</ele>
        <time>2026-08-23T15:26:25.000Z</time>
      </trkpt>
      <trkpt lat="43.35934" lon="-1.61396">
        <ele>16</ele>
        <time>2026-08-23T15:26:45.000Z</time>
      </trkpt>
      <trkpt lat="43.35913" lon="-1.61419">
        <ele>16</ele>
        <time>2026-08-23T15:26:50.000Z</time>
      </trkpt>
      <trkpt lat="43.35815" lon="-1.61503">
        <ele>12</ele>
        <time>2026-08-23T15:27:10.000Z</time>
      </trkpt>
      <trkpt lat="43.35787" lon="-1.61535">
        <ele>14</ele>
        <time>2026-08-23T15:27:17.000Z</time>
      </trkpt>
      <trkpt lat="43.35515" lon="-1.61963">
        <ele>18</ele>
        <time>2026-08-23T15:28:30.000Z</time>
      </trkpt>
      <trkpt lat="43.35486" lon="-1.62001">
        <ele>18</ele>
        <time>2026-08-23T15:28:37.000Z</time>
      </trkpt>
      <trkpt lat="43.35432" lon="-1.62045">
        <ele>21</ele>
        <time>2026-08-23T15:28:49.000Z</time>
      </trkpt>
      <trkpt lat="43.35407" lon="-1.6206">
        <ele>21</ele>
        <time>2026-08-23T15:28:53.000Z</time>
      </trkpt>
      <trkpt lat="43.3524" lon="-1.62126">
        <ele>14</ele>
        <time>2026-08-23T15:29:24.000Z</time>
      </trkpt>
      <trkpt lat="43.35214" lon="-1.62143">
        <ele>12</ele>
        <time>2026-08-23T15:29:30.000Z</time>
      </trkpt>
      <trkpt lat="43.35191" lon="-1.62169">
        <ele>11</ele>
        <time>2026-08-23T15:29:35.000Z</time>
      </trkpt>
      <trkpt lat="43.35181" lon="-1.62185">
        <ele>11</ele>
        <time>2026-08-23T15:29:38.000Z</time>
      </trkpt>
      <trkpt lat="43.35118" lon="-1.62308">
        <ele>11</ele>
        <time>2026-08-23T15:29:57.000Z</time>
      </trkpt>
      <trkpt lat="43.35109" lon="-1.62334">
        <ele>10</ele>
        <time>2026-08-23T15:30:01.000Z</time>
      </trkpt>
      <trkpt lat="43.35103" lon="-1.62402">
        <ele>11</ele>
        <time>2026-08-23T15:30:10.000Z</time>
      </trkpt>
      <trkpt lat="43.35103" lon="-1.62461">
        <ele>10</ele>
        <time>2026-08-23T15:30:17.000Z</time>
      </trkpt>
      <trkpt lat="43.35108" lon="-1.62493">
        <ele>11</ele>
        <time>2026-08-23T15:30:21.000Z</time>
      </trkpt>
      <trkpt lat="43.35118" lon="-1.62528">
        <ele>12</ele>
        <time>2026-08-23T15:30:26.000Z</time>
      </trkpt>
      <trkpt lat="43.35207" lon="-1.62759">
        <ele>8</ele>
        <time>2026-08-23T15:31:00.000Z</time>
      </trkpt>
      <trkpt lat="43.35255" lon="-1.629">
        <ele>6</ele>
        <time>2026-08-23T15:31:20.000Z</time>
      </trkpt>
      <trkpt lat="43.35289" lon="-1.62974">
        <ele>6</ele>
        <time>2026-08-23T15:31:32.000Z</time>
      </trkpt>
      <trkpt lat="43.35306" lon="-1.62998">
        <ele>6</ele>
        <time>2026-08-23T15:31:36.000Z</time>
      </trkpt>
      <trkpt lat="43.3535" lon="-1.63044">
        <ele>7</ele>
        <time>2026-08-23T15:31:46.000Z</time>
      </trkpt>
      <trkpt lat="43.35386" lon="-1.63073">
        <ele>7</ele>
        <time>2026-08-23T15:31:53.000Z</time>
      </trkpt>
      <trkpt lat="43.35403" lon="-1.63082">
        <ele>7</ele>
        <time>2026-08-23T15:31:56.000Z</time>
      </trkpt>
      <trkpt lat="43.3544" lon="-1.63097">
        <ele>6</ele>
        <time>2026-08-23T15:32:03.000Z</time>
      </trkpt>
      <trkpt lat="43.35614" lon="-1.63148">
        <ele>5</ele>
        <time>2026-08-23T15:32:35.000Z</time>
      </trkpt>
      <trkpt lat="43.35639" lon="-1.63145">
        <ele>6</ele>
        <time>2026-08-23T15:32:39.000Z</time>
      </trkpt>
      <trkpt lat="43.35647" lon="-1.63139">
        <ele>6</ele>
        <time>2026-08-23T15:32:41.000Z</time>
      </trkpt>
      <trkpt lat="43.35653" lon="-1.63131">
        <ele>7</ele>
        <time>2026-08-23T15:32:43.000Z</time>
      </trkpt>
      <trkpt lat="43.35661" lon="-1.63129">
        <ele>7</ele>
        <time>2026-08-23T15:32:44.000Z</time>
      </trkpt>
      <trkpt lat="43.35668" lon="-1.63133">
        <ele>7</ele>
        <time>2026-08-23T15:32:45.000Z</time>
      </trkpt>
      <trkpt lat="43.3567" lon="-1.63137">
        <ele>7</ele>
        <time>2026-08-23T15:32:46.000Z</time>
      </trkpt>
      <trkpt lat="43.35673" lon="-1.63149">
        <ele>7</ele>
        <time>2026-08-23T15:32:48.000Z</time>
      </trkpt>
      <trkpt lat="43.35676" lon="-1.63154">
        <ele>7</ele>
        <time>2026-08-23T15:32:48.000Z</time>
      </trkpt>
      <trkpt lat="43.35699" lon="-1.63173">
        <ele>6</ele>
        <time>2026-08-23T15:32:53.000Z</time>
      </trkpt>
      <trkpt lat="43.35728" lon="-1.63183">
        <ele>7</ele>
        <time>2026-08-23T15:32:59.000Z</time>
      </trkpt>
      <trkpt lat="43.3575" lon="-1.63192">
        <ele>7</ele>
        <time>2026-08-23T15:33:03.000Z</time>
      </trkpt>
      <trkpt lat="43.35789" lon="-1.63219">
        <ele>9</ele>
        <time>2026-08-23T15:33:10.000Z</time>
      </trkpt>
      <trkpt lat="43.35859" lon="-1.6328">
        <ele>9</ele>
        <time>2026-08-23T15:33:25.000Z</time>
      </trkpt>
      <trkpt lat="43.35921" lon="-1.63341">
        <ele>8</ele>
        <time>2026-08-23T15:33:39.000Z</time>
      </trkpt>
      <trkpt lat="43.35935" lon="-1.63358">
        <ele>9</ele>
        <time>2026-08-23T15:33:42.000Z</time>
      </trkpt>
      <trkpt lat="43.35984" lon="-1.63434">
        <ele>8</ele>
        <time>2026-08-23T15:33:55.000Z</time>
      </trkpt>
      <trkpt lat="43.35995" lon="-1.63453">
        <ele>8</ele>
        <time>2026-08-23T15:33:58.000Z</time>
      </trkpt>
      <trkpt lat="43.36014" lon="-1.63501">
        <ele>6</ele>
        <time>2026-08-23T15:34:05.000Z</time>
      </trkpt>
      <trkpt lat="43.36029" lon="-1.63531">
        <ele>6</ele>
        <time>2026-08-23T15:34:10.000Z</time>
      </trkpt>
      <trkpt lat="43.36039" lon="-1.63549">
        <ele>6</ele>
        <time>2026-08-23T15:34:13.000Z</time>
      </trkpt>
      <trkpt lat="43.36061" lon="-1.63577">
        <ele>5</ele>
        <time>2026-08-23T15:34:18.000Z</time>
      </trkpt>
      <trkpt lat="43.36075" lon="-1.63589">
        <ele>5</ele>
        <time>2026-08-23T15:34:21.000Z</time>
      </trkpt>
      <trkpt lat="43.36097" lon="-1.63603">
        <ele>5</ele>
        <time>2026-08-23T15:34:26.000Z</time>
      </trkpt>
      <trkpt lat="43.36255" lon="-1.63666">
        <ele>6</ele>
        <time>2026-08-23T15:34:55.000Z</time>
      </trkpt>
      <trkpt lat="43.3629" lon="-1.63673">
        <ele>6</ele>
        <time>2026-08-23T15:35:01.000Z</time>
      </trkpt>
      <trkpt lat="43.36308" lon="-1.63673">
        <ele>7</ele>
        <time>2026-08-23T15:35:04.000Z</time>
      </trkpt>
      <trkpt lat="43.36349" lon="-1.63669">
        <ele>7</ele>
        <time>2026-08-23T15:35:12.000Z</time>
      </trkpt>
      <trkpt lat="43.36367" lon="-1.63664">
        <ele>7</ele>
        <time>2026-08-23T15:35:15.000Z</time>
      </trkpt>
      <trkpt lat="43.36626" lon="-1.6358">
        <ele>7</ele>
        <time>2026-08-23T15:36:02.000Z</time>
      </trkpt>
      <trkpt lat="43.36644" lon="-1.63577">
        <ele>7</ele>
        <time>2026-08-23T15:36:06.000Z</time>
      </trkpt>
      <trkpt lat="43.36675" lon="-1.63576">
        <ele>8</ele>
        <time>2026-08-23T15:36:11.000Z</time>
      </trkpt>
      <trkpt lat="43.36722" lon="-1.63585">
        <ele>7</ele>
        <time>2026-08-23T15:36:19.000Z</time>
      </trkpt>
      <trkpt lat="43.36753" lon="-1.63597">
        <ele>7</ele>
        <time>2026-08-23T15:36:25.000Z</time>
      </trkpt>
      <trkpt lat="43.37063" lon="-1.63793">
        <ele>6</ele>
        <time>2026-08-23T15:37:26.000Z</time>
      </trkpt>
      <trkpt lat="43.37085" lon="-1.63801">
        <ele>6</ele>
        <time>2026-08-23T15:37:30.000Z</time>
      </trkpt>
      <trkpt lat="43.37111" lon="-1.63806">
        <ele>5</ele>
        <time>2026-08-23T15:37:35.000Z</time>
      </trkpt>
      <trkpt lat="43.37409" lon="-1.63788">
        <ele>4</ele>
        <time>2026-08-23T15:38:28.000Z</time>
      </trkpt>
      <trkpt lat="43.37444" lon="-1.63779">
        <ele>4</ele>
        <time>2026-08-23T15:38:34.000Z</time>
      </trkpt>
      <trkpt lat="43.37508" lon="-1.63777">
        <ele>4</ele>
        <time>2026-08-23T15:38:45.000Z</time>
      </trkpt>
      <trkpt lat="43.37526" lon="-1.63781">
        <ele>5</ele>
        <time>2026-08-23T15:38:49.000Z</time>
      </trkpt>
      <trkpt lat="43.37541" lon="-1.63773">
        <ele>5</ele>
        <time>2026-08-23T15:38:52.000Z</time>
      </trkpt>
      <trkpt lat="43.37607" lon="-1.63771">
        <ele>6</ele>
        <time>2026-08-23T15:39:03.000Z</time>
      </trkpt>
      <trkpt lat="43.37642" lon="-1.63776">
        <ele>6</ele>
        <time>2026-08-23T15:39:10.000Z</time>
      </trkpt>
      <trkpt lat="43.37738" lon="-1.63772">
        <ele>8</ele>
        <time>2026-08-23T15:39:27.000Z</time>
      </trkpt>
      <trkpt lat="43.37759" lon="-1.63774">
        <ele>8</ele>
        <time>2026-08-23T15:39:30.000Z</time>
      </trkpt>
      <trkpt lat="43.37776" lon="-1.63786">
        <ele>8</ele>
        <time>2026-08-23T15:39:34.000Z</time>
      </trkpt>
      <trkpt lat="43.37906" lon="-1.63917">
        <ele>6</ele>
        <time>2026-08-23T15:40:02.000Z</time>
      </trkpt>
      <trkpt lat="43.38056" lon="-1.64058">
        <ele>9</ele>
        <time>2026-08-23T15:40:35.000Z</time>
      </trkpt>
      <trkpt lat="43.3812" lon="-1.64193">
        <ele>6</ele>
        <time>2026-08-23T15:40:56.000Z</time>
      </trkpt>
      <trkpt lat="43.38155" lon="-1.6423">
        <ele>6</ele>
        <time>2026-08-23T15:41:03.000Z</time>
      </trkpt>
      <trkpt lat="43.38158" lon="-1.6421">
        <ele>7</ele>
        <time>2026-08-23T15:41:06.000Z</time>
      </trkpt>
      <trkpt lat="43.38148" lon="-1.64203">
        <ele>7</ele>
        <time>2026-08-23T15:41:08.000Z</time>
      </trkpt>
      <trkpt lat="43.38158" lon="-1.6421">
        <ele>7</ele>
        <time>2026-08-23T15:41:10.000Z</time>
      </trkpt>
      <trkpt lat="43.38155" lon="-1.6423">
        <ele>6</ele>
        <time>2026-08-23T15:41:13.000Z</time>
      </trkpt>
      <trkpt lat="43.38212" lon="-1.64283">
        <ele>5</ele>
        <time>2026-08-23T15:41:25.000Z</time>
      </trkpt>
      <trkpt lat="43.38232" lon="-1.64309">
        <ele>5</ele>
        <time>2026-08-23T15:41:30.000Z</time>
      </trkpt>
      <trkpt lat="43.3825" lon="-1.64341">
        <ele>5</ele>
        <time>2026-08-23T15:41:35.000Z</time>
      </trkpt>
      <trkpt lat="43.38264" lon="-1.64383">
        <ele>7</ele>
        <time>2026-08-23T15:41:41.000Z</time>
      </trkpt>
      <trkpt lat="43.38272" lon="-1.64424">
        <ele>8</ele>
        <time>2026-08-23T15:41:47.000Z</time>
      </trkpt>
      <trkpt lat="43.38275" lon="-1.64455">
        <ele>9</ele>
        <time>2026-08-23T15:41:51.000Z</time>
      </trkpt>
      <trkpt lat="43.38278" lon="-1.64507">
        <ele>10</ele>
        <time>2026-08-23T15:41:57.000Z</time>
      </trkpt>
      <trkpt lat="43.3828" lon="-1.64595">
        <ele>8</ele>
        <time>2026-08-23T15:42:09.000Z</time>
      </trkpt>
      <trkpt lat="43.38277" lon="-1.64656">
        <ele>7</ele>
        <time>2026-08-23T15:42:17.000Z</time>
      </trkpt>
      <trkpt lat="43.38255" lon="-1.6488">
        <ele>9</ele>
        <time>2026-08-23T15:42:46.000Z</time>
      </trkpt>
      <trkpt lat="43.38252" lon="-1.64928">
        <ele>8</ele>
        <time>2026-08-23T15:42:52.000Z</time>
      </trkpt>
      <trkpt lat="43.38256" lon="-1.64957">
        <ele>8</ele>
        <time>2026-08-23T15:42:56.000Z</time>
      </trkpt>
      <trkpt lat="43.3826" lon="-1.64971">
        <ele>8</ele>
        <time>2026-08-23T15:42:58.000Z</time>
      </trkpt>
      <trkpt lat="43.38275" lon="-1.65015">
        <ele>9</ele>
        <time>2026-08-23T15:43:04.000Z</time>
      </trkpt>
      <trkpt lat="43.38343" lon="-1.652">
        <ele>12</ele>
        <time>2026-08-23T15:43:31.000Z</time>
      </trkpt>
      <trkpt lat="43.38356" lon="-1.65227">
        <ele>13</ele>
        <time>2026-08-23T15:43:35.000Z</time>
      </trkpt>
      <trkpt lat="43.38363" lon="-1.65232">
        <ele>13</ele>
        <time>2026-08-23T15:43:37.000Z</time>
      </trkpt>
      <trkpt lat="43.38379" lon="-1.65254">
        <ele>14</ele>
        <time>2026-08-23T15:43:41.000Z</time>
      </trkpt>
      <trkpt lat="43.384" lon="-1.6527">
        <ele>14</ele>
        <time>2026-08-23T15:43:45.000Z</time>
      </trkpt>
      <trkpt lat="43.38412" lon="-1.65283">
        <ele>13</ele>
        <time>2026-08-23T15:43:48.000Z</time>
      </trkpt>
      <trkpt lat="43.38412" lon="-1.65303">
        <ele>10</ele>
        <time>2026-08-23T15:43:50.000Z</time>
      </trkpt>
      <trkpt lat="43.38407" lon="-1.65318">
        <ele>8</ele>
        <time>2026-08-23T15:43:52.000Z</time>
      </trkpt>
      <trkpt lat="43.38404" lon="-1.65322">
        <ele>7</ele>
        <time>2026-08-23T15:43:53.000Z</time>
      </trkpt>
      <trkpt lat="43.38343" lon="-1.65446">
        <ele>5</ele>
        <time>2026-08-23T15:44:12.000Z</time>
      </trkpt>
      <trkpt lat="43.38341" lon="-1.65462">
        <ele>4</ele>
        <time>2026-08-23T15:44:15.000Z</time>
      </trkpt>
      <trkpt lat="43.38361" lon="-1.65489">
        <ele>4</ele>
        <time>2026-08-23T15:44:19.000Z</time>
      </trkpt>
      <trkpt lat="43.38364" lon="-1.655">
        <ele>4</ele>
        <time>2026-08-23T15:44:21.000Z</time>
      </trkpt>
      <trkpt lat="43.3836" lon="-1.65509">
        <ele>4</ele>
        <time>2026-08-23T15:44:22.000Z</time>
      </trkpt>
      <trkpt lat="43.38357" lon="-1.65509">
        <ele>4</ele>
        <time>2026-08-23T15:44:23.000Z</time>
      </trkpt>
      <trkpt lat="43.38351" lon="-1.65522">
        <ele>4</ele>
        <time>2026-08-23T15:44:25.000Z</time>
      </trkpt>
      <trkpt lat="43.38236" lon="-1.65679">
        <ele>4</ele>
        <time>2026-08-23T15:44:54.000Z</time>
      </trkpt>
      <trkpt lat="43.38233" lon="-1.65687">
        <ele>4</ele>
        <time>2026-08-23T15:44:55.000Z</time>
      </trkpt>
      <trkpt lat="43.38234" lon="-1.65703">
        <ele>4</ele>
        <time>2026-08-23T15:44:57.000Z</time>
      </trkpt>
      <trkpt lat="43.38298" lon="-1.65877">
        <ele>4</ele>
        <time>2026-08-23T15:45:22.000Z</time>
      </trkpt>
      <trkpt lat="43.38309" lon="-1.65902">
        <ele>5</ele>
        <time>2026-08-23T15:45:26.000Z</time>
      </trkpt>
      <trkpt lat="43.38324" lon="-1.65923">
        <ele>6</ele>
        <time>2026-08-23T15:45:30.000Z</time>
      </trkpt>
      <trkpt lat="43.3833" lon="-1.65928">
        <ele>6</ele>
        <time>2026-08-23T15:45:31.000Z</time>
      </trkpt>
      <trkpt lat="43.38334" lon="-1.65923">
        <ele>6</ele>
        <time>2026-08-23T15:45:32.000Z</time>
      </trkpt>
      <trkpt lat="43.3834" lon="-1.65924">
        <ele>6</ele>
        <time>2026-08-23T15:45:33.000Z</time>
      </trkpt>
      <trkpt lat="43.38342" lon="-1.65926">
        <ele>6</ele>
        <time>2026-08-23T15:45:33.000Z</time>
      </trkpt>
      <trkpt lat="43.38344" lon="-1.6593">
        <ele>6</ele>
        <time>2026-08-23T15:45:34.000Z</time>
      </trkpt>
      <trkpt lat="43.38344" lon="-1.65938">
        <ele>6</ele>
        <time>2026-08-23T15:45:35.000Z</time>
      </trkpt>
      <trkpt lat="43.3834" lon="-1.65943">
        <ele>6</ele>
        <time>2026-08-23T15:45:36.000Z</time>
      </trkpt>
      <trkpt lat="43.38347" lon="-1.65961">
        <ele>6</ele>
        <time>2026-08-23T15:45:39.000Z</time>
      </trkpt>
      <trkpt lat="43.38445" lon="-1.66095">
        <ele>5</ele>
        <time>2026-08-23T15:46:03.000Z</time>
      </trkpt>
      <trkpt lat="43.38462" lon="-1.66121">
        <ele>5</ele>
        <time>2026-08-23T15:46:08.000Z</time>
      </trkpt>
      <trkpt lat="43.38479" lon="-1.66155">
        <ele>5</ele>
        <time>2026-08-23T15:46:13.000Z</time>
      </trkpt>
      <trkpt lat="43.38485" lon="-1.66152">
        <ele>5</ele>
        <time>2026-08-23T15:46:14.000Z</time>
      </trkpt>
      <trkpt lat="43.38491" lon="-1.66155">
        <ele>5</ele>
        <time>2026-08-23T15:46:15.000Z</time>
      </trkpt>
      <trkpt lat="43.38493" lon="-1.6616">
        <ele>5</ele>
        <time>2026-08-23T15:46:16.000Z</time>
      </trkpt>
      <trkpt lat="43.38493" lon="-1.66166">
        <ele>5</ele>
        <time>2026-08-23T15:46:17.000Z</time>
      </trkpt>
      <trkpt lat="43.38491" lon="-1.66171">
        <ele>5</ele>
        <time>2026-08-23T15:46:18.000Z</time>
      </trkpt>
      <trkpt lat="43.38487" lon="-1.66173">
        <ele>5</ele>
        <time>2026-08-23T15:46:18.000Z</time>
      </trkpt>
      <trkpt lat="43.38493" lon="-1.66191">
        <ele>5</ele>
        <time>2026-08-23T15:46:21.000Z</time>
      </trkpt>
      <trkpt lat="43.38503" lon="-1.66208">
        <ele>4</ele>
        <time>2026-08-23T15:46:24.000Z</time>
      </trkpt>
      <trkpt lat="43.38616" lon="-1.66309">
        <ele>1</ele>
        <time>2026-08-23T15:46:48.000Z</time>
      </trkpt>
      <trkpt lat="43.38636" lon="-1.66319">
        <ele>3.9</ele>
        <time>2026-08-23T15:46:52.000Z</time>
      </trkpt>
      <trkpt lat="43.38667" lon="-1.66322">
        <ele>1</ele>
        <time>2026-08-23T15:46:57.000Z</time>
      </trkpt>
      <trkpt lat="43.38667" lon="-1.66317">
        <ele>1</ele>
        <time>2026-08-23T15:46:58.000Z</time>
      </trkpt>
      <trkpt lat="43.38671" lon="-1.66309">
        <ele>1</ele>
        <time>2026-08-23T15:46:59.000Z</time>
      </trkpt>
      <trkpt lat="43.38674" lon="-1.66306">
        <ele>2</ele>
        <time>2026-08-23T15:47:00.000Z</time>
      </trkpt>
      <trkpt lat="43.3868" lon="-1.66306">
        <ele>2</ele>
        <time>2026-08-23T15:47:01.000Z</time>
      </trkpt>
      <trkpt lat="43.38687" lon="-1.66313">
        <ele>2</ele>
        <time>2026-08-23T15:47:02.000Z</time>
      </trkpt>
      <trkpt lat="43.38689" lon="-1.66321">
        <ele>2</ele>
        <time>2026-08-23T15:47:03.000Z</time>
      </trkpt>
      <trkpt lat="43.38694" lon="-1.66328">
        <ele>2</ele>
        <time>2026-08-23T15:47:05.000Z</time>
      </trkpt>
      <trkpt lat="43.38705" lon="-1.66338">
        <ele>2</ele>
        <time>2026-08-23T15:47:07.000Z</time>
      </trkpt>
      <trkpt lat="43.38716" lon="-1.66342">
        <ele>3</ele>
        <time>2026-08-23T15:47:09.000Z</time>
      </trkpt>
      <trkpt lat="43.38718" lon="-1.66333">
        <ele>3</ele>
        <time>2026-08-23T15:47:10.000Z</time>
      </trkpt>
      <trkpt lat="43.38716" lon="-1.66322">
        <ele>3</ele>
        <time>2026-08-23T15:47:12.000Z</time>
      </trkpt>
    </trkseg>
  </trk>
</gpx>